[[[{"header":{"parameterUnit":"kt","parameterCategory":2,"dx":1,"dy":1,"la1":29.587661999999998,"la2":31.0,"lo1":-88.76705300000003,"lo2":-86.6583820000003,"nx":115,"ny":88,"refTime":"2022-10-29T00:00:00:Z","depth":0,"parameterNumber":1,"parameterNumberName":"U-component_of_WINDS"},"data":[-12.6723,-12.2968,-12.1011,-11.974,-11.9052,-11.9882,-12.1219,-12.2553,-12.2728,-12.2728,-12.2728,-12.2728,-12.2728,-12.2728,-12.2728,-12.2728,-12.2728,-12.2728,-12.2728,-12.2902,-12.4128,-12.5291,-12.6571,-12.8083,-12.9014,-12.977,-13.0235,-13.0235,-13.0352,-13.0293,-13.0177,-13.0061,-12.8956,-12.8429,-12.8704,-12.759,-12.6771,-12.7435,-12.7225,-12.6091,-12.5921,-12.4442,-12.2979,-12.2419,-12.2259,-12.1294,-12.0323,-11.9583,-11.7649,-11.5018,-11.2332,-11.0549,-10.9158,-10.7623,-10.6121,-10.4861,-10.3854,-10.257,-10.2033,-10.1678,-10.1225,-10.0595,-10.1393,-10.1393,-10.1871,-10.2954,-10.4144,-10.4717,-10.5242,-10.6774,-10.7453,-10.7453,-10.7735,-10.8124,-10.827,-10.8374,-10.8283,-10.7853,-10.7231,-10.6603,-10.6349,-10.6233,-10.6071,-10.6679,-10.7287,-10.7593,-10.7535,-10.7907,-10.7941,-10.571,-10.3387,-10.0577,-9.7648,-9.5163,-9.2406,-8.9395,-8.7528,-8.7255,-8.711,-8.6594,-8.6113,-8.5768,-8.5422,-8.5076,-8.4694,-8.452,-8.452,-8.452,-8.452,-8.4173,-8.1105,-7.914,-7.805,-7.607,-7.2503,-12.7221,-12.4646,-12.0657,-11.8789,-11.8819,-11.9067,-12.0405,-12.2383,-12.2728,-12.2728,-12.2728,-12.2728,-12.2728,-12.2728,-12.2728,-12.2728,-12.2728,-12.2728,-12.2728,-12.2964,-12.3779,-12.4826,-12.6164,-12.756,-12.8723,-12.9595,-13.0119,-13.0235,-13.0235,-13.0235,-13.0061,-12.9654,-12.8781,-12.7733,-12.8545,-12.7666,-12.6669,-12.7627,-12.6785,-12.5787,-12.4296,-12.2752,-12.1552,-12.0705,-12.014,-12.0027,-11.9712,-11.8812,-11.7251,-11.4289,-11.0769,-10.8676,-10.677,-10.5124,-10.3854,-10.3238,-10.2302,-10.163,-10.1002,-10.0867,-10.0459,-10.0288,-10.146,-10.2075,-10.2041,-10.3176,-10.4508,-10.5269,-10.5269,-10.6033,-10.6704,-10.7183,-10.7421,-10.7852,-10.7995,-10.814,-10.7853,-10.7423,-10.6655,-10.5932,-10.601,-10.6219,-10.6585,-10.6997,-10.7442,-10.7823,-10.8179,-10.8442,-10.7531,-10.3941,-10.1412,-9.9204,-9.5535,-9.3311,-9.1403,-8.8975,-8.7121,-8.6766,-8.6249,-8.5559,-8.5112,-8.5327,-8.5189,-8.4663,-8.452,-8.452,-8.452,-8.452,-8.452,-8.452,-8.2746,-8.1839,-8.0404,-7.7873,-7.4113,-12.6961,-12.4746,-12.094,-11.9072,-11.8935,-11.9591,-12.087,-12.2495,-12.2728,-12.2728,-12.2728,-12.2728,-12.2728,-12.2728,-12.2728,-12.2728,-12.2728,-12.2728,-12.2728,-12.2786,-12.3255,-12.4302,-12.5349,-12.6513,-12.7967,-12.913,-12.9712,-13.0177,-13.0235,-13.0235,-13.0119,-12.9828,-12.7908,-12.7326,-12.8885,-12.7201,-12.65,-12.8506,-12.6507,-12.4954,-12.3539,-12.2027,-12.0586,-12.0135,-11.9387,-11.8676,-11.8127,-11.6536,-11.4214,-11.0695,-10.8882,-10.6561,-10.4648,-10.3238,-10.2351,-10.1813,-10.136,-10.0819,-10.0276,-10.0098,-10.0015,-9.9984,-10.0829,-10.1627,-10.1772,-10.3754,-10.5224,-10.5463,-10.551,-10.5654,-10.6512,-10.6702,-10.6943,-10.7231,-10.7423,-10.7566,-10.7423,-10.6799,-10.6076,-10.5732,-10.6186,-10.6343,-10.6697,-10.7198,-10.6473,-10.6673,-10.4139,-10.3813,-10.2924,-10.0584,-9.9399,-9.7063,-9.2363,-8.9502,-8.894,-8.7745,-8.6531,-8.5941,-8.5386,-8.5112,-8.5082,-8.5158,-8.5055,-8.4734,-8.452,-8.452,-8.452,-8.452,-8.452,-8.452,-8.4173,-8.3826,-8.2188,-8.0019,-7.49,-12.5312,-12.3586,-12.0715,-11.9219,-11.8943,-11.9823,-12.1103,-12.2669,-12.2728,-12.2728,-12.2728,-12.2728,-12.2728,-12.2728,-12.2728,-12.2728,-12.2728,-12.2728,-12.2728,-12.2786,-12.2786,-12.3546,-12.4535,-12.5582,-12.6862,-12.8141,-12.913,-12.977,-13.0119,-13.0235,-13.0119,-12.9944,-12.8374,-12.7442,-12.8711,-12.709,-12.6218,-12.7307,-12.5672,-12.3828,-12.2802,-12.1355,-11.9904,-11.951,-11.834,-11.7268,-11.5788,-11.3948,-11.0224,-10.7675,-10.6691,-10.4911,-10.2838,-10.2033,-10.1543,-10.1225,-10.0683,-10.0004,-9.9594,-9.9231,-9.9329,-9.9525,-10.0367,-10.0882,-10.2242,-10.4218,-10.5402,-10.5547,-10.5692,-10.5982,-10.6221,-10.6221,-10.6366,-10.651,-10.6655,-10.6847,-10.6991,-10.6221,-10.5449,-10.5811,-10.6453,-10.68,-10.7,-10.6751,-10.5759,-10.399,-10.1628,-9.9473,-9.8882,-9.7054,-9.5504,-9.2735,-8.831,-8.733,-8.675,-8.6028,-8.571,-8.5291,-8.4939,-8.4872,-8.4877,-8.4877,-8.4806,-8.4592,-8.452,-8.452,-8.452,-8.452,-8.452,-8.452,-8.4173,-8.3269,-8.1839,-7.7814,-7.3297,-12.1589,-12.1174,-11.9053,-11.8331,-11.871,-11.9067,-12.0405,-12.2499,-12.2615,-12.2728,-12.2728,-12.2728,-12.2728,-12.2728,-12.2728,-12.2728,-12.2728,-12.2728,-12.2728,-12.2728,-12.2728,-12.3081,-12.3953,-12.4651,-12.5931,-12.7501,-12.8607,-12.9188,-12.9886,-13.0235,-13.0177,-13.0119,-12.8665,-12.8024,-12.8255,-12.6861,-12.5932,-12.5695,-12.3841,-12.2102,-12.1419,-12.0209,-11.9063,-11.8247,-11.6649,-11.4964,-11.3459,-11.0925,-10.7339,-10.6171,-10.4911,-10.3238,-10.2082,-10.1408,-10.0547,-10.014,-10.0004,-9.9458,-9.9184,-9.9145,-9.9101,-9.9665,-10.0415,-10.1538,-10.2427,-10.4074,-10.4726,-10.506,-10.506,-10.5351,-10.5351,-10.5351,-10.5496,-10.5786,-10.5932,-10.5932,-10.6076,-10.5786,-10.5346,-10.5758,-10.6445,-10.737,-10.7464,-10.4704,-10.3654,-10.306,-10.0768,-9.7391,-9.5424,-9.2704,-9.0613,-8.8228,-8.6759,-8.6629,-8.6112,-8.5905,-8.5444,-8.5051,-8.4801,-8.4663,-8.4806,-8.4699,-8.4556,-8.452,-8.452,-8.452,-8.4556,-8.452,-8.452,-8.4347,-8.3478,-8.2572,-7.8911,-7.387,-6.998,-12.0403,-11.9229,-11.8235,-11.7843,-11.7886,-11.9242,-12.0405,-12.1452,-12.2325,-12.2728,-12.2728,-12.2728,-12.2728,-12.2728,-12.2728,-12.2728,-12.2728,-12.2728,-12.2728,-12.2728,-12.2728,-12.3023,-12.3488,-12.4128,-12.5058,-12.6164,-12.7327,-12.8374,-12.9014,-12.9595,-13.0177,-13.0003,-12.8956,-12.8432,-12.7909,-12.6804,-12.5468,-12.3157,-12.0963,-11.9162,-11.734,-11.5503,-11.4436,-11.3527,-11.3159,-11.1426,-10.9792,-10.87,-10.6041,-10.4251,-10.3903,-10.2619,-10.2485,-10.1813,-10.0954,-9.9867,-9.9547,-9.9458,-9.9278,-9.9655,-10.0408,-10.1115,-10.2007,-10.2664,-10.3367,-10.3832,-10.4248,-10.4622,-10.4622,-10.4622,-10.4622,-10.4622,-10.4914,-10.506,-10.5205,-10.5205,-10.5205,-10.5205,-10.5482,-10.5604,-10.6539,-10.7661,-10.6353,-10.3425,-10.1605,-10.036,-9.8045,-9.4674,-9.1829,-8.9692,-8.776,-8.6853,-8.6755,-8.6295,-8.6478,-8.6515,-8.5875,-8.5447,-8.5055,-8.477,-8.4734,-8.4734,-8.4734,-8.4663,-8.4663,-8.4592,-8.4627,-8.4592,-8.4347,-8.3269,-8.2572,-7.9971,-7.5849,-7.114,-6.8588,-11.8833,-11.7994,-11.7489,-11.6957,-11.6769,-11.8411,-11.9584,-12.0289,-12.151,-12.2383,-12.2728,-12.2728,-12.2728,-12.2728,-12.2728,-12.2728,-12.2728,-12.2728,-12.2728,-12.2728,-12.2728,-12.2728,-12.2906,-12.343,-12.4011,-12.5,-12.6047,-12.7152,-12.785,-12.8432,-12.9014,-12.9712,-12.9188,-12.8316,-12.7443,-12.6223,-12.3445,-12.074,-11.8247,-11.6419,-11.4503,-11.279,-11.2048,-11.0998,-11.0496,-10.9158,-10.7546,-10.6301,-10.4911,-10.3238,-10.2887,-10.2619,-10.2619,-10.2082,-10.136,-10.0004,-9.9867,-9.9867,-10.0009,-10.0815,-10.1526,-10.205,-10.3422,-10.4082,-10.4409,-10.4543,-10.4528,-10.4622,-10.4622,-10.4622,-10.4622,-10.4622,-10.4622,-10.4768,-10.4768,-10.4914,-10.4914,-10.5008,-10.5429,-10.5744,-10.6398,-10.7069,-10.5828,-10.288,-9.9219,-9.7228,-9.4669,-9.1412,-8.8877,-8.7797,-8.6759,-8.7619,-8.7658,-8.6836,-8.6695,-8.7016,-8.6517,-8.5982,-8.5447,-8.5055,-8.5126,-8.5126,-8.4948,-8.5091,-8.5519,-8.5376,-8.4913,-8.4627,-8.4556,-8.3443,-8.1203,-7.7282,-7.3456,-6.9794,-6.6885,-11.622,-11.7591,-11.6382,-11.5775,-11.5729,-11.608,-11.7167,-11.8951,-12.0289,-12.151,-12.2557,-12.2728,-12.2728,-12.2728,-12.2728,-12.2728,-12.2728,-12.2728,-12.2728,-12.2728,-12.2728,-12.2728,-12.2786,-12.279,-12.3372,-12.407,-12.4884,-12.5815,-12.6396,-12.7094,-12.7676,-12.8258,-12.8897,-12.785,-12.6164,-12.4253,-12.1538,-11.8476,-11.572,-11.3488,-11.164,-11.0496,-10.9487,-10.8904,-10.8009,-10.677,-10.591,-10.4779,-10.3505,-10.302,-10.2753,-10.2485,-10.2216,-10.1947,-10.1408,-10.0867,-10.0595,-10.0643,-10.0882,-10.1878,-10.2547,-10.3268,-10.456,-10.5219,-10.55,-10.4872,-10.4622,-10.4622,-10.4622,-10.4622,-10.4622,-10.4622,-10.4622,-10.4622,-10.4622,-10.4622,-10.4622,-10.4849,-10.5269,-10.5821,-10.6521,-10.5833,-10.4794,-10.1277,-9.7306,-9.5049,-9.245,-8.939,-8.7687,-8.664,-8.71,-8.816,-8.7801,-8.7087,-8.723,-8.755,-8.723,-8.6873,-8.6196,-8.5661,-8.5661,-8.5697,-8.5661,-8.5804,-8.6303,-8.616,-8.5412,-8.4948,-8.456,-8.257,-8.0341,-7.6507,-7.2243,-6.8682,-6.6506,-11.5299,-11.5969,-11.5657,-11.5716,-11.5716,-11.5716,-11.6549,-11.8208,-11.9984,-12.1394,-12.2383,-12.2728,-12.2728,-12.2728,-12.2728,-12.2728,-12.2728,-12.2728,-12.2728,-12.2728,-12.2728,-12.2728,-12.2728,-12.2786,-12.2964,-12.3313,-12.3953,-12.4477,-12.5117,-12.5931,-12.6571,-12.7036,-12.7385,-12.6455,-12.4541,-12.2109,-11.9325,-11.6051,-11.2575,-11.0266,-10.8597,-10.7108,-10.586,-10.5649,-10.5124,-10.4384,-10.3987,-10.3505,-10.2887,-10.2887,-10.2753,-10.2753,-10.2485,-10.2216,-10.163,-10.136,-10.1185,-10.1337,-10.2097,-10.3146,-10.3829,-10.4496,-10.5844,-10.6223,-10.5739,-10.4825,-10.4581,-10.4528,-10.4622,-10.4622,-10.4622,-10.4622,-10.4622,-10.4622,-10.4622,-10.4622,-10.4616,-10.492,-10.5283,-10.605,-10.6428,-10.5191,-10.362,-9.962,-9.546,-9.2874,-9.0374,-8.8459,-8.6686,-8.6701,-8.7286,-8.7874,-8.78,-8.7907,-8.8156,-8.8228,-8.7978,-8.7693,-8.7123,-8.6481,-8.6445,-8.6445,-8.6445,-8.6517,-8.6766,-8.6731,-8.5946,-8.4956,-8.3971,-8.2241,-7.9747,-7.5942,-7.1147,-6.8827,-6.7017,-11.4879,-11.4879,-11.5403,-11.5716,-11.5716,-11.5716,-11.6126,-11.7192,-11.8752,-12.0347,-12.1743,-12.2499,-12.2728,-12.2728,-12.2728,-12.2728,-12.2728,-12.2728,-12.2728,-12.2728,-12.2728,-12.2728,-12.2728,-12.2728,-12.2786,-12.2848,-12.3197,-12.3721,-12.3837,-12.436,-12.5058,-12.5698,-12.5641,-12.4771,-12.2869,-12.0088,-11.6481,-11.3036,-10.9814,-10.672,-10.5518,-10.4036,-10.3154,-10.3105,-10.3105,-10.302,-10.302,-10.3154,-10.2753,-10.2753,-10.2753,-10.2753,-10.2619,-10.2485,-10.1764,-10.05,-10.1813,-10.1609,-10.1734,-10.3502,-10.4556,-10.5177,-10.5653,-10.5796,-10.5125,-10.4262,-10.4019,-10.3921,-10.3967,-10.4295,-10.4528,-10.4575,-10.4622,-10.4622,-10.4715,-10.4715,-10.4943,-10.5097,-10.5333,-10.6091,-10.58,-10.4594,-10.306,-9.9888,-9.4424,-9.0985,-8.8636,-8.6701,-8.6642,-8.6899,-8.7295,-8.7838,-8.8263,-8.8655,-8.8905,-8.8762,-8.8513,-8.8299,-8.7871,-8.7408,-8.7265,-8.7265,-8.7265,-8.7337,-8.7372,-8.7337,-8.6873,-8.609,-8.4244,-8.2284,-7.9729,-7.6446,-7.2913,-7.033,-6.8199,-11.4821,-11.4984,-11.5508,-11.5553,-11.5436,-11.5553,-11.5612,-11.5917,-11.6779,-11.8544,-12.087,-12.1917,-12.2441,-12.2728,-12.2728,-12.2728,-12.2728,-12.2728,-12.2728,-12.2728,-12.2728,-12.2728,-12.2728,-12.2728,-12.2728,-12.2728,-12.279,-12.2964,-12.2902,-12.3197,-12.3604,-12.4128,-12.4132,-12.3496,-12.2168,-11.8435,-11.3488,-10.8621,-10.7495,-10.5256,-10.3771,-10.3154,-10.2753,-10.2753,-10.2753,-10.2753,-10.2753,-10.2753,-10.2753,-10.2753,-10.2753,-10.2753,-10.2619,-10.2302,-10.1002,-9.9047,-10.0962,-10.0555,-9.9007,-10.1208,-10.2647,-10.3671,-10.4843,-10.4987,-10.4179,-10.3137,-10.2472,-10.3079,-10.3313,-10.3734,-10.4154,-10.4528,-10.4528,-10.4622,-10.4856,-10.5043,-10.5316,-10.5626,-10.5447,-10.5849,-10.4945,-10.3696,-10.2025,-9.9086,-9.2795,-8.9389,-8.7002,-8.6265,-8.6515,-8.705,-8.7337,-8.78,-8.8406,-8.8798,-8.9083,-8.9083,-8.9048,-8.8941,-8.8691,-8.8406,-8.8228,-8.8121,-8.8156,-8.8263,-8.8228,-8.8156,-8.78,-8.755,-8.7543,-8.6901,-8.2671,-7.8543,-7.501,-7.2148,-6.9449,-11.4065,-11.4984,-11.5403,-11.4877,-11.3924,-11.474,-11.5089,-11.5322,-11.6323,-11.8253,-12.0696,-12.1045,-12.1685,-12.2553,-12.2728,-12.2615,-12.2611,-12.2728,-12.2728,-12.2728,-12.2728,-12.2728,-12.2728,-12.2728,-12.2728,-12.2728,-12.2728,-12.2728,-12.2728,-12.2728,-12.2906,-12.3026,-12.2629,-12.1202,-11.8611,-11.3678,-10.9383,-10.6978,-10.5387,-10.3372,-10.3105,-10.2753,-10.2753,-10.2753,-10.2753,-10.2704,-10.2655,-10.2704,-10.2704,-10.2655,-10.2753,-10.2753,-10.2033,-10.1137,-9.9741,-9.8967,-9.8365,-9.7375,-9.7437,-9.8742,-10.0404,-10.2106,-10.3547,-10.3988,-10.3654,-10.3083,-10.1957,-10.2238,-10.2705,-10.3266,-10.3406,-10.3734,-10.3874,-10.4949,-10.5136,-10.5013,-10.5431,-10.5622,-10.5483,-10.4385,-10.2361,-10.0467,-9.8329,-9.4823,-9.0563,-8.9138,-8.7513,-8.7551,-8.7373,-8.7158,-8.7479,-8.7943,-8.8549,-8.8905,-8.919,-8.9155,-8.9119,-8.9083,-8.9155,-8.9012,-8.9083,-8.8976,-8.8941,-8.9048,-8.9048,-8.8941,-8.9012,-8.9226,-8.9868,-9.0723,-8.7127,-8.2788,-7.897,-7.4071,-7.1468,-11.3134,-11.3425,-11.4261,-11.4261,-11.3774,-11.4007,-11.4414,-11.4996,-11.5752,-11.7555,-11.9998,-12.0987,-12.1627,-12.1917,-12.2208,-12.2383,-12.1976,-12.2325,-12.2557,-12.2728,-12.2728,-12.2728,-12.2728,-12.2728,-12.2728,-12.2728,-12.2728,-12.2728,-12.2728,-12.2728,-12.2615,-12.2278,-12.2055,-11.9883,-11.6793,-11.2698,-10.8418,-10.586,-10.3771,-10.2887,-10.2753,-10.2753,-10.2753,-10.2753,-10.2753,-10.274,-10.2398,-10.2643,-10.2545,-10.2447,-10.2691,-10.1802,-10.0858,-9.9453,-9.7671,-9.5732,-9.5822,-9.5069,-9.5126,-9.4595,-9.6449,-9.9289,-10.23,-10.3328,-10.2711,-10.163,-10.1116,-10.1396,-10.1537,-10.2331,-10.2845,-10.3219,-10.3589,-10.4902,-10.5254,-10.5124,-10.5112,-10.5208,-10.4745,-10.1732,-9.9454,-9.7499,-9.4228,-9.0935,-8.9999,-8.9265,-8.8951,-8.8554,-8.7873,-8.7479,-8.7657,-8.8049,-8.8655,-8.9083,-8.919,-8.919,-8.919,-8.9333,-8.9475,-8.9654,-8.9832,-8.9725,-8.9725,-8.9868,-8.9903,-8.9618,-8.9796,-9.0616,-9.1686,-9.2826,-9.0579,-8.6595,-8.1565,-7.6507,-7.3204,-11.2029,-11.0866,-11.2262,-11.3367,-11.4181,-11.3367,-11.3658,-11.4588,-11.4821,-11.6333,-11.8544,-12.0696,-12.1045,-12.0987,-12.1394,-12.151,-12.087,-12.1917,-12.2383,-12.2669,-12.2728,-12.2728,-12.2728,-12.2728,-12.2728,-12.2728,-12.2728,-12.2728,-12.2615,-12.2615,-12.2165,-12.1771,-12.1718,-11.9476,-11.607,-11.2597,-10.9087,-10.4251,-10.3154,-10.2753,-10.2753,-10.2753,-10.2753,-10.2753,-10.2789,-10.2398,-10.1422,-10.2106,-10.2252,-10.1227,-10.1813,-10.1355,-9.9074,-9.7759,-9.5475,-9.3506,-9.3172,-9.2836,-9.1898,-9.1252,-9.2346,-9.6321,-9.9782,-10.1569,-10.1721,-9.9947,-9.9293,-9.9994,-10.0461,-10.1256,-10.2331,-10.3313,-10.3671,-10.4439,-10.4699,-10.3993,-10.3273,-10.3477,-10.2099,-9.8984,-9.6771,-9.5053,-9.2204,-9.0643,-8.9648,-8.956,-8.9347,-8.9418,-8.8554,-8.8049,-8.8156,-8.8156,-8.8762,-8.9119,-8.919,-8.9333,-8.9475,-8.9582,-8.9796,-9.0117,-9.058,-9.058,-9.058,-9.0759,-9.1008,-9.0402,-9.0188,-9.1935,-9.3504,-9.4823,-9.3522,-8.95,-8.4645,-7.9969,-7.6025,-11.0168,-10.8423,-11.0575,-11.1098,-11.0749,-11.232,-11.3192,-11.36,-11.4472,-11.5286,-11.6217,-11.7613,-11.8835,-11.9242,-11.9707,-12.0231,-12.0638,-12.1045,-12.1685,-12.2383,-12.2728,-12.2611,-12.2325,-12.2499,-12.2499,-12.2728,-12.2669,-12.2728,-12.2503,-12.2165,-12.1826,-12.1771,-12.1144,-11.8278,-11.4464,-11.1902,-10.9192,-10.3385,-10.2801,-10.2753,-10.2753,-10.2753,-10.2753,-10.2753,-10.2655,-10.235,-10.1471,-10.1666,-10.1227,-10.0446,-10.0511,-9.9602,-9.729,-9.5824,-9.3522,-9.2093,-9.0634,-9.0387,-8.9511,-8.9256,-9.1257,-9.4422,-9.765,-9.941,-10.0722,-10.0555,-9.976,-9.9059,-9.9573,-10.0695,-10.1817,-10.2799,-10.3033,-10.3307,-10.3655,-10.2012,-10.0872,-10.0768,-9.9747,-9.6817,-9.4598,-9.2835,-9.1968,-9.0541,-9.0129,-9.0176,-9.0035,-8.9924,-8.9523,-8.8869,-8.8691,-8.8228,-8.8798,-8.9155,-8.919,-8.9333,-8.9654,-8.9868,-9.0117,-9.058,-9.1472,-9.1721,-9.165,-9.1864,-9.222,-9.2078,-9.2292,-9.3789,-9.5215,-9.5429,-9.4786,-9.1333,-8.7509,-8.3639,-7.9215,-10.9877,-10.8248,-10.9644,-11.011,-11.0168,-11.1447,-11.2436,-11.3134,-11.4356,-11.517,-11.581,-11.6566,-11.7555,-11.866,-11.8776,-11.8951,-11.9067,-11.9591,-12.0347,-12.0754,-12.087,-12.087,-12.1161,-12.151,-12.1743,-12.1859,-12.2266,-12.2499,-12.2503,-12.1939,-12.0687,-11.9708,-11.8875,-11.6117,-11.1062,-11.0297,-10.7401,-10.4712,-10.3082,-10.2753,-10.2753,-10.2753,-10.2753,-10.2753,-10.2753,-10.1959,-10.1129,-10.0885,-10.0739,-9.9828,-9.8762,-9.7704,-9.592,-9.3792,-9.1719,-9.0608,-8.9114,-8.8117,-8.7762,-8.7364,-9.0285,-9.3892,-9.5755,-9.7738,-10.0844,-10.0976,-9.962,-9.8685,-9.9526,-10.0789,-10.2144,-10.16,-10.163,-10.1644,-10.1636,-9.9864,-9.811,-9.817,-9.7311,-9.4709,-9.2372,-9.2215,-9.1652,-9.1558,-9.2055,-9.2097,-9.207,-9.1452,-9.0722,-8.9954,-8.9377,-8.8766,-8.8941,-8.9333,-8.9404,-8.9475,-8.9939,-9.0367,-9.0616,-9.1436,-9.2363,-9.2898,-9.2898,-9.304,-9.3361,-9.4003,-9.4787,-9.5357,-9.5642,-9.5749,-9.5749,-9.138,-8.7088,-8.3549,-7.8652,-11.0284,-10.9279,-10.9279,-10.9702,-11.0459,-11.1098,-11.1913,-11.2843,-11.4239,-11.5471,-11.5519,-11.6352,-11.6875,-11.7355,-11.7754,-11.7671,-11.7497,-11.8078,-11.8776,-11.9242,-11.9242,-11.9242,-11.9125,-12.0056,-12.0463,-12.1103,-12.1859,-12.2383,-12.1542,-12.0457,-11.8724,-11.6722,-11.5679,-11.3095,-10.8985,-10.8442,-10.6169,-10.4353,-10.3277,-10.2753,-10.2753,-10.2753,-10.2753,-10.2753,-10.274,-10.2057,-10.0641,-10.0837,-10.0739,-9.9698,-9.7906,-9.6287,-9.461,-9.207,-9.0284,-8.8985,-8.7842,-8.7084,-8.6567,-8.6248,-8.8553,-9.4073,-9.5265,-9.824,-10.1419,-10.2098,-10.0648,-9.9199,-9.9016,-10.0078,-10.089,-9.9681,-9.9861,-9.9691,-9.8942,-9.7217,-9.5049,-9.4576,-9.3781,-9.1765,-9.2856,-9.2512,-9.2219,-9.3143,-9.4026,-9.4204,-9.3823,-9.273,-9.178,-9.1122,-9.043,-8.9699,-8.9618,-8.9832,-8.9939,-9.0046,-9.0438,-9.0901,-9.1507,-9.2327,-9.3147,-9.3789,-9.3896,-9.4094,-9.4502,-9.5036,-9.5642,-9.5999,-9.6141,-9.5372,-9.35,-9.038,-8.6235,-8.1989,-7.7343,-11.0284,-10.9279,-10.9279,-10.8714,-10.8597,-11.1215,-11.2145,-11.1971,-11.3832,-11.3879,-11.2812,-11.4167,-11.4175,-11.3594,-11.452,-11.6053,-11.6915,-11.6701,-11.7297,-11.7768,-11.7942,-11.8443,-11.8668,-11.9184,-11.9539,-12.0126,-12.077,-12.0503,-11.9022,-11.6785,-11.4746,-11.3635,-11.3453,-11.1144,-10.821,-10.7371,-10.5956,-10.4312,-10.2801,-10.2753,-10.2753,-10.2753,-10.2753,-10.2753,-10.2753,-10.2252,-10.0983,-10.1178,-10.069,-9.9349,-9.7515,-9.5645,-9.3844,-9.1684,-8.9975,-8.8862,-8.7405,-8.6727,-8.6088,-8.5768,-8.8315,-9.4619,-9.572,-9.9411,-10.2829,-10.3087,-10.2224,-10.1018,-9.9173,-9.799,-9.8765,-9.7468,-9.63,-9.5845,-9.5589,-9.4634,-9.2567,-9.162,-9.115,-9.1882,-9.3291,-9.3471,-9.3357,-9.4015,-9.4555,-9.4731,-9.4587,-9.3496,-9.2548,-9.1851,-9.1336,-9.0599,-9.0153,-9.0367,-9.0509,-9.0616,-9.1186,-9.165,-9.2327,-9.3111,-9.3896,-9.4609,-9.4664,-9.4927,-9.4872,-9.3186,-9.5762,-9.6819,-9.3989,-9.1981,-9.0952,-8.7682,-8.1915,-7.7309,-7.4,-10.8228,-10.9079,-10.7323,-10.7236,-10.8556,-11.0982,-11.1971,-11.2043,-11.216,-11.19,-11.1264,-11.0655,-11.011,-11.0009,-11.1057,-11.1724,-11.2122,-11.2455,-11.2851,-11.3136,-11.3473,-11.3805,-11.4847,-11.5701,-11.7394,-11.8653,-11.7662,-11.6331,-11.5424,-11.3569,-11.2242,-11.0905,-11.0008,-10.8545,-10.6502,-10.5973,-10.4811,-10.4157,-10.3179,-10.2753,-10.2753,-10.2753,-10.2753,-10.2753,-10.2704,-10.2301,-10.152,-10.1276,-10.0519,-9.8791,-9.6419,-9.4647,-9.2734,-9.0581,-8.8111,-8.7446,-8.6408,-8.5608,-8.541,-8.5608,-8.7676,-9.3073,-9.3827,-9.6541,-9.9962,-10.1304,-9.9257,-9.7909,-9.5895,-9.551,-9.6425,-9.4663,-9.3773,-9.2989,-9.2309,-9.1791,-9.1002,-9.0719,-9.1099,-9.1708,-9.313,-9.4003,-9.4117,-9.4469,-9.5047,-9.5093,-9.4949,-9.4158,-9.3098,-9.2618,-9.2357,-9.1616,-9.0687,-9.0937,-9.1151,-9.1543,-9.2149,-9.2505,-9.3076,-9.386,-9.4609,-9.5055,-9.5372,-9.4218,-9.1515,-8.8927,-9.0709,-9.1375,-8.957,-8.7649,-8.5934,-8.3192,-7.7627,-7.3107,-7.0398,-10.5768,-10.8085,-10.4982,-10.5243,-10.8028,-10.9569,-11.0836,-11.1804,-10.9899,-10.9601,-10.9725,-10.7405,-10.6679,-10.6826,-10.7153,-10.7825,-10.85,-10.878,-10.8555,-10.8497,-10.8665,-10.934,-11.1124,-11.2244,-11.4093,-11.5674,-11.4286,-11.2532,-11.2124,-11.1478,-10.9614,-10.7572,-10.6691,-10.5837,-10.4277,-10.3423,-10.3594,-10.357,-10.3228,-10.2753,-10.2753,-10.2753,-10.2753,-10.2887,-10.3179,-10.2838,-10.2106,-10.138,-10.0283,-9.8362,-9.4967,-9.3069,-9.141,-8.8586,-8.6851,-8.6408,-8.557,-8.5128,-8.509,-8.5128,-8.7114,-9.0062,-9.1738,-9.3778,-9.6657,-9.7306,-9.7318,-9.587,-9.506,-9.3914,-9.4214,-9.2371,-9.1779,-9.1682,-9.0691,-8.9709,-9.0586,-9.1383,-9.2029,-9.2826,-9.3509,-9.4345,-9.4572,-9.499,-9.5417,-9.5576,-9.5213,-9.4344,-9.365,-9.3423,-9.3047,-9.2301,-9.1365,-9.1579,-9.1533,-9.1948,-9.2445,-9.2765,-9.3525,-9.4308,-9.5019,-9.5463,-9.3542,-9.0607,-8.7757,-8.5773,-8.4595,-8.4262,-8.3664,-8.4186,-8.1349,-7.84,-7.4723,-7.1105,-6.7995,-10.427,-10.4647,-10.322,-10.2835,-10.3438,-10.5747,-10.7997,-10.9414,-10.7513,-10.6521,-10.6464,-10.6298,-10.4227,-10.408,-10.5862,-10.7543,-10.743,-10.7316,-10.6745,-10.6745,-10.6745,-10.7202,-10.8043,-10.8923,-10.9914,-11.0758,-10.984,-10.9465,-10.8724,-10.7393,-10.6308,-10.5337,-10.4119,-10.3406,-10.3252,-10.2887,-10.2789,-10.2887,-10.274,-10.274,-10.274,-10.2838,-10.2753,-10.2899,-10.3154,-10.3214,-10.2808,-10.1174,-10.0038,-10.0366,-9.4527,-9.0623,-8.8702,-8.6847,-8.6248,-8.6248,-8.5448,-8.4967,-8.4929,-8.5166,-8.6717,-9.0979,-9.1862,-9.432,-9.7069,-9.755,-9.6685,-9.6246,-9.5134,-9.385,-9.1851,-9.0403,-8.9381,-8.8834,-8.9089,-8.9181,-9.032,-9.2143,-9.3282,-9.4269,-9.4724,-9.4838,-9.5028,-9.5104,-9.5711,-9.6023,-9.5332,-9.4642,-9.4313,-9.4081,-9.347,-9.2634,-9.2588,-9.2612,-9.1224,-9.1194,-9.1877,-9.2491,-9.3513,-9.4291,-9.523,-9.2271,-8.7994,-8.5758,-8.4056,-8.2998,-8.1601,-7.9759,-7.94,-8.0581,-7.877,-7.5385,-7.2148,-6.9119,-6.7122,-10.1349,-10.2851,-10.0625,-10.0572,-10.2305,-10.356,-10.5421,-10.6687,-10.442,-10.3464,-10.3445,-10.188,-10.0574,-9.9803,-10.1777,-10.3055,-10.2991,-10.3465,-10.3728,-10.378,-10.3138,-10.3963,-10.5165,-10.5018,-10.4258,-10.4222,-10.4785,-10.5139,-10.5044,-10.4014,-10.3509,-10.2933,-10.2405,-10.1959,-10.1276,-10.1129,-10.1374,-10.1422,-10.1715,-10.2057,-10.2203,-10.2545,-10.2753,-10.2899,-10.1745,-10.1454,-10.1608,-9.8969,-9.7196,-9.5037,-9.0359,-8.6731,-8.6656,-8.6088,-8.5608,-8.5608,-8.5128,-8.4929,-8.4929,-8.5166,-8.6075,-8.8535,-8.9394,-9.1399,-9.2894,-9.4067,-9.3827,-9.3145,-9.2381,-9.1617,-8.9556,-8.8655,-8.887,-8.846,-8.9333,-9.0396,-9.1269,-9.2294,-9.3509,-9.4724,-9.5408,-9.5332,-9.5218,-9.5104,-9.5417,-9.5633,-9.4938,-9.3868,-9.3664,-9.2956,-9.2707,-9.2587,-9.2836,-9.2296,-9.0637,-9.0392,-9.1035,-9.0799,-9.1282,-9.1706,-9.1367,-8.7129,-8.259,-7.99,-7.7357,-7.7316,-7.7177,-7.5202,-7.3847,-7.4663,-7.4202,-7.1769,-6.9554,-6.7738,-6.612,-9.8331,-10.0676,-9.7638,-9.8127,-10.0676,-10.1002,-10.2409,-10.4362,-10.1147,-10.0298,-10.0657,-9.811,-9.6871,-9.6805,-9.816,-9.8517,-9.935,-9.9723,-9.99,-9.9829,-9.8828,-10.0365,-10.1658,-10.1167,-9.988,-10.0,-10.0955,-10.1701,-10.1972,-10.2481,-10.2162,-10.2062,-10.2175,-10.1227,-10.0739,-10.0934,-10.0397,-10.0544,-10.1276,-10.1813,-10.2008,-10.2545,-10.2753,-10.2619,-10.0906,-9.9745,-9.9016,-9.5957,-9.2743,-9.0003,-8.6573,-8.5022,-8.5473,-8.5295,-8.509,-8.509,-8.4929,-8.4929,-8.4929,-8.4967,-8.5271,-8.6241,-8.7128,-8.7625,-8.846,-8.9648,-8.9632,-8.8991,-8.8764,-8.9128,-8.8642,-8.916,-8.9523,-8.9675,-9.0396,-9.1535,-9.2712,-9.3092,-9.3889,-9.4876,-9.537,-9.5294,-9.5294,-9.4799,-9.427,-9.505,-9.4201,-9.2949,-9.2268,-9.1563,-9.102,-9.0654,-9.0669,-9.0123,-8.8951,-8.8665,-8.7928,-8.6758,-8.6891,-8.6988,-8.4846,-8.1287,-7.8138,-7.4994,-7.2131,-7.1367,-7.1835,-7.0282,-7.0762,-6.9686,-6.902,-6.902,-6.8584,-6.6737,-6.5115,-9.5815,-9.607,-9.4665,-9.4869,-9.6248,-9.6236,-9.8288,-10.0202,-9.7759,-9.7397,-9.842,-9.6773,-9.5671,-9.5621,-9.657,-9.7704,-9.8499,-9.812,-9.8535,-9.8723,-9.8678,-9.8409,-9.9369,-9.9007,-9.8858,-9.8834,-10.0703,-10.1374,-10.1666,-10.1944,-10.2539,-10.2866,-10.2629,-10.2496,-10.1813,-10.2106,-10.2447,-10.2106,-10.2022,-10.2168,-10.2265,-10.2375,-10.2302,-10.2033,-10.1177,-10.0246,-9.7151,-9.3274,-8.8748,-8.4865,-8.4788,-8.4469,-8.4145,-8.4785,-8.4891,-8.4929,-8.4929,-8.4929,-8.4929,-8.5005,-8.5119,-8.5309,-8.603,-8.6789,-8.7701,-8.8574,-8.9067,-8.9067,-8.8802,-8.9257,-8.9751,-9.108,-9.1421,-9.108,-9.1117,-9.2408,-9.4003,-9.4724,-9.5066,-9.5977,-9.5909,-9.6129,-9.5187,-9.3355,-9.1481,-9.1106,-8.88,-8.8044,-8.8108,-8.7309,-8.7081,-8.7533,-8.7566,-8.7505,-8.6885,-8.6266,-8.4108,-8.1728,-8.1211,-8.1196,-7.9062,-7.6593,-7.3615,-7.1971,-7.0973,-6.978,-6.8743,-6.8613,-6.8893,-6.8431,-6.8431,-6.8226,-6.7995,-6.6145,-6.4908,-9.557,-9.435,-9.3893,-9.3944,-9.435,-9.4401,-9.5585,-9.7042,-9.6032,-9.6058,-9.6579,-9.5828,-9.4896,-9.4094,-9.5055,-9.563,-9.5779,-9.6144,-9.6684,-9.7289,-9.7389,-9.7246,-9.722,-9.7364,-9.7637,-9.7915,-9.8331,-9.9543,-10.0807,-10.0834,-10.1458,-10.2209,-10.2092,-10.1618,-10.1325,-10.1032,-10.0983,-10.1047,-10.1221,-10.1246,-10.1343,-10.1426,-10.0858,-9.918,-9.8769,-9.647,-9.207,-8.8341,-8.5093,-8.3087,-8.2546,-8.304,-8.36,-8.4094,-8.4436,-8.4929,-8.4929,-8.4929,-8.5043,-8.5461,-8.5461,-8.5309,-8.6296,-8.7055,-8.7587,-8.8308,-8.9371,-8.9979,-9.0168,-9.0624,-9.1345,-9.2029,-9.2256,-9.2181,-9.2826,-9.4041,-9.5484,-9.5294,-9.5446,-9.5213,-9.3758,-9.1593,-9.1013,-8.7337,-8.651,-8.6253,-8.3631,-8.3431,-8.3746,-8.2656,-8.2094,-8.2862,-8.3193,-8.2073,-8.1114,-8.0106,-7.8092,-7.5098,-7.4518,-7.5702,-7.4043,-7.1835,-7.0289,-7.003,-6.9285,-6.8872,-6.8665,-6.8483,-6.8431,-6.8431,-6.8431,-6.8226,-6.7173,-6.5939,-6.4908,-9.5048,-9.3463,-9.3412,-9.3298,-9.3184,-9.3184,-9.3804,-9.4628,-9.4679,-9.4628,-9.4679,-9.4679,-9.3828,-9.2599,-9.3402,-9.3722,-9.382,-9.4282,-9.4818,-9.5346,-9.549,-9.5398,-9.5494,-9.5809,-9.6352,-9.702,-9.6967,-9.7624,-9.985,-9.9484,-10.0007,-10.1227,-10.1374,-10.1081,-10.0641,-10.0788,-10.0495,-10.0379,-10.0532,-10.0653,-10.0398,-9.9943,-9.8264,-9.5873,-9.4904,-9.182,-8.7075,-8.4941,-8.3176,-8.121,-8.1095,-8.1854,-8.2879,-8.3524,-8.4018,-8.4511,-8.4777,-8.4929,-8.5119,-8.5764,-8.5954,-8.5537,-8.641,-8.7397,-8.7777,-8.846,-8.9523,-9.0852,-9.1497,-9.1877,-9.256,-9.2826,-9.2978,-9.3206,-9.4079,-9.5142,-9.5863,-9.5379,-9.4505,-9.409,-9.0916,-8.839,-8.633,-8.3363,-8.1045,-8.1365,-7.9555,-7.7863,-7.859,-7.817,-7.6795,-7.7791,-7.87,-7.6932,-7.5471,-7.444,-7.2689,-7.0113,-7.022,-7.2027,-7.0585,-6.936,-6.8844,-6.8561,-6.8691,-6.8717,-6.8535,-6.8431,-6.8431,-6.8431,-6.8226,-6.7995,-6.6968,-6.5733,-6.4908,-9.345,-9.2842,-9.2728,-9.2449,-9.199,-9.199,-9.2435,-9.2879,-9.2993,-9.3044,-9.2993,-9.2979,-9.2485,-9.1925,-9.1959,-9.2507,-9.3187,-9.2965,-9.3202,-9.3526,-9.302,-9.2829,-9.3564,-9.4443,-9.5494,-9.6276,-9.6472,-9.703,-9.8378,-9.8299,-9.9177,-10.1081,-10.1325,-10.1666,-10.1671,-10.2327,-10.1598,-10.0562,-10.0936,-10.0444,-9.9814,-9.767,-9.5504,-9.4317,-9.178,-8.8829,-8.5626,-8.4342,-8.2839,-8.0674,-8.0829,-8.1246,-8.1702,-8.2917,-8.3676,-8.3904,-8.4549,-8.4853,-8.5119,-8.5802,-8.6182,-8.5992,-8.6334,-8.6979,-8.8194,-8.8574,-8.9371,-9.1155,-9.1839,-9.2636,-9.3395,-9.3547,-9.3927,-9.461,-9.48,-9.5294,-9.5871,-9.4655,-9.284,-9.083,-8.8815,-8.6835,-8.3018,-7.9055,-7.8519,-7.8808,-7.4697,-7.3427,-7.3595,-7.3595,-7.2203,-7.3162,-7.4896,-7.3887,-7.3483,-7.2278,-7.1551,-6.9607,-6.9224,-6.9838,-6.8893,-6.874,-6.8457,-6.8457,-6.8483,-6.8483,-6.8431,-6.8431,-6.8431,-6.8226,-6.779,-6.7584,-6.6762,-6.5527,-6.4495,-9.2986,-9.2155,-9.2105,-9.199,-9.176,-9.176,-9.1875,-9.2105,-9.2105,-9.2105,-9.2105,-9.2105,-9.176,-9.1398,-9.1282,-9.1297,-9.1242,-9.1057,-9.1185,-9.1479,-9.1368,-9.1807,-9.2246,-9.3271,-9.4345,-9.5321,-9.6053,-9.6981,-9.7957,-9.8055,-9.9128,-10.0934,-10.1276,-10.0653,-9.9311,-9.9316,-9.7714,-9.5452,-9.4893,-9.4473,-9.3956,-9.2685,-9.05,-8.7978,-8.6525,-8.4411,-8.1579,-8.1031,-8.0572,-8.037,-8.0297,-8.0753,-8.1284,-8.2309,-8.3183,-8.3714,-8.4436,-8.4929,-8.5043,-8.5802,-8.6106,-8.5688,-8.5992,-8.6827,-8.7701,-8.8004,-8.9295,-9.1345,-9.1877,-9.2446,-9.3965,-9.4079,-9.4117,-9.4876,-9.4952,-9.5104,-9.537,-9.4693,-9.2731,-8.8795,-8.5803,-8.2051,-7.8207,-7.4012,-7.2213,-7.2543,-7.036,-6.9607,-6.9607,-6.9429,-6.9634,-7.0016,-7.1213,-7.139,-7.1009,-7.0805,-7.022,-6.9224,-6.8431,-6.8431,-6.8431,-6.8431,-6.8431,-6.8431,-6.8431,-6.8431,-6.8405,-6.8405,-6.8021,-6.7584,-6.7173,-6.6557,-6.5321,-6.4495,-6.4107,-9.2391,-9.1579,-9.1579,-9.1464,-9.1183,-9.1232,-9.1348,-9.1464,-9.1579,-9.1464,-9.1464,-9.1464,-9.1232,-9.0751,-9.0585,-9.0401,-9.0001,-9.005,-9.005,-9.0197,-9.0782,-9.1124,-9.1319,-9.2149,-9.3076,-9.3906,-9.5224,-9.6444,-9.7322,-9.7469,-9.7901,-9.9121,-9.9243,-9.8129,-9.5917,-9.573,-9.4288,-9.1317,-9.0603,-9.0216,-8.9929,-8.8673,-8.6349,-8.3235,-8.2192,-8.107,-7.8889,-7.8779,-7.9196,-7.9994,-8.0032,-8.0297,-8.0943,-8.1892,-8.2727,-8.3373,-8.4322,-8.4929,-8.5043,-8.5726,-8.603,-8.565,-8.5916,-8.6751,-8.7701,-8.7966,-8.9219,-9.1459,-9.1915,-9.2332,-9.4003,-9.4041,-9.3367,-9.3184,-9.2935,-9.2972,-9.4024,-9.3999,-9.1441,-8.6598,-8.2953,-7.8615,-7.3557,-7.0738,-6.8862,-6.86,-6.858,-6.8405,-6.861,-6.861,-6.8431,-6.8431,-6.8431,-6.902,-6.9403,-6.9607,-6.9224,-6.8815,-6.8431,-6.8431,-6.8431,-6.8431,-6.8431,-6.8431,-6.8431,-6.8431,-6.8405,-6.7995,-6.7584,-6.6968,-6.6426,-6.5189,-6.39,-6.3255,-6.3072,-9.1398,-9.0934,-9.0983,-9.0468,-9.0001,-9.0118,-9.0401,-9.0818,-9.0983,-9.0983,-9.0983,-9.0983,-9.0634,-9.0118,-9.0167,-9.005,-9.0031,-8.9698,-8.9581,-8.9796,-8.9796,-8.9796,-8.9962,-9.0935,-9.1758,-9.2198,-9.3906,-9.537,-9.6116,-9.6233,-9.5747,-9.5257,-9.5193,-9.4272,-9.2455,-9.2313,-9.1602,-8.9886,-8.9353,-8.9353,-8.8962,-8.6091,-8.3749,-8.191,-8.017,-7.9114,-7.8703,-7.8779,-7.9234,-7.9918,-8.0032,-8.0032,-8.0335,-8.1626,-8.2499,-8.2803,-8.4018,-8.4853,-8.5043,-8.5688,-8.603,-8.603,-8.6182,-8.6827,-8.8118,-8.8536,-8.9295,-9.1042,-9.1839,-9.2537,-9.3118,-9.256,-9.1321,-8.9562,-8.8647,-8.9813,-9.2067,-9.2503,-8.9321,-8.339,-8.1114,-7.6801,-7.1172,-6.9119,-6.8915,-6.848,-6.8379,-6.8431,-6.8431,-6.8431,-6.8431,-6.8431,-6.8431,-6.8431,-6.8431,-6.8431,-6.8431,-6.8431,-6.8431,-6.8431,-6.8431,-6.8431,-6.8431,-6.8431,-6.8431,-6.779,-6.779,-6.7378,-6.694,-6.6164,-6.5519,-6.474,-6.391,-6.3079,-6.2592,-9.0235,-8.965,-8.918,-8.8826,-8.8708,-8.918,-8.9415,-8.965,-9.0118,-9.0352,-9.0235,-9.0352,-9.0235,-9.0001,-9.005,-9.0392,-9.0741,-8.8474,-8.7758,-8.8328,-8.7711,-8.7379,-8.7712,-8.947,-9.127,-9.2468,-9.3418,-9.3602,-9.3628,-9.4227,-9.3345,-9.146,-9.2043,-9.0942,-8.8336,-8.8009,-8.6302,-8.3879,-8.3514,-8.3325,-8.3067,-8.2061,-8.092,-7.996,-7.9756,-7.912,-7.8019,-7.9044,-7.9766,-7.9994,-8.0032,-8.0032,-8.0183,-8.1588,-8.2461,-8.2575,-8.3524,-8.436,-8.4853,-8.4701,-8.4815,-8.5309,-8.5461,-8.6106,-8.7701,-8.7928,-8.9067,-9.051,-9.1117,-9.0472,-8.937,-8.6224,-8.3483,-8.2851,-8.4997,-8.7215,-8.8316,-9.0068,-8.9654,-8.7746,-8.5121,-8.035,-7.4496,-7.2599,-7.0861,-6.8584,-6.8431,-6.8431,-6.8431,-6.8431,-6.8431,-6.8431,-6.8431,-6.8431,-6.8431,-6.8431,-6.8431,-6.8431,-6.8431,-6.8431,-6.8431,-6.8431,-6.8431,-6.8226,-6.7995,-6.7379,-6.7095,-6.6497,-6.5817,-6.5083,-6.4715,-6.4297,-6.3575,-6.2924,-6.2503,-8.9297,-8.859,-8.8234,-8.7997,-8.8116,-8.8471,-8.8826,-8.9062,-8.9415,-8.9816,-8.9933,-9.0001,-9.005,-9.0001,-8.9767,-8.94,-8.8568,-8.6464,-8.5254,-8.4859,-8.4553,-8.4539,-8.4951,-8.6335,-8.8102,-8.9432,-9.0028,-9.0443,-9.1087,-9.1606,-9.0741,-8.9021,-8.9061,-8.756,-8.4713,-8.4176,-8.2879,-8.0296,-8.0032,-8.0032,-8.0334,-8.0032,-7.9614,-7.8855,-7.931,-7.9082,-7.8019,-7.931,-8.0032,-8.0032,-8.0032,-8.0032,-8.0145,-8.1019,-8.1816,-8.2461,-8.3259,-8.4094,-8.4701,-8.4208,-8.4094,-8.4532,-8.4485,-8.4715,-8.454,-8.4815,-8.5831,-8.7282,-8.6876,-8.5583,-8.3546,-7.9893,-7.7083,-7.7527,-7.9589,-8.2064,-8.5275,-8.73,-8.942,-9.0786,-8.83,-8.2822,-7.6556,-7.4039,-7.2349,-6.9297,-6.8431,-6.8431,-6.8431,-6.8431,-6.8431,-6.8431,-6.8431,-6.8431,-6.8431,-6.8431,-6.8431,-6.8431,-6.8431,-6.8431,-6.8431,-6.8431,-6.7995,-6.779,-6.7379,-6.6762,-6.622,-6.5875,-6.5746,-6.5031,-6.4221,-6.3751,-6.2883,-6.2718,-6.2459,-8.859,-8.8116,-8.7997,-8.7997,-8.7997,-8.7997,-8.8353,-8.8944,-8.9062,-8.9415,-9.0001,-9.005,-8.9884,-8.9767,-8.8944,-8.7116,-8.4417,-8.3716,-8.2166,-8.061,-8.0798,-8.1443,-8.229,-8.229,-8.2884,-8.4464,-8.548,-8.6929,-8.9084,-8.9082,-8.8143,-8.6257,-8.6221,-8.4585,-8.1795,-8.15,-8.0899,-8.0183,-8.0032,-8.0032,-8.0032,-8.0032,-7.9614,-7.8741,-7.8779,-7.8741,-7.8627,-7.9462,-7.9956,-7.9956,-7.9994,-8.0032,-8.0032,-8.007,-8.0829,-8.2234,-8.3183,-8.3859,-8.4541,-8.3889,-8.3617,-8.3728,-8.3307,-8.2266,-8.0227,-8.0203,-8.1276,-8.2779,-8.058,-7.861,-7.7936,-7.4771,-7.2657,-7.3187,-7.3071,-7.7016,-8.4235,-8.4644,-8.6996,-8.9958,-8.836,-8.3402,-7.6273,-7.4211,-7.2057,-6.9528,-6.8483,-6.8509,-6.8535,-6.8509,-6.8483,-6.8457,-6.8431,-6.8431,-6.8431,-6.8431,-6.8431,-6.8431,-6.8431,-6.8431,-6.8431,-6.8226,-6.7584,-6.7173,-6.6225,-6.5633,-6.5395,-6.5046,-6.4788,-6.4522,-6.3635,-6.34,-6.2461,-6.2508,-6.2367,-8.7997,-8.7402,-8.7402,-8.7043,-8.6684,-8.7163,-8.7759,-8.8353,-8.8826,-8.9415,-8.9884,-9.005,-8.9532,-8.8353,-8.6303,-8.5347,-8.4626,-8.0354,-7.8466,-7.9175,-7.858,-7.8831,-7.981,-8.2017,-8.3782,-8.4656,-8.5398,-8.6591,-8.7927,-8.6951,-8.4639,-8.2134,-8.2267,-8.1977,-8.0597,-8.0485,-8.0334,-8.0032,-8.0032,-8.0032,-8.0032,-8.0032,-7.9348,-7.8095,-7.8437,-7.8171,-7.7032,-7.8361,-7.912,-7.912,-7.969,-8.0032,-8.0032,-8.0032,-8.0487,-8.1512,-8.1762,-8.2184,-8.3121,-8.2291,-8.2057,-8.2511,-8.0572,-7.922,-7.891,-7.7301,-7.783,-8.0691,-7.652,-7.4205,-7.4946,-7.0772,-6.7512,-6.7129,-6.9869,-7.3585,-7.9508,-8.3049,-8.4991,-8.6814,-8.6563,-8.3987,-7.8826,-7.5317,-7.2515,-6.9592,-6.9002,-6.9028,-6.9028,-6.9002,-6.8872,-6.8483,-6.8431,-6.8431,-6.8431,-6.8431,-6.8431,-6.8431,-6.8431,-6.8431,-6.8431,-6.7584,-6.6762,-6.5944,-6.4645,-6.3801,-6.3609,-6.2871,-6.2189,-6.2503,-6.2718,-6.2626,-6.2203,-6.2181,-6.2064,-8.7282,-8.6684,-8.6684,-8.6444,-8.6203,-8.6564,-8.7043,-8.764,-8.8116,-8.859,-8.9062,-8.802,-8.6949,-8.5822,-8.3182,-8.1477,-8.0751,-7.7068,-7.5453,-7.5743,-7.5517,-7.601,-7.7041,-7.9094,-8.05,-8.1404,-8.1466,-8.2028,-8.2683,-8.2282,-8.1036,-7.9606,-8.0301,-8.025,-7.9538,-7.988,-8.0032,-8.0032,-8.0032,-8.0032,-7.9994,-7.9728,-7.8893,-7.7754,-7.8019,-7.7602,-7.6539,-7.7867,-7.8779,-7.8817,-7.8935,-7.92,-7.9502,-7.8936,-7.9085,-8.0095,-8.0489,-8.1168,-8.2275,-8.1489,-8.1218,-8.1862,-8.0421,-7.8962,-7.8164,-7.6985,-7.7366,-7.8973,-7.4019,-7.1477,-7.3944,-6.8955,-6.4801,-6.4844,-6.6846,-7.0318,-7.5165,-7.8161,-8.0711,-8.2954,-8.3663,-8.2684,-7.9609,-7.6198,-7.2849,-7.0009,-6.9262,-6.9236,-6.9262,-6.947,-6.9236,-6.8665,-6.8613,-6.8743,-6.8769,-6.8613,-6.8226,-6.7995,-6.7995,-6.779,-6.7328,-6.643,-6.6023,-6.4949,-6.3663,-6.2498,-6.2197,-6.1416,-6.1171,-6.1757,-6.2203,-6.2438,-6.1922,-6.0419,-5.8112,-8.6203,-8.5842,-8.5962,-8.6083,-8.6083,-8.6083,-8.6444,-8.7043,-8.7163,-8.7282,-8.659,-8.4568,-8.306,-8.22,-7.9843,-7.7071,-7.4505,-7.3818,-7.2978,-7.1856,-7.2173,-7.3345,-7.4764,-7.4979,-7.5217,-7.5849,-7.5456,-7.5846,-7.6674,-7.7186,-7.7736,-7.8609,-7.9318,-7.9335,-7.8741,-7.9462,-7.988,-7.9918,-7.9994,-8.0032,-7.9994,-7.9272,-7.8475,-7.7564,-7.7564,-7.7108,-7.5977,-7.7531,-7.8216,-7.7919,-7.7435,-7.7734,-7.7839,-7.7092,-7.7085,-7.852,-7.9211,-8.0313,-8.1672,-8.1218,-8.0575,-8.0524,-8.0894,-7.9842,-7.632,-7.7947,-7.9416,-7.7984,-7.2755,-7.0678,-7.336,-6.8236,-6.4494,-6.4795,-6.512,-6.6886,-7.1491,-7.2672,-7.4649,-7.9266,-7.9953,-7.9863,-7.7991,-7.5356,-7.2571,-6.9442,-6.9262,-6.9444,-6.947,-6.9833,-6.9807,-6.895,-6.9054,-6.9392,-6.9288,-6.8872,-6.8021,-6.7095,-6.7661,-6.7097,-6.5919,-6.5438,-6.5088,-6.341,-6.1934,-6.1266,-6.0802,-6.0537,-6.0778,-6.0305,-6.0281,-6.1089,-6.0074,-5.6908,-5.2474,-8.3195,-8.3318,-8.5191,-8.6083,-8.6083,-8.6083,-8.6444,-8.7043,-8.7043,-8.4538,-8.0635,-7.9761,-7.9386,-7.9009,-7.6349,-7.4851,-7.3818,-7.1905,-7.1474,-7.2135,-7.2438,-7.307,-7.397,-7.4602,-7.4671,-7.419,-7.4677,-7.5262,-7.6006,-7.6142,-7.684,-7.7693,-7.8461,-7.8585,-7.7867,-7.8627,-7.9044,-7.9082,-7.969,-8.0032,-8.0032,-7.9842,-7.9044,-7.7678,-7.7526,-7.6552,-7.4618,-7.5407,-7.4434,-7.1748,-7.4718,-7.5596,-7.3396,-7.5723,-7.7453,-7.7705,-7.7975,-7.8319,-7.8719,-7.8991,-7.8311,-7.6219,-7.6976,-7.6187,-7.3257,-7.8464,-8.1528,-7.8722,-7.4708,-7.175,-7.018,-6.6533,-6.4328,-6.4873,-6.4951,-6.686,-7.1074,-7.2273,-7.3178,-7.4805,-7.5322,-7.4412,-7.1726,-7.0344,-6.966,-6.8897,-6.9392,-6.9885,-6.9989,-7.0405,-7.0275,-6.9626,-6.9937,-7.0327,-6.9963,-6.8819,-6.7862,-6.7604,-6.6628,-6.5558,-6.4775,-6.3785,-6.2905,-6.2064,-6.1004,-6.0235,-6.0115,-6.0068,-5.8677,-5.6437,-5.6061,-5.4805,-5.2207,-5.0006,-4.7643,-8.0392,-8.0065,-8.1741,-8.2413,-8.2457,-8.2413,-8.2659,-8.3072,-8.385,-8.2202,-7.923,-7.7524,-7.6585,-7.6027,-7.3108,-7.1706,-7.1698,-7.014,-7.064,-7.2455,-7.2669,-7.3034,-7.3691,-7.4147,-7.3865,-7.3237,-7.3222,-7.3589,-7.4224,-7.2984,-7.2752,-7.3598,-7.4429,-7.5868,-7.7455,-7.8741,-7.9348,-7.9348,-7.608,-7.4359,-7.415,-7.5235,-7.4949,-7.3406,-7.4027,-7.3437,-7.1428,-7.1988,-7.1411,-6.9298,-7.1021,-7.1349,-6.9522,-7.1101,-7.1821,-7.1515,-7.3394,-7.4681,-7.4646,-7.679,-7.7619,-7.6597,-7.7676,-7.6262,-7.1026,-7.5264,-7.8171,-7.8047,-7.3523,-7.0237,-6.8693,-6.5344,-6.3653,-6.4458,-6.4561,-6.5739,-6.8382,-6.9099,-6.9564,-7.0166,-7.0323,-6.9822,-6.7803,-6.786,-6.8041,-6.8119,-6.9002,-6.9704,-6.9729,-7.0405,-7.0716,-7.0223,-7.0535,-7.0556,-6.99,-6.8576,-6.7258,-6.6139,-6.5263,-6.4235,-6.2944,-6.2542,-6.1646,-6.0932,-5.9881,-5.9317,-5.9458,-5.9317,-5.7504,-5.4449,-5.3438,-5.1803,-4.8297,-4.7062,-4.4532,-7.7534,-7.6358,-7.7578,-7.8001,-7.8128,-7.8128,-7.8255,-7.8382,-7.9036,-7.9442,-7.931,-7.6153,-7.4375,-7.3671,-7.052,-6.9083,-6.906,-6.917,-7.0255,-7.2285,-7.2537,-7.3032,-7.3552,-7.3476,-7.2845,-7.174,-7.0948,-7.0677,-7.0705,-6.8357,-6.7388,-6.8233,-6.9046,-7.1411,-7.5687,-7.7359,-7.8105,-7.7733,-7.0832,-6.6988,-6.6654,-6.8614,-6.9019,-6.7873,-6.9113,-6.9083,-6.7563,-6.8264,-6.8421,-6.7661,-6.6924,-6.6239,-6.5687,-6.5391,-6.4729,-6.4244,-6.7792,-6.996,-7.0317,-7.3694,-7.6312,-7.6994,-7.8537,-7.6705,-7.0714,-7.1176,-7.3003,-7.5229,-7.0705,-6.7259,-6.7119,-6.4405,-6.2899,-6.3808,-6.4042,-6.4276,-6.4963,-6.5536,-6.615,-6.6333,-6.6301,-6.6613,-6.6821,-6.7158,-6.747,-6.7704,-6.8509,-6.9184,-6.9418,-7.0171,-7.0794,-7.095,-7.0815,-7.044,-6.9485,-6.8224,-6.6597,-6.4563,-6.4058,-6.3051,-6.1478,-6.0969,-6.0598,-5.961,-5.9059,-5.8824,-5.8801,-5.8383,-5.5989,-5.2699,-5.0924,-4.9285,-4.5084,-4.426,-4.2254,-7.3437,-7.3925,-7.6396,-7.7801,-7.8334,-7.8334,-7.8596,-7.8942,-7.4826,0.0,0.0,-7.256,-7.1938,-7.1801,-7.0493,-6.9575,-6.9096,-6.9622,-7.0238,-7.081,-7.2136,-7.2752,-7.2854,-7.277,-7.1017,-6.7942,-6.7047,-6.5825,-6.4149,-6.3627,-6.3708,-6.4342,-6.4542,-6.564,-6.7335,-6.8262,-6.7951,-6.6851,-6.53,-6.4511,-6.4561,-6.4856,-6.5015,-6.4619,-6.5936,-6.5811,-6.3652,-6.4883,-6.3726,-5.9891,-6.255,-6.2921,-6.0339,-6.2533,-6.3809,-6.3632,-6.3952,-6.4574,-6.5572,-6.7289,-6.8286,-6.8318,-7.0198,-7.0839,-6.9457,-7.0031,-6.9704,-6.78,-6.7054,-6.5551,-6.3102,-6.2466,-6.2692,-6.3341,-6.3834,-6.412,-6.4276,-6.4769,-6.5341,-6.5782,-6.5938,-6.6172,-6.6587,-6.6769,-6.7029,-6.7522,-6.8145,-6.8717,-6.9236,-6.9833,-7.0405,-7.066,-7.0458,-7.0121,-6.9564,-6.7691,-6.5591,-6.4787,-6.2984,-6.1526,-6.0646,-6.0081,-5.9563,-5.9012,-5.8824,-5.8533,-5.8359,-5.5789,-5.2306,-4.8379,-4.4995,-4.1212,-3.7051,-3.596,-3.5505,-7.0692,-7.0141,-7.2526,-7.3567,0.0,-7.4034,-7.316,-7.1301,-6.8794,-6.8799,-7.0853,-7.1746,-7.1597,-7.0724,-7.0079,-6.948,-6.9063,-6.946,-6.9259,-6.8623,-6.9406,-6.9691,-6.9687,-6.9176,-6.7793,-6.5634,-6.4863,-6.3158,-6.0744,-5.9427,-5.9134,-5.9847,-6.019,-6.1071,-6.2446,-6.3967,-6.2857,-5.8928,-5.8748,-5.842,-5.7911,-5.8753,-5.9143,-5.9122,-6.0501,0.0,0.0,0.0,0.0,0.0,0.0,0.0,0.0,0.0,0.0,-5.7,-5.8032,-5.8802,-5.9467,-6.195,-6.3709,-6.4275,-6.5733,-6.5066,-6.1155,-6.2634,-6.3801,-6.4426,-6.332,-6.2304,-6.1186,-6.1367,-6.1887,-6.2744,-6.3341,-6.3808,-6.4094,-6.4613,-6.5055,-6.5341,-6.5418,-6.5496,-6.5782,-6.6068,-6.6405,-6.6717,-6.7678,-6.8613,-6.9158,-6.9105,-6.9047,-6.9611,-6.95,-6.8902,-6.8148,-6.6174,-6.498,-6.3938,-6.229,-6.0913,-6.035,-5.9833,-5.9341,-5.865,-5.6908,-5.55,-5.5126,-5.205,-4.7833,-4.3996,-4.1317,-3.8657,-3.4295,-3.3214,-3.3253,-6.7344,-6.5512,-6.7818,-6.8326,-6.7591,-6.8089,-6.6585,-6.3674,-6.365,-6.5399,-6.8201,-6.9762,-6.9865,-6.8588,-6.7987,-6.7491,-6.7483,-6.7622,-6.6891,-6.5553,-6.5833,-6.5857,-6.583,-6.5057,-6.4169,-6.2969,-6.213,-6.0187,-5.7151,-5.5348,-5.4685,-5.518,-5.5938,-5.6899,-5.8093,0.0,0.0,0.0,-5.2717,-5.2124,-5.118,-5.2552,-5.3335,-5.365,-5.4832,0.0,-5.4244,-5.5209,-5.5263,-5.4167,-5.4471,0.0,0.0,0.0,0.0,0.0,0.0,0.0,0.0,0.0,0.0,0.0,-6.049,-5.8595,-5.3017,-5.5024,-5.8395,-6.1641,-5.9993,-5.9056,-5.9965,-6.025,-6.0796,-6.1809,-6.2536,-6.3211,-6.386,-6.4328,-6.4665,-6.4769,-6.4769,-6.4795,-6.4847,-6.5315,-6.5782,-6.6146,-6.7236,-6.8301,-6.8563,-6.8066,-6.7719,-6.7938,-6.8167,-6.7422,-6.5675,-6.4883,-6.3676,-6.2739,-6.1476,-6.0725,-5.9983,-5.9114,-5.8098,-5.7417,-5.3893,-5.1067,-5.1087,-4.773,-4.3868,-4.0412,-3.909,-3.7389,-3.3806,-3.3003,-3.3161,-6.1416,-6.0177,-6.306,-6.3609,-6.2473,-6.2117,-6.2433,-6.28,-6.2441,-6.2985,-6.3891,-6.3031,-6.2594,-6.2336,-6.1969,-6.1496,-6.0941,-6.1654,-6.1475,-6.0742,-6.2044,-6.2561,-6.255,-6.1965,-6.0257,-5.7581,-5.6366,-5.414,-5.1375,-5.0917,-5.0846,-5.0748,-5.1314,-5.1905,-5.2339,-5.13,-5.0471,-5.0083,-4.9116,-4.8541,-4.8385,-4.8594,-4.9237,-5.0468,-5.1421,-5.1903,-5.2261,-5.3125,-5.3153,-5.2279,-5.2242,-5.1907,-5.1018,-4.9001,-4.7638,0.0,-4.5349,0.0,0.0,0.0,0.0,0.0,0.0,0.0,0.0,-5.3668,-5.5621,-5.6531,-5.7241,-5.7576,-5.7731,-5.864,-5.9471,-6.0121,-6.1133,-6.2198,-6.34,-6.3445,-6.3678,-6.4146,-6.4198,-6.4198,-6.425,-6.4717,-6.5496,-6.6405,-6.6847,-6.6962,-6.6892,-6.6974,-6.671,-6.7144,-6.6685,-6.5783,-6.4176,-6.2539,-6.1588,-6.1423,-6.0544,-6.0185,-5.9515,-5.6478,-5.383,-5.2785,-4.9651,-4.6834,-4.6652,-4.3278,-4.0363,-3.9312,-3.6657,-3.4227,-3.3008,-3.2976,-3.3438,-5.9198,-5.8514,-6.0936,-5.9581,-5.5852,-5.5142,-5.5867,-5.7302,-5.732,-5.8404,-6.0252,-5.9132,-5.9052,-6.0085,-6.0526,-6.0471,-5.9946,-6.0934,-6.0009,-5.7763,-5.8479,-5.8777,-5.8718,-5.7911,-5.6845,-5.5326,-5.4425,-5.2138,-4.9035,-4.8865,-4.904,-4.933,-4.9446,-4.9508,-4.9395,-4.8996,-4.9202,-5.0044,-4.9265,-4.8824,-4.8824,-4.8538,-4.8944,-5.0249,-5.0573,-5.0695,-5.0615,-4.9538,-4.8513,-4.7609,-4.6057,-4.4932,-4.4524,-4.3098,-4.2162,0.0,0.0,0.0,0.0,0.0,0.0,0.0,0.0,0.0,0.0,0.0,-5.1625,-5.1859,-5.3719,-5.4601,-5.4293,-5.5576,-5.6482,-5.6671,-5.7562,-5.8398,-5.9086,-6.06,-6.1342,-6.073,-6.2488,-6.3565,-6.3517,-6.4226,-6.5393,-6.6561,-6.5834,-6.5312,-6.5115,-6.4662,-6.4533,-6.4557,-6.3983,-6.3335,-6.2681,-6.177,-6.0936,-6.0451,-5.8546,-5.6585,-5.5898,-5.2347,-4.9264,-4.8458,-4.4922,-4.2075,-4.1672,-3.8393,-3.5657,-3.5155,-3.394,-3.2818,-3.2607,-3.2766,-3.3029,-5.6944,-5.5777,-5.5974,-5.3615,-4.9655,-4.9059,-5.0083,-5.207,-5.201,-5.3318,-5.5158,-5.4403,-5.4398,-5.5088,-5.5782,-5.6285,-5.6753,-5.7587,-5.7006,-5.5031,-5.5058,-5.4947,-5.4807,-5.4061,-5.3598,-5.2993,-5.209,-5.0298,-4.7602,-4.7343,-4.7498,-4.8015,-4.7782,-4.7498,-4.6929,-4.746,-4.8251,-4.9388,-4.9402,-4.9247,-4.9073,-4.82,-4.8082,-4.8967,-4.819,-4.7765,-4.7317,-4.5306,-4.3867,-4.296,-4.0746,-3.94,-3.9139,-3.7942,0.0,0.0,0.0,0.0,0.0,0.0,0.0,0.0,0.0,-3.9566,-4.0874,0.0,-4.7118,0.0,-4.9968,-5.1295,-5.0834,-5.2356,0.0,0.0,-5.3622,-5.409,-5.4534,-5.6571,-5.7697,-5.7006,-5.9424,-6.1384,-6.1718,-6.3081,-6.4392,-6.5128,-6.4033,-6.294,-6.2214,-6.1516,-6.0991,-6.049,-5.9839,-5.9457,-5.9546,-5.9724,-5.9128,-5.8494,-5.4833,-5.209,-5.1459,-4.7802,-4.4801,-4.396,-4.0626,-3.7762,-3.7348,-3.4699,-3.2504,-3.2159,-3.2291,-3.2449,-3.2449,-3.2515,-3.266,-5.2776,-4.9792,-4.4757,-4.3574,-4.4954,-4.498,-4.6538,-4.9005,-4.8486,-4.7771,-4.7111,-4.7601,-4.6097,-4.3171,-4.2848,0.0,-4.7433,-4.734,-4.8996,-5.1752,-5.1752,-5.149,-5.0966,-5.0913,-5.031,-4.9236,-4.7937,-4.7078,-4.6663,-4.5725,-4.5497,-4.6004,-4.5128,-4.4573,-4.4446,-4.5129,-4.5544,-4.6073,-4.7861,-4.8531,-4.7798,-4.593,-4.4763,-4.4556,-4.1692,-4.0373,-4.091,-4.0266,-3.9712,-3.9627,-3.9384,-3.8713,-3.753,0.0,0.0,0.0,0.0,0.0,0.0,0.0,0.0,0.0,0.0,0.0,0.0,0.0,0.0,-4.3564,-4.6254,0.0,-4.8461,-4.9531,0.0,0.0,0.0,-5.0125,-5.1271,-5.1365,-5.2184,-5.3791,0.0,0.0,-5.8104,-6.0532,-6.1892,-6.1018,-6.0367,-5.9493,-5.8057,-5.7209,-5.6389,-5.517,-5.3785,-5.3132,-5.4291,-5.4948,-5.4993,-5.3517,-4.9686,-4.7101,-4.6381,-4.333,-4.0803,-3.9963,-3.638,-3.3535,-3.3535,-3.3224,-3.2766,-3.2172,-3.2119,-3.2133,-3.2119,-3.2291,-3.2528,-4.5578,-4.2201,-3.9463,-3.8789,-3.958,-3.9726,-4.1391,-4.4408,-4.4607,-4.4581,-4.4119,-4.3431,-4.1491,-3.8515,-3.7152,0.0,0.0,0.0,-4.4596,-4.7257,-4.82,-4.9383,-5.0408,-5.0096,-4.9195,-4.7673,-4.7129,-4.6241,-4.5136,-4.5154,-4.3498,-4.0153,0.0,-3.9341,-4.091,-4.2163,-4.332,-4.4958,-4.488,-4.4871,-4.4733,-4.1587,-4.0373,-4.0952,-3.9871,-3.9519,-4.0174,-3.7687,-3.6033,-3.5504,-3.2774,-3.0871,0.0,0.0,0.0,0.0,0.0,0.0,0.0,0.0,0.0,0.0,0.0,-2.9844,-3.1296,0.0,0.0,0.0,-3.8565,-4.0223,-4.2424,-4.4225,0.0,0.0,0.0,0.0,0.0,0.0,0.0,-4.7493,-5.0829,-5.3721,-5.5583,-5.6455,-5.6483,-5.5464,-5.547,-5.4908,-5.3193,0.0,-5.27,-5.0527,-5.0949,-5.1235,-5.0219,-5.114,-5.1505,-5.0402,-4.6083,-4.2502,-4.1406,-3.81,-3.5528,-3.4756,-3.3694,-3.2634,-3.2291,-3.2067,-3.1869,-3.1645,-3.146,-3.1342,-3.1328,-3.1421,-3.1539,-3.7575,0.0,0.0,0.0,0.0,-3.4002,-3.5698,-3.8457,-3.9299,-3.9433,-3.9056,-3.8261,0.0,0.0,0.0,0.0,0.0,0.0,-4.0718,-4.311,-4.5912,-4.7699,-4.8807,-4.8582,-4.7596,-4.566,-4.5061,-4.3929,-4.2308,-4.1541,-3.8807,-3.4154,0.0,0.0,0.0,0.0,-3.9619,-4.1291,-4.1031,-4.0975,-4.1253,-3.851,-3.7143,-3.7422,-3.6426,-3.6064,-3.6456,-3.356,-3.1818,-3.1286,-2.7717,0.0,0.0,0.0,0.0,0.0,0.0,0.0,0.0,0.0,0.0,0.0,0.0,0.0,0.0,0.0,0.0,0.0,0.0,0.0,-3.6699,-3.9194,-4.0125,0.0,0.0,0.0,0.0,0.0,0.0,0.0,0.0,0.0,-5.0059,-5.091,-5.0863,0.0,0.0,-5.0413,-4.7686,-4.8145,-4.7993,-4.6147,-4.7107,0.0,-4.5955,-4.6856,-4.7391,-4.5608,-4.2154,-3.8715,-3.6377,-3.3403,-3.1213,-3.063,-3.1135,-3.1135,-3.0268,-2.9957,-2.9944,-2.9743,-2.9711,-2.9517,-2.9504,-2.944,-2.944,0.0,0.0,0.0,0.0,-2.815,0.0,0.0,0.0,-3.1912,-3.1249,0.0,-3.111,0.0,0.0,0.0,0.0,-2.9332,-3.3314,0.0,0.0,-4.4812,-4.6583,-4.4645,-4.5561,-4.4927,-4.2714,-4.079,-3.9161,-3.7811,-3.3842,0.0,0.0,0.0,0.0,0.0,0.0,-3.3488,-3.4211,-3.6256,-3.7289,-3.6905,-3.7116,-3.6044,-3.3485,-2.964,-2.781,-2.7918,-2.7256,-2.6859,-2.7166,-2.5696,0.0,0.0,0.0,0.0,0.0,0.0,0.0,0.0,0.0,0.0,0.0,0.0,0.0,0.0,0.0,0.0,0.0,0.0,0.0,0.0,-3.4652,0.0,0.0,0.0,0.0,0.0,0.0,0.0,0.0,0.0,-4.1777,-4.032,-4.3966,-4.5699,-4.3449,0.0,0.0,0.0,0.0,-4.1864,-4.1354,-4.0371,-4.0045,-4.0598,-4.19,-4.1582,-3.7509,0.0,0.0,-3.0637,-2.9302,-2.8736,-2.7969,-2.872,-2.8736,-2.6156,-2.6017,-2.6357,-2.6369,-2.6151,-2.6005,-2.5993,-2.5799,-2.5799,0.0,0.0,0.0,0.0,0.0,0.0,0.0,0.0,0.0,-2.569,-2.5332,-2.4818,0.0,0.0,0.0,0.0,0.0,0.0,0.0,0.0,-3.5522,-3.8159,-3.9649,-4.0083,-3.9237,-3.7245,-3.6235,-3.3263,0.0,0.0,0.0,0.0,0.0,0.0,0.0,0.0,-3.11,-3.2178,-3.252,-3.2795,-3.2691,-3.0192,-2.8673,-2.8394,-2.6927,-2.6024,-2.6076,-2.5361,-2.4487,0.0,0.0,0.0,0.0,0.0,0.0,0.0,0.0,0.0,0.0,0.0,0.0,0.0,0.0,0.0,0.0,0.0,0.0,0.0,0.0,0.0,0.0,0.0,-2.9538,0.0,0.0,0.0,0.0,0.0,0.0,0.0,0.0,0.0,-3.5668,-3.8456,-4.0234,-3.9247,-3.9678,-3.9384,-3.6923,0.0,0.0,0.0,0.0,0.0,0.0,0.0,-3.6615,-3.4461,-3.3471,-3.1976,-2.9293,-2.7637,-2.6449,-2.5745,0.0,0.0,-2.1704,-2.1898,-2.2617,-2.2617,-2.2514,-2.256,-2.2571,-2.2467,-2.2626,0.0,0.0,0.0,0.0,0.0,0.0,0.0,0.0,0.0,-2.0499,-2.0474,0.0,0.0,0.0,0.0,0.0,0.0,0.0,0.0,0.0,0.0,0.0,-3.3608,-3.4097,0.0,0.0,0.0,0.0,0.0,0.0,0.0,0.0,0.0,0.0,0.0,0.0,-2.7316,-2.9011,-2.8668,-2.8702,-2.8856,-2.6014,-2.4703,-2.55,-2.512,-2.4682,-2.4302,0.0,0.0,0.0,0.0,0.0,0.0,0.0,0.0,0.0,0.0,0.0,0.0,0.0,0.0,0.0,0.0,0.0,0.0,0.0,0.0,0.0,0.0,0.0,0.0,0.0,-2.4759,0.0,0.0,0.0,0.0,0.0,0.0,0.0,0.0,0.0,0.0,-3.3302,-3.5012,-3.3881,-3.462,-3.4457,-3.282,-3.33,-3.3366,0.0,0.0,0.0,0.0,0.0,0.0,0.0,0.0,0.0,0.0,0.0,0.0,0.0,0.0,-2.0481,-1.7315,-1.7521,-1.8104,-1.8104,0.0,0.0,0.0,0.0,0.0,0.0,0.0,0.0,0.0,0.0,0.0,0.0,0.0,0.0,0.0,-1.5146,0.0,0.0,-1.3192,0.0,0.0,0.0,0.0,0.0,0.0,0.0,0.0,0.0,0.0,0.0,0.0,0.0,0.0,0.0,0.0,0.0,0.0,0.0,0.0,0.0,0.0,-2.2106,-2.4403,-2.4601,-2.5013,-2.5685,-2.5026,-2.457,-2.4696,-2.4169,-2.3297,-2.1974,0.0,0.0,0.0,0.0,0.0,0.0,0.0,0.0,0.0,0.0,0.0,0.0,0.0,0.0,0.0,0.0,0.0,0.0,0.0,0.0,0.0,0.0,0.0,0.0,0.0,0.0,-2.2951,-2.364,-2.3712,0.0,0.0,0.0,0.0,0.0,0.0,0.0,0.0,0.0,-2.7568,-3.0533,-3.1917,-2.9557,-2.9626,-3.0352,-3.1249,-3.1425,-3.1338,-3.1034,-3.0715,-2.9714,0.0,0.0,0.0,0.0,0.0,0.0,0.0,0.0,0.0,0.0,0.0,0.0,0.0,0.0,0.0,0.0,0.0,0.0,0.0,0.0,0.0,0.0,0.0,0.0,0.0,0.0,0.0,0.0,0.0,0.0,0.0,0.0,0.0,0.0,0.0,0.0,0.0,0.0,0.0,0.0,0.0,0.0,0.0,0.0,0.0,0.0,0.0,0.0,0.0,0.0,0.0,0.0,0.0,0.0,-2.0174,-2.1539,-2.2598,-2.3444,-2.4071,-2.3868,-2.3738,-2.4142,-2.3773,-2.2828,0.0,0.0,0.0,0.0,0.0,0.0,0.0,0.0,0.0,0.0,0.0,0.0,0.0,0.0,0.0,0.0,0.0,0.0,0.0,0.0,0.0,0.0,0.0,0.0,0.0,0.0,0.0,0.0,-1.9813,-1.995,-1.9844,0.0,0.0,0.0,0.0,0.0,0.0,0.0,0.0,0.0,0.0,-2.7197,-2.6954,-2.7746,-2.8176,-2.8301,-2.845,-2.8559,-2.8477,-2.8205,-2.7505,-2.5859,0.0,0.0,0.0,0.0,0.0,0.0,0.0,0.0,0.0,0.0,0.0,0.0,0.0,0.0,0.0,0.0,0.0,0.0,0.0,0.0,0.0,0.0,0.0,0.0,0.0,0.0,0.0,0.0,0.0,0.0,0.0,0.0,0.0,0.0,0.0,0.0,0.0,0.0,0.0,0.0,0.0,0.0,0.0,0.0,0.0,0.0,0.0,0.0,0.0,0.0,0.0,0.0,0.0,-1.8814,-2.0452,-2.1672,-2.2494,-2.3038,-2.2984,-2.3208,-2.3604,-2.3049,-2.195,0.0,0.0,0.0,0.0,0.0,0.0,0.0,0.0,0.0,0.0,0.0,0.0,0.0,0.0,0.0,0.0,0.0,0.0,0.0,0.0,0.0,0.0,0.0,0.0,0.0,0.0,0.0,0.0,-1.6042,-1.6546,-1.7414,0.0,0.0,0.0,0.0,0.0,0.0,0.0,0.0,0.0,0.0,-2.4108,-2.4647,-2.5641,0.0,0.0,-2.623,-2.6565,-2.6502,-2.6509,-2.5726,-2.3886,-2.1906,0.0,0.0,0.0,0.0,0.0,0.0,0.0,0.0,0.0,0.0,0.0,0.0,0.0,0.0,0.0,0.0,0.0,0.0,0.0,0.0,0.0,0.0,0.0,0.0,0.0,0.0,0.0,0.0,0.0,0.0,0.0,0.0,0.0,0.0,0.0,0.0,0.0,0.0,0.0,0.0,0.0,0.0,0.0,0.0,0.0,0.0,0.0,0.0,0.0,0.0,0.0,0.0,-1.7699,-2.0101,-2.1198,-2.1859,-2.2236,-2.2535,-2.2685,-2.3009,-2.1743,-2.0495,0.0,0.0,0.0,0.0,0.0,0.0,0.0,0.0,0.0,0.0,0.0,0.0,0.0,0.0,0.0,0.0,0.0,0.0,0.0,0.0,0.0,0.0,0.0,0.0,0.0,0.0,0.0,0.0,0.0,0.0,0.0,0.0,0.0,0.0,0.0,0.0,0.0,0.0,0.0,0.0,0.0,-2.2055,-2.2082,-2.3471,-2.4453,0.0,-2.4613,-2.4714,-2.4989,-2.5216,-2.435,-2.1635,0.0,0.0,0.0,0.0,0.0,0.0,0.0,0.0,0.0,0.0,0.0,0.0,0.0,0.0,0.0,0.0,0.0,0.0,0.0,0.0,0.0,0.0,0.0,0.0,0.0,0.0,0.0,0.0,0.0,0.0,0.0,0.0,0.0,0.0,0.0,0.0,0.0,0.0,0.0,0.0,0.0,0.0,0.0,0.0,0.0,0.0,0.0,0.0,0.0,0.0,0.0,0.0,0.0,0.0,-1.7972,-1.9416,-2.0416,-2.1078,-2.1115,-2.1344,-2.1603,-2.0853,0.0,0.0,0.0,0.0,0.0,0.0,0.0,0.0,0.0,0.0,0.0,0.0,0.0,0.0,0.0,0.0,0.0,0.0,0.0,0.0,0.0,0.0,0.0,0.0,0.0,0.0,0.0,-0.6924,0.0,0.0,0.0,0.0,0.0,0.0,0.0,0.0,0.0,0.0,0.0,0.0,0.0,0.0,-1.7047,-1.7968,-1.8764,-1.9398,0.0,0.0,-2.269,-2.2958,-2.2866,-2.2,0.0,0.0,0.0,0.0,0.0,0.0,0.0,0.0,0.0,0.0,0.0,0.0,0.0,0.0,0.0,0.0,0.0,0.0,0.0,0.0,0.0,0.0,0.0,0.0,0.0,0.0,0.0,0.0,0.0,0.0,0.0,0.0,0.0,0.0,0.0,0.0,0.0,0.0,0.0,0.0,0.0,0.0,0.0,0.0,0.0,0.0,0.0,0.0,0.0,0.0,0.0,0.0,0.0,0.0,-1.4729,-1.6711,-1.8094,-1.9126,-2.007,-2.0283,-2.0598,-2.0861,-1.995,-1.8793,0.0,0.0,0.0,0.0,0.0,0.0,0.0,0.0,0.0,0.0,0.0,0.0,0.0,0.0,0.0,0.0,0.0,0.0,0.0,0.0,0.0,0.0,0.0,0.0,0.0,0.0,0.0,0.0,0.0,0.0,0.0,0.0,0.0,0.0,0.0,0.0,0.0,0.0,0.0,0.0,0.0,0.0,-1.4656,-1.5627,0.0,0.0,0.0,-1.9753,-1.8821,0.0,0.0,0.0,0.0,0.0,0.0,0.0,0.0,0.0,0.0,0.0,0.0,0.0,0.0,0.0,0.0,0.0,0.0,0.0,0.0,0.0,0.0,0.0,0.0,0.0,0.0,0.0,0.0,0.0,0.0,0.0,0.0,0.0,0.0,0.0,0.0,0.0,0.0,0.0,0.0,0.0,0.0,0.0,0.0,0.0,0.0,0.0,0.0,0.0,0.0,0.0,0.0,0.0,0.0,0.0,0.0,0.0,-1.5977,-1.7198,-1.8263,-1.9444,-1.9884,-2.0161,-2.0316,-1.9152,-1.8283,0.0,0.0,0.0,0.0,0.0,0.0,0.0,0.0,0.0,0.0,0.0,0.0,0.0,0.0,0.0,0.0,0.0,0.0,0.0,0.0,0.0,0.0,0.0,0.0,0.0,0.0,0.0,0.0,0.0,0.0,0.0,0.0,0.0,0.0,0.0,0.0,0.0,0.0,0.0,0.0,0.0,-1.2582,-1.1736,-1.2902,-1.4191,0.0,0.0,-1.6365,-1.4181,-1.6277,0.0,0.0,0.0,0.0,0.0,0.0,0.0,0.0,0.0,0.0,0.0,0.0,0.0,0.0,0.0,0.0,0.0,0.0,0.0,0.0,0.0,0.0,0.0,0.0,0.0,0.0,0.0,0.0,0.0,0.0,0.0,0.0,0.0,0.0,0.0,0.0,0.0,0.0,0.0,0.0,0.0,0.0,0.0,0.0,0.0,0.0,0.0,0.0,0.0,0.0,0.0,0.0,0.0,0.0,0.0,0.0,-1.6109,-1.7198,-1.8263,-1.9455,-1.9585,-1.9489,-1.9329,-1.9232,-1.8135,0.0,0.0,0.0,0.0,0.0,0.0,0.0,0.0,0.0,0.0,0.0,0.0,0.0,0.0,0.0,0.0,0.0,0.0,0.0,0.0,0.0,0.0,0.0,0.0,0.0,0.0,0.0,0.0,0.0,0.0,0.0,0.0,0.0,0.0,0.0,0.0,0.0,0.0,0.0,0.0,0.0,-0.7264,-0.6603,-0.7341,0.0,0.0,0.0,0.0,-1.1288,-1.1904,0.0,0.0,0.0,0.0,0.0,0.0,0.0,0.0,0.0,0.0,0.0,0.0,0.0,0.0,0.0,0.0,0.0,0.0,0.0,0.0,0.0,0.0,0.0,0.0,0.0,0.0,0.0,0.0,0.0,0.0,0.0,0.0,0.0,0.0,0.0,0.0,0.0,0.0,0.0,0.0,0.0,0.0,0.0,0.0,0.0,0.0,0.0,0.0,0.0,0.0,0.0,0.0,0.0,0.0,0.0,0.0,-1.4991,-1.6227,-1.7648,-1.9444,-1.9476,-1.937,-1.9117,-1.9277,-1.8196,0.0,0.0,0.0,0.0,0.0,0.0,0.0,0.0,0.0,0.0,0.0,0.0,0.0,0.0,0.0,0.0,0.0,0.0,0.0,0.0,0.0,0.0,0.0,0.0,0.0,0.0,0.0,0.0,0.0,0.0,0.0,0.0,0.0,0.0,0.0,0.0,0.0,0.0,0.0,0.0,-0.5805,-0.5458,-0.5011,0.0,0.0,0.0,0.0,0.0,0.0,-0.848,-0.853,0.0,0.0,0.0,0.0,0.0,0.0,0.0,0.0,0.0,0.0,0.0,0.0,0.0,0.0,0.0,0.0,0.0,0.0,0.0,0.0,0.0,0.0,0.0,0.0,0.0,0.0,0.0,0.0,0.0,0.0,0.0,0.0,0.0,0.0,0.0,0.0,0.0,0.0,0.0,0.0,0.0,0.0,0.0,0.0,0.0,0.0,0.0,0.0,0.0,0.0,0.0,0.0,0.0,0.0,0.0,-1.3735,-1.5102,-1.6872,-1.908,-1.9346,-1.9402,-1.9117,-1.9364,-1.825,-1.5263,0.0,0.0,0.0,0.0,0.0,0.0,0.0,0.0,0.0,0.0,0.0,0.0,0.0,0.0,0.0,0.0,0.0,0.0,0.0,0.0,0.0,0.0,0.0,0.0,0.0,0.0,0.0,0.0,0.0,0.0,0.0,0.0,0.0,0.0,0.0,0.0,0.0,0.0,0.0,-0.4936,-0.4688,0.0,0.0,0.0,0.0,0.0,0.0,0.0,0.0,-0.5831,0.0,0.0,0.0,0.0,0.0,0.0,0.0,0.0,0.0,0.0,0.0,0.0,0.0,0.0,0.0,0.0,0.0,0.0,0.0,0.0,0.0,0.0,0.0,0.0,0.0,0.0,0.0,0.0,0.0,0.0,0.0,0.0,0.0,0.0,0.0,0.0,0.0,0.0,0.0,0.0,0.0,0.0,0.0,0.0,0.0,0.0,0.0,0.0,0.0,0.0,0.0,0.0,0.0,0.0,0.0,0.0,-1.477,-1.6511,-1.8256,-1.9267,-1.9571,-1.9127,-1.92,-1.7519,-1.3711,0.0,0.0,0.0,0.0,0.0,0.0,0.0,0.0,0.0,0.0,0.0,0.0,0.0,0.0,0.0,0.0,0.0,0.0,0.0,0.0,0.0,0.0,0.0,0.0,0.0,0.0,0.0,0.0,0.0,0.0,0.0,0.0,0.0,0.0,0.0,0.0,0.0,0.0,-0.3124,-0.2665,0.0,0.0,0.0,0.0,0.0,0.0,0.0,0.0,-0.2482,0.0,0.0,0.0,0.0,0.0,0.0,0.0,0.0,0.0,0.0,0.0,0.0,0.0,0.0,0.0,0.0,0.0,0.0,0.0,0.0,0.0,0.0,0.0,0.0,0.0,0.0,0.0,0.0,0.0,0.0,0.0,0.0,0.0,0.0,0.0,0.0,0.0,0.0,0.0,0.0,0.0,0.0,0.0,0.0,0.0,0.0,0.0,0.0,0.0,0.0,0.0,0.0,0.0,0.0,0.0,0.0,0.0,0.0,-1.6048,-1.7888,-1.9101,-1.9423,-1.8937,-1.7912,-1.5839,0.0,0.0,0.0,0.0,0.0,0.0,0.0,0.0,0.0,0.0,0.0,0.0,0.0,0.0,0.0,0.0,0.0,0.0,0.0,0.0,0.0,0.0,0.0,0.0,0.0,0.0,0.0,0.0,0.0,0.0,0.0,0.0,0.0,0.0,0.0,0.0,0.0,0.0,0.0,0.0,0.0,0.0,0.0,0.0,0.0,0.0,0.0,0.0,0.0,0.0,0.0,0.0,0.0,0.0,0.0,0.0,0.0,0.0,0.0,0.0,0.0,0.0,0.0,0.0,0.0,0.0,0.0,0.0,0.0,0.0,0.0,0.0,0.0,0.0,0.0,0.0,0.0,0.0,0.0,0.0,0.0,0.0,0.0,0.0,0.0,0.0,0.0,0.0,0.0,0.0,0.0,0.0,0.0,0.0,0.0,0.0,0.0,0.0,0.0,0.0,0.0,0.0,0.0,0.0,0.0,0.0,0.0,0.0,-1.5472,-1.724,-1.8713,-1.9233,-1.8726,-1.6503,-1.3959,0.0,0.0,0.0,0.0,0.0,0.0,0.0,0.0,0.0,0.0,0.0,0.0,0.0,0.0,0.0,0.0,0.0,0.0,0.0,0.0,0.0,0.0,0.0,0.0,0.0,0.0,0.0,0.0,0.0,0.0,0.0,0.0,0.0,0.0,0.0,0.0,0.0,0.0,0.0,0.0,0.0,0.0,0.0,0.0,0.0,0.0,0.0,0.0,-0.0484,0.0,0.0,0.0,0.0,0.0,0.0,0.0,0.0,0.0,0.0,0.0,0.0,0.0,0.0,0.0,0.0,0.0,0.0,0.0,0.0,0.0,0.0,0.0,0.0,0.0,0.0,0.0,0.0,0.0,0.0,0.0,0.0,0.0,0.0,0.0,0.0,0.0,0.0,0.0,0.0,0.0,0.0,0.0,0.0,0.0,0.0,0.0,0.0,0.0,0.0,0.0,0.0,0.0,0.0,0.0,0.0,0.0,0.0,0.0,-1.4867,-1.5907,-1.8182,-1.9159,-1.8472,-1.5332,-1.2515,0.0,0.0,0.0,0.0,0.0,0.0,0.0,0.0,0.0,0.0,0.0,0.0,0.0,0.0,0.0,0.0,0.0,0.0,0.0,0.0,0.0,0.0,0.0,0.0,0.0,0.0,0.0,0.0,0.0,0.0,0.0,0.0,0.0,0.0,0.0,0.0,0.0,0.0,0.0,0.0,0.0,0.0,0.0,0.0,0.0,0.0,0.0,0.0,0.0,0.0,0.0,0.0,0.0,0.0,0.0,0.0,0.0,0.0,0.0,0.0,0.0,0.0,0.0,0.0,0.0,0.0,0.0,0.0,0.0,0.0,0.0,0.0,0.0,0.0,0.0,0.0,0.0,0.0,0.0,0.0,0.0,0.0,0.0,0.0,0.0,0.0,0.0,0.0,0.0,0.0,0.0,0.0,0.0,0.0,0.0,0.0,0.0,0.0,0.0,0.0,0.0,0.0,0.0,0.0,0.0,0.0,0.0,0.0,-1.2541,-1.4771,-1.6652,-1.6667,-1.5022,-1.247,-1.0332,0.0,0.0,0.0,0.0,0.0,0.0,0.0,0.0,0.0,0.0,0.0,0.0,0.0,0.0,0.0,0.0,0.0,0.0,0.0,0.0,0.0,0.0,0.0,0.0,0.0,0.0,0.0,0.0,0.0,0.0,0.0,0.0,0.0,0.0,0.0,0.0,0.0,0.0,0.0,0.0,0.0,0.0,0.0,0.0,0.0,0.0,0.0,0.0,0.0,0.0,0.0,0.0,0.0,0.0,0.0,0.0,0.0,0.0,0.0,0.0,0.0,0.0,0.0,0.0,0.0,0.0,0.0,0.0,0.0,0.0,0.0,0.0,0.0,0.0,0.0,0.0,0.0,0.0,0.0,0.0,0.0,0.0,0.0,0.0,0.0,0.0,0.0,0.0,0.0,0.0,0.0,0.0,0.0,0.0,0.0,0.0,0.0,0.0,0.0,0.0,0.0,0.0,0.0,0.0,0.0,0.0,0.0,0.0,0.0,-1.2932,-1.365,-1.3093,-1.1556,-0.9883,-0.8234,0.0,0.0,0.0,0.0,0.0,0.0,0.0,0.0,0.0,0.0,0.0,0.0,0.0,0.0,0.0,0.0,0.0,0.0,0.0,0.0,0.0,0.0,0.0,0.0,0.0,0.0,0.0,0.0,0.0,0.0,0.0,0.0,0.0,0.0,0.0,0.0,0.0,0.0,0.0,0.0,0.0,0.0,0.0,0.0,0.0,0.0,0.0,0.0,0.0,0.0,0.0,0.0,0.0,0.0,0.0,0.0,0.0,0.0,0.0,0.0,0.0,0.0,0.0,0.0,0.0,0.0,0.0,0.0,0.0,0.0,0.0,0.0,0.0,0.0,0.0,0.0,0.0,0.0,0.0,0.0,0.0,0.0,0.0,0.0,0.0,0.0,0.0,0.0,0.0,0.0,0.0,0.0,0.0,0.0,0.0,0.0,0.0,0.0,0.0,0.0,0.0,0.0,0.0,0.0,0.0,0.0,0.0,0.0,0.0,-1.0138,-0.8862,-0.8498,-0.8865,-0.802,-0.6713,0.0,0.0,0.0,0.0,0.0,0.0,0.0,0.0,0.0,0.0,0.0,0.0,0.0,0.0,0.0,0.0,0.0,0.0,0.0,0.0,0.0,0.0,0.0,0.0,0.0,0.0,0.0,0.0,0.0,0.0,0.0,0.0,0.0,0.0,0.0,0.0,0.0,0.0,0.0,0.0,0.0,0.0,0.0,0.0,0.0,0.0,0.0,0.0,0.0,0.0,0.0,0.0,0.0,0.0,0.0,0.0,0.0,0.0,0.0,0.0,0.0,0.0,0.0,0.0,0.0,0.0,0.0,0.0,0.0,0.0,0.0,0.0,0.0,0.0,0.0,0.0,0.0,0.0,0.0,0.0,0.0,0.0,0.0,0.0,0.0,0.0,0.0,0.0,0.0,0.0,0.0,0.0,0.0,0.0,0.0,0.0,0.0,0.0,0.0,0.0,0.0,0.0,0.0,0.0,0.0,0.0,0.0,0.0,0.0,-0.5252,-0.534,-0.5433,-0.5723,-0.5257,-0.4688,-0.3949,0.0,0.0,0.0,0.0,0.0,0.0,0.0,0.0,0.0,0.0,0.0,0.0,0.0,0.0,0.0,0.0,0.0,0.0,0.0,0.0,0.0,0.0,0.0,0.0,0.0,0.0,0.0,0.0,0.0,0.0,0.0,0.0,0.0,0.0,0.0,0.0,0.0,0.0,0.0,0.0,0.0,0.0,0.0,0.0,0.0,0.0,0.0,0.0,0.0,0.0,0.0,0.0,0.0,0.0,0.0,0.0,0.0,0.0,0.0,0.0,0.0,0.0,0.0,0.0,0.0,0.0,0.0,0.0,0.0,0.0,0.0,0.0,0.0,0.0,0.0,0.0,0.0,0.0,0.0,0.0,0.0,0.0,0.0,0.0,0.0,0.0,0.0,0.0,0.0,0.0,0.0,0.0,0.0,0.0,0.0,0.0,0.0,0.0,0.0,0.0,0.0,0.0,0.0,0.0,0.0,0.0,0.0,0.0,-0.1968,-0.2864,-0.3323,-0.332,-0.3257,-0.3258,0.0,0.0,0.0,0.0,0.0,0.0,0.0,0.0,0.0,0.0,0.0,0.0,0.0,0.0,0.0,0.0,0.0,0.0,0.0,0.0,0.0,0.0,0.0,0.0,0.0,0.0,0.0,0.0,0.0,0.0,0.0,0.0,0.0,0.0,0.0,0.0,0.0,0.0,0.0,0.0,0.0,0.0,0.0,0.0,0.0,0.0,0.0,0.0,0.0,0.0,0.0,0.0,0.0,0.0,0.0,0.0,0.0,0.0,0.0,0.0,0.0,0.0,0.0,0.0,0.0,0.0,0.0,0.0,0.0,0.0,0.0,0.0,0.0,0.0,0.0,0.0,0.0,0.0,0.0,0.0,0.0,0.0,0.0,0.0,0.0,0.0,0.0,0.0,0.0,0.0,0.0,0.0,0.0,0.0,0.0,0.0,0.0,0.0,0.0,0.0,0.0,0.0,0.0,0.0,0.0,0.0,0.0,0.0,-0.0313,-0.0817,-0.1638,-0.2052,-0.1966,-0.2407,-0.2615,0.0,0.0,0.0,0.0,0.0,0.0,0.0,0.0,0.0,0.0,0.0,0.0,0.0,0.0,0.0,0.0,0.0,0.0,0.0,0.0,0.0,0.0,0.0,0.0,0.0,0.0,0.0,0.0,0.0,0.0,0.0,0.0,0.0,0.0,0.0,0.0,0.0,0.0,0.0,0.0,0.0,0.0,0.0,0.0,0.0,0.0,0.0,0.0,0.0,0.0,0.0,0.0,0.0,0.0,0.0,0.0,0.0,0.0,0.0,0.0,0.0,0.0,0.0,0.0,0.0,0.0,0.0,0.0,0.0,0.0,0.0,0.0,0.0,0.0,0.0,0.0,0.0,0.0,0.0,0.0,0.0,0.0,0.0,0.0,0.0,0.0,0.0,0.0,0.0,0.0,0.0,0.0,0.0,0.0,0.0,0.0,0.0,0.0,0.0,0.0,0.0,0.0,0.0,0.0,0.0,0.0,0.0,0.0,0.0,-0.0229,0.0,-0.1406,-0.1406,-0.217,-0.2627,0.0,0.0,0.0,0.0,0.0,0.0,0.0,0.0,0.0,0.0,0.0,0.0,0.0,0.0,0.0,0.0,0.0,0.0,0.0,0.0,0.0,0.0,0.0,0.0,0.0,0.0,0.0,0.0,0.0,0.0,0.0,0.0,0.0,0.0,0.0,0.0,0.0,0.0,0.0,0.0,0.0,0.0,0.0,0.0,0.0,0.0,0.0,0.0,0.0,0.0,0.0,0.0,0.0,0.0,0.0,0.0,0.0,0.0,0.0,0.0,0.0,0.0,0.0,0.0,0.0,0.0,0.0,0.0,0.0,0.0,0.0,0.0,0.0,0.0,0.0,0.0,0.0,0.0,0.0,0.0,0.0,0.0,0.0,0.0,0.0,0.0,0.0,0.0,0.0,0.0,0.0,0.0,0.0,0.0,0.0,0.0,0.0,0.0,0.0,0.0,0.0,0.0,0.0,0.0,0.0,0.0,0.0,0.0,0.0,0.0,-0.0603,-0.1069,-0.1375,-0.2291,-0.2904,0.0,0.0,0.0,0.0,0.0,0.0,0.0,0.0,0.0,0.0,0.0,0.0,0.0,0.0,0.0,0.0,0.0,0.0,0.0,0.0,0.0,0.0,0.0,0.0,0.0,0.0,0.0,0.0,0.0,0.0,0.0,0.0,0.0,0.0,0.0,0.0,0.0,0.0,0.0,0.0,0.0,0.0,0.0,0.0,0.0,0.0,0.0,0.0,0.0,0.0,0.0,0.0,0.0,0.0,0.0,0.0,0.0,0.0,0.0,0.0,0.0,0.0,0.0,0.0,0.0,0.0,0.0,0.0,0.0,0.0,0.0,0.0,0.0,0.0,0.0,0.0,0.0,0.0,0.0,0.0,0.0,0.0,0.0,0.0,0.0,0.0,0.0,0.0,0.0,0.0,0.0,0.0,0.0,0.0,0.0,0.0,0.0,0.0,0.0,0.0,0.0,0.0,0.0,0.0,0.0,0.0,0.0,0.0,0.0,0.0,-0.0377,-0.0916,-0.1756,-0.2675,-0.3133,0.0,0.0,0.0,0.0,0.0,0.0,0.0,0.0,0.0,0.0,0.0,0.0,0.0,0.0,0.0,0.0,0.0,0.0,0.0,0.0,0.0,0.0,0.0,0.0,0.0,0.0,0.0,0.0,0.0,0.0,0.0,0.0,0.0,0.0,0.0,0.0,0.0,0.0,0.0,0.0,0.0,0.0,0.0,0.0,0.0,0.0,0.0,0.0,0.0,0.0,0.0,0.0,0.0,0.0,0.0,0.0,0.0,0.0,0.0,0.0,0.0,0.0,0.0,0.0,0.0,0.0,0.0,0.0,0.0,0.0,0.0,0.0,0.0,0.0,0.0,0.0,0.0,0.0,0.0,0.0,0.0,0.0,0.0,0.0,0.0,0.0,0.0,0.0,0.0,0.0,0.0,0.0,0.0,0.0,0.0,0.0,0.0,0.0,0.0,0.0,0.0,0.0,0.0,0.0,0.0,0.0,0.0,0.0,0.0,0.0,-0.0523,-0.0993,-0.1756,-0.2599,-0.321,-0.3511,0.0,0.0,0.0,0.0,0.0,0.0,0.0,0.0,0.0,0.0,0.0,0.0,0.0,0.0,0.0,0.0,0.0,0.0,0.0,0.0,0.0,0.0,0.0,0.0,0.0,0.0,0.0,0.0,0.0,0.0,0.0,0.0,0.0,0.0,0.0,0.0,0.0,0.0,0.0,0.0,0.0,0.0,0.0,0.0,0.0,0.0,0.0,0.0,0.0,0.0,0.0,0.0,0.0,0.0,0.0,0.0,0.0,0.0,0.0,0.0,0.0,0.0,0.0,0.0,0.0,0.0,0.0,0.0,0.0,0.0,0.0,0.0,0.0,0.0,0.0,0.0,0.0,0.0,0.0,0.0,0.0,0.0,0.0,0.0,0.0,0.0,0.0,0.0,0.0,0.0,0.0,0.0,0.0,0.0,0.0,0.0,0.0,0.0,0.0,0.0,0.0,0.0,0.0,0.0,0.0,0.0,0.0,0.0,0.0,0.0,-0.1298,-0.168,-0.2443,-0.3133,0.0,0.0,0.0,0.0,0.0,0.0,0.0,0.0,0.0,0.0,0.0,0.0,0.0,0.0,0.0,0.0,0.0,0.0,0.0,0.0,0.0,0.0,0.0,0.0,0.0,0.0,0.0,0.0,0.0,0.0,0.0,0.0,0.0,0.0,0.0,0.0,0.0,0.0,0.0,0.0,0.0,0.0,0.0,0.0,0.0,0.0,0.0,0.0,0.0,0.0,0.0,0.0,0.0,0.0,0.0,0.0,0.0,0.0,0.0,0.0,0.0,0.0,0.0,0.0,0.0,0.0,0.0,0.0,0.0,0.0,0.0,0.0,0.0,0.0,0.0,0.0,0.0,0.0,0.0,0.0,0.0,0.0,0.0,0.0,0.0,0.0,0.0,0.0,0.0,0.0,0.0,0.0,0.0,0.0,0.0,0.0,0.0,0.0,0.0,0.0,0.0,0.0,0.0,0.0,0.0,0.0,0.0,0.0,0.0,0.0,0.0,-0.1756,-0.1833,-0.2291,0.0,-0.3656,0.0,0.0,0.0,0.0,0.0,0.0,0.0,0.0,0.0,0.0,0.0,0.0,0.0,0.0,0.0,0.0,0.0,0.0,0.0,0.0,0.0,0.0,0.0,0.0,0.0,0.0,0.0,0.0,0.0,0.0,0.0,0.0,0.0,0.0,0.0,0.0,0.0,0.0,0.0,0.0,0.0,0.0,0.0,0.0,0.0,0.0,0.0,0.0,0.0,0.0,0.0,0.0,0.0,0.0,0.0,0.0,0.0,0.0,0.0,0.0,0.0,0.0,0.0,0.0,0.0,0.0,0.0,0.0,0.0,0.0,0.0,0.0,0.0,0.0,0.0,0.0,0.0,0.0,0.0,0.0,0.0,0.0,0.0,0.0,0.0,0.0,0.0,0.0,0.0,0.0,0.0,0.0,0.0,0.0,0.0,0.0,0.0,0.0,0.0,0.0,0.0,0.0,0.0,0.0,0.0,0.0,0.0,0.0,0.0,0.0,0.0,0.0,-0.2752,-0.3106,-0.3569,0.0,0.0,0.0,0.0,0.0,0.0,0.0,0.0,0.0,0.0,0.0,0.0,0.0,0.0,0.0,0.0,0.0,0.0,0.0,0.0,0.0,0.0,0.0,0.0,0.0,0.0,0.0,0.0,0.0,0.0,0.0,0.0,0.0,0.0,0.0,0.0,0.0,0.0,0.0,0.0,0.0,0.0,0.0,0.0,0.0,0.0,0.0,0.0,0.0,0.0,0.0,0.0,0.0,0.0,0.0,0.0,0.0,0.0,0.0,0.0,0.0,0.0,0.0,0.0,0.0,0.0,0.0,0.0,0.0,0.0,0.0,0.0,0.0,0.0,0.0,0.0,0.0,0.0,0.0,0.0,0.0,0.0,0.0,0.0,0.0,0.0,0.0,0.0,0.0,0.0,0.0,0.0,0.0,0.0,0.0,0.0,0.0,0.0,0.0,0.0,0.0,0.0,0.0,0.0,0.0,0.0,0.0,0.0,0.0,0.0,-0.2152,-0.2401,-0.2779,-0.3137,-0.3537,0.0,0.0,0.0,0.0,0.0,0.0,0.0,0.0,0.0,0.0,0.0,0.0,0.0,0.0,0.0,0.0,0.0,0.0,0.0,0.0,0.0,0.0,0.0,0.0,0.0,0.0,0.0,0.0,0.0,0.0,0.0,0.0,0.0,0.0,0.0,0.0,0.0,0.0,0.0,0.0,0.0,0.0,0.0,0.0,0.0,0.0,0.0,0.0,0.0,0.0,0.0,0.0,0.0,0.0,0.0,0.0,0.0,0.0,0.0,0.0,0.0,0.0,0.0,0.0,0.0,0.0,0.0,0.0,0.0,0.0,0.0,0.0,0.0,0.0,0.0,0.0,0.0,0.0,0.0,0.0,0.0,0.0,0.0,0.0,0.0,0.0,0.0,0.0,0.0,0.0,0.0,0.0,0.0,0.0,0.0,0.0,0.0,0.0,0.0,0.0,0.0,0.0,0.0,0.0,0.0,0.0,0.0,0.0,0.0,0.0,-0.2292,0.0,0.0,0.0,-0.361,0.0,0.0,0.0,0.0,0.0,0.0,0.0,0.0,0.0,0.0,0.0,0.0,0.0,0.0,0.0,0.0,0.0,0.0,0.0,0.0,0.0,0.0,0.0,0.0,0.0,0.0,0.0,0.0,0.0,0.0,0.0,0.0,0.0,0.0,0.0,0.0,0.0,0.0,0.0,0.0,0.0,0.0,0.0,0.0,0.0,0.0,0.0,0.0,0.0,0.0,0.0,0.0,0.0,0.0,0.0,0.0,0.0,0.0,0.0,0.0,0.0,0.0,0.0,0.0,0.0,0.0,0.0,0.0,0.0,0.0,0.0,0.0,0.0,0.0,0.0,0.0,0.0,0.0,0.0,0.0,0.0,0.0,0.0,0.0,0.0,0.0,0.0,0.0,0.0,0.0,0.0,0.0,0.0,0.0,0.0,0.0,0.0,0.0,0.0,0.0,0.0,0.0,0.0,0.0,0.0,0.0,0.0,0.0,0.0,0.0,0.0,0.0,0.0,0.0,0.0,0.0,0.0,0.0,0.0,0.0,0.0,0.0,0.0,0.0,0.0,0.0,0.0,0.0,0.0,0.0,0.0,0.0,0.0,0.0,0.0,0.0,0.0,0.0,0.0,0.0,0.0,0.0,0.0,0.0,0.0,0.0,0.0,0.0,0.0,0.0,0.0,0.0,0.0,0.0,0.0,0.0,0.0,0.0,0.0,0.0,0.0,0.0,0.0,0.0,0.0,0.0,0.0,0.0,0.0,0.0,0.0,0.0,0.0,0.0,0.0,0.0,0.0,0.0,0.0,0.0,0.0,0.0,0.0,0.0,0.0,0.0,0.0,0.0,0.0,0.0,0.0,0.0,0.0,0.0,0.0,0.0,0.0,0.0,0.0,0.0,0.0,0.0,0.0,0.0,0.0,0.0,0.0,0.0,0.0,0.0,0.0,0.0,0.0,0.0,0.0,0.0,0.0,0.0,0.0,0.0,0.0,0.0,0.0,0.0,0.0,0.0,0.0,0.0,0.0,0.0,0.0,0.0,0.0,0.0,0.0,0.0,0.0,0.0,0.0,0.0,0.0,0.0,0.0,0.0,0.0,0.0,0.0,0.0,0.0,0.0,0.0,0.0,0.0,0.0,0.0,0.0,0.0,0.0,0.0,0.0,0.0,0.0,0.0,0.0,0.0,0.0,0.0,0.0,0.0,0.0,0.0,0.0,0.0,0.0,0.0,0.0,0.0,0.0,0.0,0.0,0.0,0.0,0.0,0.0,0.0,0.0,0.0,0.0,0.0,0.0,0.0,0.0,0.0,0.0,0.0,0.0,0.0,0.0,0.0,0.0,0.0,0.0,0.0,0.0,0.0,0.0,0.0,0.0,0.0,0.0,0.0,0.0,0.0,0.0,0.0,0.0,0.0,0.0,0.0,0.0,0.0,0.0,0.0,0.0,0.0,0.0,0.0,0.0,0.0,0.0,0.0,0.0,0.0,0.0,0.0,0.0,0.0,0.0,0.0,0.0,0.0,0.0,0.0,0.0,0.0,0.0,0.0,0.0,0.0,0.0,0.0,0.0,0.0,0.0,0.0,0.0,0.0,0.0,0.0,0.0,0.0,0.0,0.0,0.0,0.0,0.0,0.0,0.0,0.0,0.0,0.0,0.0,0.0,0.0,0.0,0.0,0.0,0.0,0.0,0.0,0.0,0.0,0.0,0.0,0.0,0.0,0.0,0.0,0.0,0.0,0.0,0.0,0.0,0.0,0.0,0.0,0.0,0.0,0.0,0.0,0.0,0.0,0.0,0.0,0.0,0.0,0.0,0.0,0.0,0.0,0.0,0.0,0.0,0.0,0.0,0.0,0.0,0.0,0.0,0.0,0.0,0.0,0.0,0.0,0.0,0.0,0.0,0.0,0.0,0.0,0.0,0.0,0.0,0.0,0.0,0.0,0.0,0.0,0.0,0.0,0.0,0.0,0.0,0.0,0.0,0.0,0.0,0.0,0.0,0.0,0.0,0.0,0.0,0.0,0.0,0.0,0.0,0.0,0.0,0.0,0.0,0.0,0.0,0.0,0.0,0.0,0.0,0.0,0.0,0.0,0.0,0.0,0.0,0.0,0.0,0.0,0.0,0.0,0.0,0.0,0.0,0.0,0.0,0.0,0.0,0.0,0.0,0.0,0.0,0.0,0.0,0.0,0.0,0.0,0.0,0.0,0.0,0.0,0.0,0.0,0.0,0.0,0.0,0.0,0.0,0.0,0.0,0.0,0.0,0.0,0.0,0.0,0.0,0.0,0.0,0.0,0.0,0.0,0.0,0.0,0.0,0.0,0.0,0.0,0.0,0.0,0.0,0.0,0.0,0.0,0.0,0.0,0.0,0.0,0.0,0.0,0.0,0.0,0.0,0.0,0.0,0.0,0.0,0.0,0.0,0.0,0.0,0.0,0.0,0.0,0.0,0.0,0.0,0.0,0.0,0.0,0.0,0.0,0.0,0.0,0.0,0.0,0.0,0.0,0.0,0.0,0.0,0.0,0.0,0.0,0.0,0.0,0.0,0.0,0.0,0.0,0.0,0.0,0.0,0.0,0.0,0.0,0.0,0.0,0.0,0.0,0.0,0.0,0.0,0.0,0.0,0.0,0.0,0.0,0.0,0.0,0.0,0.0,0.0,0.0,0.0,0.0,0.0,0.0,0.0,0.0,0.0,0.0,0.0,0.0,0.0,0.0,0.0,0.0,0.0,0.0,0.0,0.0,0.0,0.0,0.0,0.0,0.0,0.0,0.0,0.0,0.0,0.0,0.0,0.0,0.0,0.0,0.0,0.0,0.0,0.0,0.0,0.0,0.0,0.0,0.0,0.0,0.0,0.0,0.0,0.0,0.0,0.0,0.0,0.0,0.0,0.0,0.0,0.0,0.0,0.0,0.0,0.0,0.0,0.0,0.0,0.0,0.0,0.0,0.0,0.0,0.0,0.0,0.0,0.0,0.0,0.0,0.0,0.0,0.0,0.0,0.0,0.0,0.0,0.0,0.0,0.0,0.0,0.0,0.0,0.0,0.0,0.0,0.0,0.0,0.0,0.0,0.0,0.0,0.0,0.0,0.0,0.0,0.0,0.0,0.0,0.0,0.0,0.0,0.0,0.0,0.0,0.0,0.0,0.0,0.0,0.0,0.0,0.0,0.0,0.0,0.0,0.0,0.0,0.0,0.0,0.0,0.0,0.0,0.0,0.0,0.0,0.0,0.0,0.0,0.0,0.0,0.0,0.0,0.0,0.0,0.0,0.0,0.0,0.0,0.0,0.0,0.0,0.0,0.0,0.0,0.0,0.0,0.0,0.0,0.0,0.0,0.0,0.0,0.0,0.0,0.0,0.0,0.0,0.0,0.0,0.0,0.0,0.0,0.0,0.0,0.0,0.0,0.0,0.0,0.0,0.0,0.0,0.0,0.0,0.0,0.0,0.0,0.0,0.0,0.0,0.0,0.0,0.0,0.0,0.0,0.0,0.0,0.0,0.0,0.0,0.0,0.0,0.0,0.0,0.0,0.0,0.0,0.0,0.0,0.0,0.0,0.0,0.0,0.0,0.0,0.0,0.0,0.0,0.0,0.0,0.0,0.0,0.0,0.0,0.0,0.0,0.0,0.0,0.0,0.0,0.0,0.0,0.0,0.0,0.0,0.0,0.0,0.0,0.0,0.0,0.0,0.0,0.0,0.0,0.0,0.0,0.0,0.0,0.0,0.0,0.0,0.0,0.0,0.0,0.0,0.0,0.0,0.0,0.0,0.0,0.0,0.0,0.0,0.0,0.0,0.0,0.0,0.0,0.0,0.0,0.0,0.0,0.0,0.0,0.0,0.0,0.0,0.0,0.0,0.0,0.0,0.0,0.0,0.0,0.0,0.0,0.0,0.0,0.0,0.0,0.0,0.0,0.0,0.0,0.0,0.0,0.0,0.0,0.0,0.0,0.0,0.0,0.0,0.0,0.0,0.0,0.0,0.0,0.0,0.0,0.0,0.0,0.0,0.0,0.0,0.0,0.0,0.0,0.0,0.0,0.0,0.0,0.0,0.0,0.0,0.0,0.0,0.0,0.0,0.0,0.0,0.0,0.0,0.0,0.0,0.0,0.0,0.0,0.0,0.0,0.0,0.0,0.0,0.0,0.0,0.0,0.0,0.0,0.0,0.0,0.0,0.0,0.0,0.0,0.0,0.0,0.0,0.0,0.0,0.0,0.0,0.0,0.0,0.0,0.0,0.0,0.0,0.0,0.0,0.0,0.0,0.0,0.0,0.0,0.0,0.0,0.0,0.0,0.0,0.0,0.0,0.0,0.0,0.0,0.0,0.0,0.0,0.0,0.0,0.0,0.0,0.0,0.0,0.0,0.0,0.0,0.0]}],[{"header":{"parameterUnit":"kt","parameterCategory":2,"dx":1,"dy":1,"la1":29.587661999999998,"la2":31.0,"lo1":-88.76705300000003,"lo2":-86.6583820000003,"nx":115,"ny":88,"refTime":"2022-10-29T00:00:00:Z","depth":0,"parameterNumber":2,"parameterNumberName":"V-component_of_WINDS"},"data":[7.9763,8.5306,9.0363,9.5246,9.9455,10.0593,10.1715,10.2607,10.2753,10.2753,10.2753,10.2753,10.2753,10.2753,10.2753,10.2753,10.2753,10.2753,10.2753,10.2899,10.4156,10.5132,10.6205,10.7474,10.8255,10.889,10.928,10.928,10.9378,10.9329,10.9232,10.9134,10.8207,10.8243,10.9681,10.9697,10.9716,11.1267,11.2312,11.2788,11.2636,11.1557,11.0004,10.9263,10.8642,10.7785,10.7392,10.6966,10.8754,11.1315,11.3812,11.5229,11.6547,11.7966,11.9421,12.0629,12.1597,12.2781,12.3228,12.362,12.3893,12.4502,12.4931,12.4931,12.5521,12.601,12.69,12.7314,12.7669,12.8667,12.9485,12.9485,12.9251,12.9717,12.9892,13.0596,13.1066,13.142,13.183,13.2825,13.3999,13.5059,13.5765,13.6543,13.7321,13.8333,13.8571,13.9051,13.9408,13.9015,13.8768,14.1004,14.3416,14.6889,15.0425,15.3289,15.5496,15.6606,15.7556,15.784,15.8189,15.8376,15.8563,15.8749,15.8867,15.896,15.896,15.896,15.896,15.9144,16.0474,16.1367,16.1813,16.267,16.429,7.9111,8.2697,8.8672,9.4489,9.926,9.9909,10.1032,10.2691,10.2753,10.2753,10.2753,10.2753,10.2753,10.2753,10.2753,10.2753,10.2753,10.2753,10.2753,10.3179,10.3863,10.4741,10.5864,10.7035,10.8011,10.8743,10.9183,10.928,10.928,10.928,10.9134,10.8792,10.806,10.7419,10.8341,10.8556,10.8905,11.07,11.1433,11.1532,11.0695,10.9801,10.9206,10.8445,10.7937,10.7836,10.8977,11.0069,11.151,11.3792,11.5964,11.7308,11.8841,12.04,12.1597,12.222,12.3005,12.3561,12.4172,12.4282,12.4612,12.5236,12.5853,12.6333,12.714,12.7981,12.9345,12.9707,12.9707,13.0357,13.1182,13.1478,13.1185,13.1126,13.1008,13.1184,13.142,13.1772,13.2297,13.2876,13.4171,13.5649,13.6423,13.7258,13.8451,13.9884,14.0664,14.1324,14.1732,14.1758,14.2833,14.502,14.7463,14.9328,15.1746,15.4498,15.6768,15.7745,15.8028,15.8403,15.8816,15.9218,15.9378,15.9228,15.896,15.896,15.896,15.896,15.896,15.896,15.9805,16.0186,16.0826,16.1898,16.3571,7.9527,8.2959,8.9695,9.5352,9.9357,10.0349,10.1422,10.2558,10.2753,10.2753,10.2753,10.2753,10.2753,10.2753,10.2753,10.2753,10.2753,10.2753,10.2753,10.2801,10.3423,10.4302,10.5181,10.6157,10.7377,10.8353,10.8841,10.9232,10.928,10.928,10.9183,10.8939,10.7565,10.7313,10.935,10.84,10.8519,11.0728,11.0944,11.0065,10.8341,10.8675,10.8577,10.817,10.8206,10.8985,10.9914,11.083,11.3221,11.614,11.7531,11.913,12.0915,12.222,12.3063,12.3509,12.3782,12.4223,12.4662,12.4999,12.5455,12.6545,12.7329,12.7762,12.852,13.0145,13.14,13.1404,13.1463,13.1348,13.2119,13.2356,13.2064,13.183,13.1772,13.1655,13.1772,13.218,13.2761,13.352,13.4999,13.6419,13.7491,13.8448,14.1294,14.2853,14.4991,14.5877,14.5298,14.4991,14.7366,14.9821,15.2585,15.4632,15.5219,15.6681,15.8134,15.8283,15.8496,15.8816,15.9177,15.9738,15.9965,15.9362,15.896,15.896,15.896,15.896,15.896,15.896,15.9144,15.9327,16.0007,16.0933,16.388,8.1963,8.4542,9.0759,9.5897,9.9584,10.0544,10.1618,10.2704,10.2753,10.2753,10.2753,10.2753,10.2753,10.2753,10.2753,10.2753,10.2753,10.2753,10.2753,10.2801,10.2801,10.3667,10.4497,10.5376,10.645,10.7523,10.8353,10.889,10.9183,10.928,10.9183,10.9036,10.7719,10.7411,10.9203,10.7828,10.7563,10.9211,10.9245,10.8356,10.7222,10.7602,10.8199,10.7843,10.8677,10.9833,11.0843,11.1977,11.5645,11.8022,11.9014,12.0687,12.2557,12.3228,12.373,12.3893,12.4333,12.4881,12.5207,12.5592,12.5998,12.71,12.8176,12.9123,13.0277,13.22,13.3103,13.2988,13.2873,13.2642,13.2645,13.2645,13.2529,13.2413,13.2297,13.2239,13.2123,13.2645,13.3163,13.4522,13.5948,13.7314,13.8505,14.0703,14.3908,14.6125,14.7869,14.8871,14.7987,14.8739,15.0999,15.3957,15.6886,15.7954,15.8534,15.9272,15.9098,15.9151,15.8909,15.9202,15.963,15.963,15.9496,15.9094,15.896,15.896,15.896,15.896,15.896,15.896,15.9144,15.9533,16.0186,16.2684,16.56,8.713,8.7836,9.094,9.5183,9.9389,9.9909,10.1032,10.2789,10.2887,10.2753,10.2753,10.2753,10.2753,10.2753,10.2753,10.2753,10.2753,10.2753,10.2753,10.2753,10.2753,10.3277,10.4009,10.4595,10.5669,10.6986,10.7914,10.8402,10.8988,10.928,10.9232,10.9183,10.7963,10.7663,10.8096,10.6922,10.661,10.7591,10.7416,10.7789,10.7186,10.7291,10.7205,10.7879,10.9493,11.1262,11.2473,11.4867,11.843,11.9478,12.0687,12.222,12.3286,12.3841,12.4443,12.4771,12.4881,12.5316,12.5532,12.6047,12.6275,12.7279,12.8525,12.9671,13.0807,13.2314,13.3442,13.3567,13.3567,13.3337,13.3337,13.3337,13.3222,13.2992,13.2876,13.2876,13.2761,13.2992,13.3631,13.4757,13.6243,13.7737,13.9105,14.2798,14.5991,14.6504,14.7997,14.9969,15.051,15.2023,15.46,15.7542,15.8961,15.9551,16.0262,16.0717,16.0274,15.9537,15.9068,15.9228,15.9496,15.9295,15.9027,15.896,15.896,15.896,15.9027,15.896,15.896,15.9052,15.9509,15.9895,16.224,16.5428,16.8427,8.889,9.0459,9.1754,9.4579,9.8481,10.0056,10.1032,10.191,10.2643,10.2753,10.2753,10.2753,10.2753,10.2753,10.2753,10.2753,10.2753,10.2753,10.2753,10.2753,10.2753,10.3228,10.3619,10.4156,10.4936,10.5864,10.684,10.7719,10.8255,10.8743,10.9232,10.9085,10.8207,10.7767,10.7328,10.6637,10.5747,10.5885,10.6784,10.8002,10.9422,11.0812,11.1479,11.2296,11.2667,11.4382,11.595,11.7078,11.9594,12.1257,12.1655,12.284,12.2951,12.3509,12.4113,12.499,12.5148,12.5316,12.5652,12.6128,12.7082,12.8264,12.9978,13.0814,13.171,13.26,13.3431,13.391,13.391,13.391,13.391,13.391,13.3681,13.3567,13.3452,13.3452,13.3452,13.3452,13.4104,13.5166,13.6363,13.7799,14.0815,14.4662,14.7147,14.8091,14.9543,15.1878,15.3969,15.4961,15.7108,16.038,16.1037,16.1025,16.1788,16.2285,16.1507,16.0703,15.9965,15.9429,15.9362,15.9362,15.9362,15.9228,15.9228,15.9094,15.9161,15.9094,15.9052,15.9533,15.9895,16.172,16.453,16.8105,17.1373,9.0978,9.2187,9.2829,9.471,9.7331,9.8919,10.0121,10.0934,10.1959,10.2691,10.2753,10.2753,10.2753,10.2753,10.2753,10.2753,10.2753,10.2753,10.2753,10.2753,10.2753,10.2753,10.3131,10.357,10.4058,10.4888,10.5766,10.6694,10.7279,10.7767,10.8255,10.8841,10.8402,10.767,10.7174,10.6383,10.5899,10.6119,10.7879,10.9516,11.1301,11.3036,11.3772,11.4691,11.5174,11.6547,11.814,11.9362,12.0687,12.222,12.2615,12.284,12.284,12.3286,12.3782,12.4881,12.499,12.499,12.5168,12.6176,12.7066,12.8008,13.0603,13.1436,13.2146,13.291,13.379,13.391,13.391,13.391,13.391,13.391,13.391,13.3796,13.3796,13.3681,13.3681,13.3801,13.4338,13.5346,13.6184,13.7971,14.1399,14.5236,14.8492,15.0076,15.224,15.5187,15.7089,15.7174,15.8961,16.2641,16.3568,16.2458,16.3049,16.3653,16.2714,16.1708,16.0703,15.9965,16.0099,16.0099,15.9764,16.0032,16.0837,16.0569,15.9697,15.9161,15.9027,15.9442,16.1105,16.3862,16.6941,17.1132,17.4812,9.4534,9.2701,9.4455,9.5437,9.5612,9.5902,9.7447,9.9812,10.0934,10.1959,10.2838,10.2753,10.2753,10.2753,10.2753,10.2753,10.2753,10.2753,10.2753,10.2753,10.2753,10.2753,10.2801,10.3033,10.3521,10.4107,10.479,10.5571,10.6059,10.6645,10.7133,10.7621,10.8158,10.7516,10.6806,10.6357,10.6821,10.7853,10.9814,11.2012,11.3854,11.5174,11.6134,11.6785,11.7613,11.8841,11.971,12.0801,12.1995,12.2503,12.2728,12.2951,12.3175,12.3397,12.3841,12.4282,12.4502,12.4561,12.4857,12.5809,12.6635,12.781,13.0571,13.2279,13.2929,13.3328,13.391,13.391,13.391,13.391,13.391,13.391,13.391,13.391,13.391,13.391,13.391,13.4503,13.5042,13.6056,13.6955,13.9493,14.2921,14.599,14.9481,15.1375,15.3863,15.6798,15.8191,15.8334,16.0418,16.4074,16.4697,16.3787,16.4055,16.4658,16.4055,16.3385,16.2111,16.1105,16.1105,16.1172,16.1105,16.1373,16.2312,16.2044,16.0636,15.9764,15.9454,16.075,16.2469,16.5481,17.0195,17.4359,17.7878,9.5893,9.4962,9.5341,9.5389,9.5389,9.5389,9.6289,9.8095,10.0233,10.1862,10.2691,10.2753,10.2753,10.2753,10.2753,10.2753,10.2753,10.2753,10.2753,10.2753,10.2753,10.2753,10.2753,10.2801,10.3179,10.3472,10.4009,10.4448,10.4985,10.5669,10.6205,10.6596,10.6889,10.6579,10.6604,10.7322,10.8387,11.0128,11.2821,11.5185,11.6967,11.8435,11.9653,11.994,12.04,12.1143,12.1484,12.1995,12.2615,12.2615,12.2728,12.2728,12.2951,12.3175,12.3561,12.3782,12.4121,12.4585,12.5239,12.6245,12.7648,12.8182,13.0706,13.2351,13.2932,13.3268,13.3557,13.379,13.391,13.391,13.391,13.391,13.391,13.391,13.391,13.391,13.4204,13.5506,13.6281,13.7895,13.9327,14.2157,14.5269,14.8041,15.1296,15.343,15.5355,15.715,15.8828,15.9684,16.1181,16.3969,16.5128,16.5329,16.5798,16.5932,16.5463,16.4927,16.3854,16.2647,16.258,16.258,16.258,16.2714,16.3183,16.3116,16.1641,16.1049,16.1308,16.2282,16.4873,16.9076,17.3367,17.7563,18.1657,9.6395,9.6395,9.5767,9.5389,9.5389,9.5389,9.5727,9.6821,9.8984,10.0983,10.2154,10.2789,10.2753,10.2753,10.2753,10.2753,10.2753,10.2753,10.2753,10.2753,10.2753,10.2753,10.2753,10.2753,10.2801,10.3082,10.3375,10.3814,10.3912,10.4351,10.4936,10.5473,10.5659,10.516,10.5637,10.7654,11.0778,11.279,11.572,11.8784,12.0056,12.1542,12.2391,12.2333,12.2333,12.2503,12.2503,12.2391,12.2728,12.2728,12.2728,12.2728,12.284,12.2951,12.345,12.4384,12.3509,12.4363,12.5632,12.7815,12.9404,13.0464,13.1641,13.1525,13.216,13.2552,13.2839,13.3012,13.3072,13.3491,13.379,13.385,13.391,13.391,13.403,13.403,13.4623,13.6041,13.7583,13.9202,14.104,14.3631,14.6504,14.9141,15.4086,15.7195,15.8271,15.9684,16.0407,16.1304,16.2039,16.4333,16.5999,16.6737,16.7206,16.6938,16.6469,16.6066,16.5262,16.439,16.4122,16.4122,16.4122,16.4256,16.4323,16.4256,16.3385,16.2768,16.3133,16.5489,17.0011,17.4252,17.8224,18.2029,18.4863,9.6346,9.627,9.5641,9.5467,9.537,9.5467,9.5515,9.598,9.7556,9.947,10.1422,10.2301,10.274,10.2753,10.2753,10.2753,10.2753,10.2753,10.2753,10.2753,10.2753,10.2753,10.2753,10.2753,10.2753,10.2753,10.3033,10.3179,10.2899,10.3375,10.3716,10.4156,10.4622,10.4316,10.3652,10.7108,11.2012,11.6737,11.8083,12.0285,12.1768,12.2391,12.2728,12.2728,12.2728,12.2728,12.2728,12.2728,12.2728,12.2728,12.2728,12.2728,12.284,12.3005,12.4172,12.5641,12.44,12.473,12.6155,12.9832,13.2272,13.3592,13.1511,13.1104,13.0971,13.0828,13.1158,13.1935,13.2235,13.2773,13.3312,13.379,13.379,13.391,13.4209,13.4448,13.5102,13.6111,13.8356,14.0148,14.215,14.4375,14.7411,15.1131,15.6751,16.0024,16.1075,16.1816,16.2285,16.286,16.3396,16.5128,16.6267,16.7005,16.7541,16.7541,16.7474,16.7273,16.6804,16.6267,16.5932,16.5731,16.5798,16.5999,16.5932,16.5798,16.5128,16.4658,16.5951,16.7829,17.3324,17.7975,18.278,18.6129,18.6991,9.5712,9.627,9.5767,9.5331,9.5171,9.5852,9.6144,9.6339,9.7391,9.9226,10.1276,10.1569,10.2106,10.2607,10.2753,10.2887,10.2655,10.2753,10.2753,10.2753,10.2753,10.2753,10.2753,10.2753,10.2753,10.2753,10.2753,10.2753,10.2753,10.2753,10.3131,10.346,10.3813,10.5128,10.6798,11.1711,11.6024,11.8551,12.0171,12.2107,12.2333,12.2728,12.2728,12.2728,12.2728,12.2669,12.2611,12.2669,12.2669,12.2611,12.2728,12.2728,12.3228,12.4062,12.5673,12.6957,12.8191,12.9515,13.108,13.3138,13.4457,13.4887,13.2534,13.1317,13.1484,13.1644,13.0499,13.0858,13.1457,13.2175,13.2354,13.2773,13.2953,13.4329,13.4568,13.5626,13.6166,13.7649,13.9663,14.1714,14.3836,14.618,14.9265,15.2859,15.8052,16.164,16.287,16.3797,16.3893,16.3921,16.4524,16.5396,16.6536,16.7206,16.7742,16.7675,16.7608,16.7541,16.7675,16.7407,16.7541,16.734,16.7273,16.7474,16.7474,16.7273,16.7407,16.7809,16.9016,17.0625,17.4274,17.8555,18.3256,18.6843,18.8017,9.4931,9.5175,9.5241,9.5241,9.5468,9.5663,9.6005,9.6493,9.7127,9.864,10.069,10.152,10.2057,10.2301,10.2545,10.2691,10.235,10.2643,10.2838,10.2753,10.2753,10.2753,10.2753,10.2753,10.2753,10.2753,10.2753,10.2753,10.2753,10.2753,10.2887,10.3287,10.3785,10.5598,10.8673,11.2698,11.7029,11.9653,12.1768,12.2615,12.2728,12.2728,12.2728,12.2728,12.2728,12.2441,12.2034,12.2325,12.2208,12.2092,12.2383,12.3222,12.3996,12.5029,12.7288,13.0264,13.0386,13.206,13.3979,13.7316,13.8063,13.6974,13.302,13.0484,13.0874,13.0081,12.9422,12.9781,12.9961,13.0978,13.1636,13.2115,13.2886,13.4269,13.5631,13.6691,13.823,14.0251,14.2203,14.4281,14.6411,14.8357,15.153,15.4763,15.9072,16.313,16.4683,16.5672,16.4831,16.4524,16.486,16.5597,16.6737,16.7541,16.7742,16.7742,16.7742,16.8011,16.8279,16.8614,16.8949,16.8748,16.8748,16.9016,16.9083,16.8547,16.8882,17.0424,17.2435,17.4581,17.7293,18.0032,18.3197,18.7008,18.9466,9.4004,9.3027,9.4199,9.5126,9.5809,9.5126,9.537,9.6151,9.6346,9.7615,9.947,10.1276,10.1569,10.152,10.1862,10.1959,10.1422,10.2301,10.2691,10.2704,10.2753,10.2753,10.2753,10.2753,10.2753,10.2753,10.2753,10.2753,10.2887,10.2887,10.3421,10.4002,10.4647,10.6402,10.9666,11.3336,11.7237,12.1257,12.2391,12.2728,12.2728,12.2728,12.2728,12.2728,12.2499,12.2034,12.087,12.1685,12.1859,12.0638,12.1336,12.2409,12.4554,12.5973,12.9321,13.2614,13.3683,13.5393,13.786,14.119,14.22,13.8523,13.4541,13.1474,13.0491,12.7926,12.7089,12.7986,12.8585,12.9602,13.0978,13.2235,13.3592,13.5494,13.7686,13.9263,14.1493,14.3409,14.5137,14.7096,14.9014,15.1014,15.3833,15.6603,16.0488,16.4093,16.585,16.6415,16.5672,16.5597,16.5798,16.5798,16.6938,16.7608,16.7742,16.8011,16.8279,16.848,16.8882,16.9485,17.0357,17.0357,17.0357,17.0692,17.1162,17.0022,16.962,17.2905,17.5855,17.8335,18.0134,18.1488,18.4137,18.6133,18.8761,9.2442,9.0977,9.2783,9.3223,9.293,9.4248,9.498,9.5321,9.6053,9.6737,9.7518,9.8689,9.9714,10.0056,10.0446,10.0885,10.1227,10.1569,10.2106,10.2691,10.2753,10.2655,10.2643,10.2789,10.2789,10.2753,10.2704,10.2753,10.302,10.3421,10.382,10.4002,10.5774,10.8857,11.1993,11.4871,11.7865,12.2394,12.2786,12.2728,12.2728,12.2728,12.2728,12.2728,12.2611,12.1976,12.0929,12.1161,12.0638,11.9707,12.0049,12.2179,12.5087,12.7452,13.1113,13.5256,13.824,13.9851,14.221,14.3535,14.2901,14.0647,13.7216,13.4344,13.1264,12.8704,12.7687,12.679,12.7448,12.8884,13.032,13.1576,13.4276,13.7405,14.0082,14.2686,14.5069,14.6618,14.823,14.9799,15.1389,15.3365,15.5741,15.8414,16.135,16.4795,16.6255,16.6919,16.7048,16.7139,16.6804,16.5932,16.7005,16.7675,16.7742,16.8011,16.8614,16.9016,16.9485,17.0357,17.2033,17.2502,17.2368,17.2771,17.3441,17.3173,17.3575,17.6391,17.9073,17.9475,18.0158,18.2188,18.3467,18.4596,18.662,9.2198,9.0831,9.2002,9.2393,9.2442,9.3515,9.4345,9.4931,9.5956,9.6639,9.7176,9.7811,9.864,9.9568,9.9665,9.9812,9.9909,10.0349,10.0983,10.1325,10.1422,10.1422,10.1666,10.1959,10.2154,10.2252,10.2594,10.2789,10.302,10.3687,10.4911,10.6141,10.7978,11.1158,11.6525,11.7249,11.9805,12.2062,12.2848,12.2728,12.2728,12.2728,12.2728,12.2728,12.2728,12.151,12.0521,12.0231,12.0056,11.9234,12.061,12.283,12.6713,12.9986,13.3764,13.8529,14.1922,14.4147,14.5341,14.5757,14.3787,14.1185,13.9651,13.734,13.2317,12.9243,12.7508,12.6311,12.7388,12.9003,13.0739,13.2408,13.61,13.958,14.2488,14.5304,14.8227,14.9734,15.0926,15.2304,15.3733,15.5771,15.7949,16.0194,16.2707,16.5296,16.6526,16.7126,16.7524,16.7851,16.7213,16.6506,16.7273,16.8011,16.8145,16.8279,16.915,16.9955,17.0424,17.1966,17.3709,17.4715,17.4715,17.4983,17.5586,17.6793,17.8268,17.9341,17.9877,18.0078,18.0078,18.0804,18.1564,18.2802,18.5292,9.2539,9.1493,9.1493,9.2051,9.2686,9.3223,9.3906,9.4687,9.5858,9.7107,9.8227,9.8065,9.8505,9.9349,9.9465,9.8738,9.8591,9.908,9.9665,10.0056,10.0056,10.0056,9.9958,10.0739,10.1081,10.1618,10.2252,10.2691,10.4036,10.5174,10.69,10.9083,11.0738,11.359,11.8676,11.8864,12.0797,12.3266,12.3081,12.2728,12.2728,12.2728,12.2728,12.2728,12.2441,12.1627,11.994,12.0172,12.0056,11.9343,12.1988,12.6052,13.0518,13.3339,13.738,14.1375,14.4404,14.6013,14.6232,14.642,14.486,14.1793,14.0904,13.7728,13.3978,13.0679,12.8824,12.6969,12.8169,13.013,13.2378,13.4711,13.8715,14.2374,14.5658,14.8633,15.1375,15.2833,15.3412,15.4626,15.7245,15.9031,15.9727,16.1736,16.3681,16.5241,16.6679,16.7289,16.7726,16.7825,16.7422,16.7815,16.8547,16.8949,16.915,16.9351,17.0089,17.096,17.21,17.3642,17.5184,17.6391,17.6592,17.7432,17.7732,17.8737,17.9877,18.0548,18.0816,18.0794,18.0573,18.0288,18.0289,18.2009,18.4443,9.2539,9.1493,9.1493,9.1222,9.1124,9.332,9.4101,9.3955,9.5517,9.7692,9.9152,9.7939,9.8163,9.9181,9.846,9.7596,9.8103,9.8358,9.9299,9.9919,10.0066,9.9826,9.9795,10.0007,10.0528,10.1245,10.2013,10.3147,10.5998,10.8904,11.1051,11.2403,11.4198,11.6866,11.8869,12.0036,12.1085,12.2404,12.2786,12.2728,12.2728,12.2728,12.2728,12.2728,12.2728,12.1859,12.0347,12.058,11.9998,12.052,12.2593,12.6064,12.976,13.4341,13.9213,14.36,14.5467,14.6137,14.6514,14.6702,14.5538,14.2616,14.2245,13.9691,13.6149,13.4043,13.2024,13.0172,13.1012,13.3032,13.5007,13.8554,14.277,14.6536,14.9325,15.1814,15.4058,15.5153,15.5517,15.7552,16.0773,16.1897,16.17,16.3249,16.4603,16.6165,16.6334,16.6949,16.8257,16.8292,16.8659,16.9056,16.9553,16.9955,17.0223,17.0424,17.1497,17.2368,17.3642,17.5117,17.6592,17.7933,17.945,18.0427,18.08,18.1418,18.1532,18.209,18.1517,18.1011,18.0935,18.1278,18.2375,18.3798,18.5483,9.4705,9.1731,9.2272,9.1791,9.1291,9.3125,9.3955,9.4223,9.643,9.835,9.9525,9.9634,10.0236,10.1247,10.0436,10.0376,10.0955,10.0812,10.1167,10.1645,10.1724,10.1352,10.0055,10.0577,10.0708,10.1339,10.387,10.6598,10.858,11.1604,11.3473,11.5097,11.6687,11.8976,12.0909,12.1373,12.2177,12.3035,12.2964,12.2728,12.2728,12.2728,12.2728,12.2728,12.2669,12.1917,12.0987,12.0696,12.113,12.2543,12.509,12.9082,13.3987,13.8819,14.3082,14.5176,14.6326,14.6795,14.6823,14.6795,14.6278,14.4352,14.4136,14.2791,14.079,13.8795,13.7559,13.6004,13.6318,13.6403,13.7709,14.1674,14.5437,14.8813,15.1374,15.3904,15.6044,15.6735,15.7392,15.8444,16.1305,16.2818,16.3015,16.4039,16.5459,16.5957,16.6127,16.7274,16.8821,16.9258,16.966,17.0061,17.0558,17.1027,17.143,17.2167,17.3307,17.3977,17.505,17.6525,17.7933,17.9244,18.0794,18.2936,18.4558,18.5398,18.4955,18.3271,18.2131,18.1209,18.1693,18.2548,18.3994,18.5592,18.7042,9.7557,9.3132,9.3906,9.3727,9.3083,9.4202,9.5292,9.5912,9.8089,9.9555,10.0545,10.1479,10.257,10.3838,10.4156,10.3898,10.3413,10.3229,10.3466,10.3636,10.357,10.2857,10.1604,10.2179,10.2056,10.2565,10.6574,10.9624,11.0907,11.2947,11.6015,11.791,11.9014,12.0684,12.2634,12.3255,12.2913,12.343,12.3023,12.2728,12.2728,12.2728,12.2728,12.2615,12.2964,12.2557,12.1685,12.1896,12.3289,12.6466,12.9223,13.3847,13.9093,14.3503,14.5622,14.6326,14.673,14.7075,14.7009,14.7075,14.679,14.625,14.6102,14.5795,14.4999,14.3923,14.2262,14.1135,13.9942,13.9891,14.1335,14.5343,14.8313,14.9978,15.2438,15.46,15.69,15.828,15.9398,16.0779,16.1963,16.341,16.3804,16.4527,16.5684,16.638,16.6588,16.7605,16.9384,17.0289,17.0927,17.1331,17.1832,17.2234,17.2602,17.3843,17.4783,17.5387,17.6359,17.7835,17.9176,18.0488,18.2601,18.5259,18.7129,18.7128,18.6164,18.4897,18.3584,18.2091,18.2712,18.3584,18.4947,18.6449,18.809,10.0035,9.909,9.8167,9.78,9.8159,9.9695,9.9396,9.8517,10.0477,10.1527,10.1917,10.198,10.3773,10.4992,10.4713,10.408,10.4198,10.4315,10.4898,10.4898,10.4898,10.4432,10.4109,10.4728,10.545,10.5336,11.008,11.2369,11.3823,11.6942,11.8847,12.0113,12.1371,12.1879,12.2507,12.2615,12.2499,12.2615,12.2441,12.2441,12.2441,12.2557,12.2728,12.2902,12.3481,12.3826,12.4163,12.5499,12.7469,12.9333,13.3753,13.8883,14.3342,14.5977,14.642,14.642,14.6888,14.7167,14.7102,14.714,14.6849,14.595,14.701,14.7342,14.7004,14.6685,14.6075,14.4725,14.3732,14.3486,14.5223,14.8979,15.136,15.1946,15.2764,15.4466,15.6439,15.9596,16.1568,16.3278,16.4067,16.4264,16.4593,16.4725,16.5777,16.6737,16.722,16.8134,17.0145,17.1487,17.2598,17.3306,17.3675,17.4179,17.431,17.5182,17.6025,17.6732,17.7739,17.9218,18.0525,18.2566,18.5002,18.7636,18.8239,18.6964,18.6004,18.5645,18.4807,18.3134,18.3342,18.4842,18.6129,18.7356,18.8242,10.2461,9.9539,9.9534,9.9264,9.9011,9.9789,10.026,10.0801,10.239,10.3464,10.4125,10.4811,10.5751,10.6791,10.7017,10.695,10.7117,10.761,10.7883,10.7938,10.8447,10.7657,10.7016,10.8749,11.0106,10.9827,11.3356,11.4991,11.5898,11.8344,12.0393,12.0786,12.1234,12.151,12.0696,12.0521,12.0812,12.087,12.1219,12.1627,12.1801,12.2208,12.2728,12.2902,12.4252,12.5565,12.6319,12.8397,13.1353,13.4786,13.8148,14.188,14.5295,14.6514,14.6795,14.6795,14.7075,14.7102,14.7102,14.714,14.7226,14.7711,14.9144,14.9883,15.0481,15.1272,15.0885,14.9789,14.8923,14.8413,14.9046,15.2402,15.3155,15.3217,15.4729,15.6571,15.8083,15.9859,16.1963,16.4067,16.5251,16.5119,16.4922,16.4725,16.5684,16.7748,16.8229,17.0217,17.2061,17.3909,17.4816,17.5051,17.5521,17.5891,17.5983,17.6451,17.723,17.8204,17.9151,18.0469,18.2256,18.474,18.7145,18.8804,19.027,18.84,18.6897,18.6718,18.6279,18.538,18.5402,18.6357,18.7276,18.8021,18.8677,10.4529,10.0237,10.0887,10.073,10.0237,10.0124,10.1077,10.2557,10.383,10.4544,10.5147,10.6601,10.7115,10.7277,10.8303,10.9414,10.9376,11.0269,11.1438,11.1603,11.2692,11.1223,11.0456,11.2851,11.3891,11.3279,11.5371,11.6736,11.7305,11.8673,12.0146,12.0828,12.1229,12.0638,12.0056,12.0289,11.9649,11.9823,12.0696,12.1336,12.1568,12.2208,12.2728,12.284,12.4055,12.596,12.7881,13.057,13.4627,13.8924,14.1621,14.3264,14.5467,14.6626,14.7009,14.7009,14.7102,14.7102,14.7102,14.7167,14.7693,14.8623,14.9776,15.177,15.3217,15.4108,15.4469,15.4138,15.3743,15.283,15.2761,15.404,15.5058,15.5321,15.6571,15.8543,16.0582,16.124,16.262,16.433,16.5185,16.5054,16.5054,16.5863,16.7473,16.8428,17.0381,17.2534,17.4447,17.636,17.6726,17.6487,17.6992,17.7355,17.7437,17.7834,17.8792,17.9869,18.0648,18.1864,18.4045,18.639,18.7485,18.9173,19.1014,19.0247,18.8365,18.7977,18.7391,18.7632,18.7716,18.7716,18.7795,18.8459,18.9106,10.5715,10.5072,10.399,10.4214,10.4806,10.5023,10.4255,10.4216,10.5063,10.4674,10.3713,10.5148,10.6254,10.6197,10.7488,10.8511,10.9634,11.0176,11.1129,11.2077,11.2521,11.2958,11.2317,11.465,11.4478,11.3695,11.5591,11.6618,11.747,11.8835,12.0324,12.1242,12.2038,12.215,12.1336,12.1685,12.2092,12.1685,12.1854,12.2029,12.2145,12.2548,12.3005,12.3228,12.3834,12.5464,12.8924,13.2592,13.666,14.1589,14.3226,14.4119,14.5011,14.6483,14.7036,14.7102,14.7102,14.7102,14.7102,14.7233,14.743,14.7759,14.9009,15.0324,15.1902,15.3414,15.4269,15.4269,15.3809,15.4598,15.5453,15.7754,15.8346,15.7754,15.782,16.0056,16.2818,16.4067,16.4659,16.6237,16.6539,16.65,16.739,16.9286,17.1598,17.1797,17.428,17.6107,17.7687,17.9011,17.9038,17.8479,17.8547,17.8915,17.9132,17.9347,18.037,18.196,18.2939,18.3444,18.5695,18.7219,18.8084,18.8719,18.9826,18.9783,18.8869,18.8512,18.8005,18.8013,18.8013,18.8087,18.809,18.8749,18.9177,10.6141,10.4787,10.4279,10.4335,10.4787,10.4843,10.5,10.521,10.5723,10.5289,10.4707,10.5498,10.5624,10.5424,10.65,10.7616,10.8497,10.939,11.0734,11.1919,11.2033,11.286,11.4082,11.4757,11.4824,11.3887,11.5131,11.6292,11.7509,11.8584,11.9847,12.1002,12.1399,12.1103,12.0754,12.0405,12.0347,12.069,12.1435,12.2006,12.2123,12.304,12.3996,12.5246,12.557,12.744,13.1489,13.5385,13.852,14.0703,14.19,14.3107,14.48,14.5655,14.6247,14.7102,14.7102,14.7102,14.7299,14.8022,14.8022,14.7759,14.9469,15.0784,15.1705,15.2954,15.4795,15.5847,15.6176,15.6965,15.8215,15.9398,15.9793,15.9661,16.0779,16.2884,16.5382,16.5054,16.5317,16.6588,16.7847,16.8693,16.7625,17.1872,17.3987,17.5385,17.7826,17.9428,18.0622,18.1373,18.1712,18.0778,18.0459,18.1138,18.1652,18.1518,18.2311,18.4713,18.5602,18.5041,18.6773,18.8365,18.8623,18.8557,18.9075,18.9226,18.8655,18.8155,18.8013,18.8013,18.8013,18.8087,18.8385,18.8821,18.9177,10.5793,10.4257,10.4201,10.4303,10.4404,10.4404,10.4868,10.5558,10.5614,10.5558,10.5614,10.5614,10.5356,10.5126,10.6038,10.6869,10.769,10.8698,11.0041,11.1389,11.1066,11.1944,11.3554,11.4181,11.432,11.4352,11.4795,11.583,11.7427,11.8036,11.9184,12.0638,12.0812,12.0463,11.994,12.0114,11.9765,12.0159,12.1415,12.2102,12.2607,12.4248,12.5772,12.6939,12.7381,12.9622,13.3128,13.5934,13.8086,13.9954,14.046,14.1775,14.3551,14.4668,14.5523,14.6378,14.6838,14.7102,14.743,14.8548,14.8877,14.8154,14.9666,15.1376,15.2033,15.3217,15.5058,15.736,15.8478,15.9135,16.0319,16.0779,16.1042,16.1437,16.2949,16.4791,16.604,16.5618,16.5769,16.8009,17.0092,17.1162,17.221,17.5265,17.8352,17.854,18.0268,18.2327,18.2924,18.3599,18.4261,18.3265,18.2629,18.3463,18.3904,18.3669,18.4532,18.6905,18.719,18.642,18.7539,18.8643,18.8508,18.8369,18.8726,18.8797,18.8298,18.8013,18.8013,18.8013,18.8087,18.809,18.8458,18.8892,18.9177,10.4472,10.4709,10.481,10.4955,10.5357,10.5357,10.517,10.498,10.4879,10.4936,10.4879,10.5094,10.5227,10.5515,10.5787,10.6417,10.7436,10.8129,10.9126,10.9748,10.9879,11.014,11.1506,11.2553,11.3554,11.4483,11.4716,11.5635,11.6982,11.7148,11.8195,12.0463,12.0754,12.1161,12.2246,12.249,12.2701,12.3356,12.354,12.4038,12.4644,12.6427,12.7027,12.6019,12.7785,12.9854,13.2169,13.3351,13.5181,13.8334,14.0,14.0723,14.1512,14.3616,14.4931,14.5326,14.6444,14.697,14.743,14.8614,14.9272,14.8943,14.9535,15.0652,15.2757,15.3414,15.4795,15.7886,15.907,16.045,16.1766,16.2029,16.2686,16.387,16.4199,16.5054,16.6473,16.6033,16.7488,17.0826,17.2908,17.4165,17.7023,18.0736,18.221,18.2334,18.4302,18.522,18.5644,18.5644,18.6271,18.5733,18.4795,18.52,18.5361,18.5264,18.579,18.7418,18.7641,18.7413,18.8005,18.8223,18.8084,18.8084,18.8155,18.8155,18.8013,18.8013,18.8013,18.8087,18.8164,18.8238,18.8531,18.8964,18.9319,10.5797,10.5314,10.5257,10.5357,10.5558,10.5558,10.5458,10.5257,10.5257,10.5257,10.5257,10.5257,10.5558,10.6072,10.6172,10.6659,10.7304,10.7561,10.795,10.8298,10.8888,10.9412,10.9935,11.1157,11.2436,11.36,11.4472,11.5577,11.6741,11.6857,11.8137,12.0289,12.0696,12.2102,12.4851,12.5137,12.62,12.7825,12.8241,12.855,12.9023,12.9939,13.0455,13.0432,13.1036,13.2498,13.4438,13.4858,13.6104,13.8159,13.9079,13.9868,14.0789,14.2564,14.4077,14.4997,14.6247,14.7102,14.7299,14.8614,14.914,14.8417,14.8943,15.0389,15.1902,15.2428,15.4664,15.8215,15.9135,16.0122,16.2752,16.2949,16.3015,16.433,16.4462,16.4725,16.5185,16.6099,16.859,17.2406,17.5437,17.7473,17.9863,18.3187,18.5697,18.4753,18.6326,18.7418,18.7418,18.7565,18.749,18.7266,18.6733,18.6584,18.681,18.6888,18.719,18.7641,18.8013,18.8013,18.8013,18.8013,18.8013,18.8013,18.8013,18.8013,18.7941,18.7941,18.8161,18.8238,18.8385,18.8604,18.9035,18.9319,18.9531,10.6518,10.5815,10.5815,10.5915,10.6057,10.6114,10.6015,10.5915,10.5815,10.5915,10.5915,10.5915,10.6114,10.6726,10.6767,10.7022,10.7259,10.7318,10.7318,10.7492,10.819,10.8597,10.883,10.9819,11.0924,11.1913,11.3483,11.4937,11.5984,11.6159,11.7974,12.0512,12.1197,12.3365,12.7286,12.7617,12.8592,13.0718,13.1214,13.1573,13.1769,13.2709,13.2967,13.2882,13.3797,13.4923,13.6297,13.6449,13.7172,13.8553,13.8619,13.9079,14.0197,14.1841,14.3288,14.4405,14.6049,14.7102,14.7299,14.8482,14.9009,14.8351,14.8811,15.0258,15.1902,15.2362,15.4532,15.8412,15.9201,15.9924,16.2818,16.2884,16.3358,16.5121,16.5523,16.5589,16.5344,16.6143,16.9293,17.3689,17.7389,18.0265,18.2633,18.4882,18.7289,18.6576,18.715,18.7941,18.7867,18.7867,18.8013,18.8013,18.8013,18.7716,18.7494,18.7418,18.7641,18.7792,18.8013,18.8013,18.8013,18.8013,18.8013,18.8013,18.8013,18.8013,18.7941,18.809,18.8238,18.8458,18.8891,18.9322,18.9601,18.9737,18.9878,10.6072,10.647,10.6528,10.6866,10.7259,10.7161,10.7022,10.6569,10.6528,10.6528,10.6528,10.6528,10.6825,10.7161,10.7219,10.7318,10.7532,10.7612,10.7709,10.7728,10.7728,10.7728,10.7689,10.8854,10.9353,10.9877,11.1913,11.3658,11.5311,11.5707,11.7974,12.1376,12.239,12.5103,12.9916,13.0017,13.0519,13.1706,13.216,13.216,13.2515,13.4488,13.4352,13.2365,13.4753,13.6342,13.6317,13.6449,13.7238,13.8421,13.8619,13.8619,13.9145,14.1381,14.2893,14.3419,14.5523,14.697,14.7299,14.8417,14.9009,14.9009,14.9272,15.0389,15.2625,15.3349,15.4664,15.7689,15.907,16.0683,16.2101,16.2769,16.3903,16.6683,16.7601,16.7151,16.6094,16.6025,16.8876,17.4831,17.7987,18.2035,18.6017,18.7356,18.7431,18.751,18.787,18.8013,18.8013,18.8013,18.8013,18.8013,18.8013,18.8013,18.8013,18.8013,18.8013,18.8013,18.8013,18.8013,18.8013,18.8013,18.8013,18.8013,18.8013,18.8164,18.8164,18.8957,18.9032,18.9466,18.9609,19.0037,19.0318,19.0595,19.0516,10.7063,10.7553,10.7944,10.8235,10.8332,10.7944,10.7749,10.7553,10.7161,10.6964,10.7063,10.6964,10.7063,10.7259,10.7318,10.7725,10.8621,10.9012,10.9589,11.03,10.953,10.9115,10.9042,10.8295,10.8772,11.0443,11.1331,11.3548,11.6659,11.793,12.0556,12.4451,12.553,12.8383,13.2204,13.2968,13.4172,13.5879,13.6282,13.6308,13.6555,13.725,13.6692,13.5407,13.676,13.704,13.5133,13.6909,13.8158,13.8553,13.8619,13.8619,13.8882,14.1315,14.2827,14.3025,14.4668,14.6115,14.697,14.6707,14.6904,14.7759,14.8022,14.914,15.1902,15.2296,15.4269,15.6768,15.782,15.9502,16.2899,16.4757,16.6078,16.8004,16.8631,16.8436,16.7861,16.7187,16.8614,17.1749,17.5009,17.9415,18.4383,18.4894,18.5811,18.7795,18.8013,18.8013,18.8013,18.8013,18.8013,18.8013,18.8013,18.8013,18.8013,18.8013,18.8013,18.8013,18.8013,18.8013,18.8013,18.8013,18.8013,18.8087,18.809,18.8312,18.8816,18.9752,19.0471,19.1044,19.1329,19.147,19.1391,19.1526,19.0945,10.7846,10.8428,10.8718,10.891,10.8814,10.8525,10.8235,10.8041,10.7749,10.7514,10.7416,10.7259,10.7318,10.7259,10.7456,10.8451,11.0107,11.042,11.1357,11.2611,11.2461,11.2187,11.197,11.1002,11.1257,11.2431,11.2927,11.5502,11.9514,12.0741,12.3472,12.7135,12.868,13.1352,13.4913,13.5695,13.658,13.8378,13.8619,13.8619,13.8444,13.8619,13.7895,13.658,13.7369,13.6975,13.5133,13.7369,13.8619,13.8619,13.8619,13.8619,13.8816,14.0328,14.1709,14.2827,14.4208,14.5655,14.6707,14.5852,14.5655,14.7155,14.7445,14.8974,15.2122,15.3011,15.4445,15.746,15.7945,16.0114,16.4856,16.7498,16.9143,17.061,17.1166,17.1089,17.0106,16.9503,16.9511,17.1194,17.3767,17.812,18.3126,18.3831,18.4258,18.7209,18.8013,18.8013,18.8013,18.8013,18.8013,18.8013,18.8013,18.8013,18.8013,18.8013,18.8013,18.8013,18.8013,18.8013,18.8013,18.8013,18.809,18.8164,18.8312,18.8531,18.8963,18.9968,19.1619,19.2264,19.3336,19.3332,19.2818,19.2312,19.1518,10.8428,10.8814,10.891,10.891,10.891,10.891,10.8621,10.8138,10.8041,10.7749,10.7259,10.7318,10.7358,10.7456,10.8138,10.9519,11.1518,11.1855,11.3092,11.4856,11.5929,11.6313,11.5901,11.5901,11.5664,11.5458,11.6313,11.8828,12.2614,12.3459,12.6174,13.094,13.1509,13.3736,13.7144,13.7672,13.8026,13.8531,13.8619,13.8619,13.8619,13.8619,13.7895,13.6383,13.6449,13.6383,13.6186,13.7632,13.8487,13.8487,13.8553,13.8619,13.8619,13.8684,14.0,14.2433,14.4077,14.5615,14.6799,14.6035,14.5929,14.7614,14.8375,15.034,15.4525,15.5307,15.6547,15.9018,16.0738,16.2976,16.6659,16.9929,17.274,17.4,17.4789,17.4001,17.2231,17.2115,17.3066,17.4198,17.5779,17.8856,18.3573,18.3679,18.4698,18.7205,18.8155,18.8227,18.8298,18.8227,18.8155,18.8084,18.8013,18.8013,18.8013,18.8013,18.8013,18.8013,18.8013,18.8013,18.8013,18.8087,18.8238,18.8385,18.8318,18.8606,18.9251,19.0254,19.1545,19.2836,19.369,19.3687,19.2236,19.2381,19.1947,10.891,10.9388,10.9388,10.9674,10.9958,10.9579,10.9102,10.8621,10.8235,10.7749,10.7358,10.7318,10.7651,10.8621,10.9968,11.1477,11.3071,11.4758,11.6881,11.9055,11.8721,11.9101,11.9727,11.8227,11.7729,11.8411,11.8626,11.9731,12.1858,12.5339,12.9096,13.2405,13.4908,13.677,13.8203,13.8356,13.8444,13.8619,13.8619,13.8619,13.8619,13.8619,13.7435,13.5265,13.5857,13.5397,13.3424,13.5725,13.704,13.704,13.8027,13.8619,13.8619,13.8619,13.9408,14.1183,14.3054,14.526,14.8044,14.6942,14.6899,14.8471,15.0739,15.2995,15.5287,15.7618,15.9134,16.0088,16.3632,16.5694,16.686,17.1387,17.4734,17.545,17.5685,17.548,17.4464,17.3143,17.3298,17.4599,17.6502,17.8078,17.9676,18.1832,18.4682,18.8638,18.9582,18.9654,18.9654,18.9582,18.9226,18.8155,18.8013,18.8013,18.8013,18.8013,18.8013,18.8013,18.8013,18.8013,18.8013,18.8238,18.8531,18.8175,18.7742,18.7951,18.8737,18.8584,18.9289,19.0945,19.2312,19.2742,19.1442,19.2087,19.1726,10.9483,10.9958,10.9958,11.0147,11.0335,11.0052,10.9674,10.9197,10.8814,10.8428,10.8041,10.8696,10.9555,11.0343,11.2158,11.3963,11.5592,11.699,11.9297,12.1805,12.2034,12.2532,12.3591,12.2377,12.1912,12.2406,12.1635,12.1898,12.3744,12.7007,13.0316,13.3144,13.5647,13.7262,13.7764,13.8356,13.8619,13.8619,13.8619,13.8619,13.8553,13.8093,13.6646,13.4673,13.5133,13.441,13.2569,13.487,13.6449,13.6514,13.741,13.8221,13.8748,13.8459,13.9074,14.1207,14.299,14.5308,14.8429,14.7389,14.7278,14.883,15.125,15.3726,15.5919,15.828,15.9951,16.1026,16.5278,16.788,16.7555,17.229,17.6242,17.6955,17.702,17.6814,17.6543,17.6069,17.6084,17.6886,17.8398,17.9356,17.933,18.1712,18.553,18.9132,19.0296,19.0225,19.0296,19.0867,19.0225,18.8655,18.8512,18.8869,18.894,18.8512,18.8087,18.809,18.809,18.8164,18.8169,18.8246,18.7745,18.7959,18.6875,18.6787,18.7928,18.7625,18.8264,19.007,19.1442,19.2164,19.0575,19.0898,19.0819,11.0335,11.0617,11.0523,11.0429,11.0429,11.0429,11.0147,10.9674,10.9579,10.9483,10.9839,11.1212,11.2249,11.288,11.4559,11.6442,11.8369,11.8709,12.0561,12.3523,12.5007,12.6083,12.6924,12.6973,12.6744,12.5923,12.4653,12.4683,12.6045,12.7511,13.0016,13.3119,13.4992,13.6038,13.6383,13.7632,13.8356,13.8421,13.8553,13.8619,13.8553,13.7304,13.5923,13.4344,13.4344,13.3555,13.1929,13.4626,13.6159,13.633,13.6867,13.7745,13.8992,13.8365,13.9065,14.1655,14.3269,14.5262,14.7721,14.7278,14.7631,14.9472,15.1342,15.3784,15.6914,15.8062,15.9283,16.1677,16.5839,16.8547,16.922,17.3228,17.6597,17.8023,17.8309,17.8303,17.8063,17.9306,18.0219,18.0146,18.1171,18.204,18.1528,18.3623,18.6617,18.9503,19.0296,19.0795,19.0867,19.1866,19.1794,18.944,18.9725,19.0653,19.0367,18.9226,18.8807,18.8816,18.8452,18.817,18.8104,18.7387,18.6383,18.68,18.5775,18.5117,18.5749,18.6314,18.7753,18.9102,19.0463,19.1561,19.0529,18.9834,18.9217,11.2432,11.2341,11.1023,11.0429,11.0429,11.0429,11.0147,10.9674,10.9674,11.1425,11.4096,11.4708,11.4969,11.5228,11.7007,11.8061,11.8709,11.9967,12.2251,12.4941,12.5467,12.6242,12.7476,12.7283,12.645,12.5323,12.4591,12.4948,12.6184,12.6722,12.8517,13.1896,13.4877,13.5771,13.487,13.6186,13.6909,13.6975,13.8027,13.8619,13.8619,13.829,13.6909,13.4542,13.4279,13.3262,13.1219,13.2605,13.4283,13.5651,13.69,13.8151,13.9503,13.9465,13.9729,14.0544,14.2129,14.3498,14.4232,14.6244,14.8844,15.1627,15.439,15.6641,15.8451,15.7806,15.8297,16.1403,16.4885,16.8011,17.0481,17.389,17.6739,17.8237,17.8451,17.8232,17.8148,17.8321,17.9428,18.1715,18.2406,18.3598,18.5641,18.69,18.7561,18.8651,19.0653,19.2008,19.2294,19.3435,19.3079,19.1295,19.2151,19.3221,19.2222,19.1022,19.0316,19.0247,18.9464,18.839,18.7456,18.7234,18.665,18.5491,18.4324,18.4017,18.5015,18.487,18.5396,18.7518,18.8502,18.8792,18.9054,18.9099,18.8455,11.4546,11.329,11.3025,11.2912,11.2974,11.2912,11.2732,11.2522,11.3836,11.5777,11.774,11.7962,11.8212,11.8482,11.9594,12.0527,12.1415,12.2409,12.4222,12.6771,12.6823,12.7139,12.7637,12.7461,12.6658,12.5267,12.4307,12.4619,12.6008,12.673,12.8262,13.0749,13.3243,13.4438,13.4495,13.6383,13.7435,13.7435,13.8318,13.8389,13.764,13.7136,13.556,13.2769,13.3206,13.2144,12.9525,13.1556,13.325,13.419,13.5348,13.7061,13.9441,13.9921,14.0577,14.1499,14.3269,14.4229,14.4161,14.5955,14.7921,15.033,15.3274,15.5929,15.8132,15.8685,15.939,16.0465,16.417,16.7497,17.0021,17.2474,17.4884,17.7096,17.7381,17.7596,17.8141,17.8842,18.0046,18.1604,18.2602,18.3687,18.5655,18.6443,18.6942,18.7156,18.9582,19.1509,19.158,19.3435,19.4292,19.2936,19.3792,19.4511,19.4022,19.2319,19.1255,19.1404,18.9537,18.7883,18.7439,18.5571,18.491,18.4107,18.2935,18.2559,18.2993,18.2559,18.3775,18.6049,18.7131,18.759,18.8445,18.8757,18.82,11.6864,11.4819,11.583,11.6461,11.6651,11.6651,11.6565,11.6754,11.9694,12.0881,12.0968,12.128,12.1667,12.2006,12.2453,12.3357,12.4587,12.4786,12.6094,12.809,12.8209,12.8103,12.7717,12.7586,12.681,12.5518,12.4134,12.4288,12.593,12.7219,12.8765,13.0379,13.1582,13.325,13.5149,13.7781,13.8756,13.8094,13.8268,13.7726,13.6284,13.5393,13.3651,13.108,13.2061,13.1305,12.8416,13.1134,13.2848,13.3152,13.3863,13.5811,13.9276,13.9834,14.0811,14.2616,14.374,14.4639,14.4973,14.5417,14.6205,14.7905,15.0868,15.3847,15.6524,15.9396,16.0655,15.9961,16.3584,16.6997,16.8771,17.0556,17.2815,17.5312,17.5954,17.6596,17.7881,17.945,18.0519,18.1019,18.2162,18.3018,18.3589,18.4516,18.5373,18.6015,18.8227,19.0082,19.0724,19.2793,19.4506,19.4934,19.5225,19.5522,19.5541,19.333,19.2049,19.2261,18.9387,18.7082,18.7125,18.4895,18.3098,18.2783,18.1765,18.1043,18.0971,18.1026,18.3131,18.6078,18.7595,18.8032,18.8693,18.8888,18.8647,11.9838,12.034,11.9057,11.9233,12.0336,12.0336,12.0165,12.012,12.3614,0.0,0.0,12.5046,12.523,12.5308,12.5874,12.5517,12.4653,12.5925,12.6712,12.7089,12.7825,12.8262,12.8117,12.6678,12.5841,12.5459,12.413,12.4783,12.727,12.7617,12.9187,13.1921,13.233,13.4582,13.8824,14.0737,13.9707,13.5934,13.5759,13.5632,13.5355,13.5214,13.4042,13.2123,13.3337,13.2721,13.0145,13.157,13.323,13.4914,13.5293,13.6878,14.0022,13.9223,13.881,13.9225,13.8326,13.8875,14.1425,14.3892,14.6024,14.7768,15.1835,15.4548,15.5091,15.6831,15.8885,16.1191,16.3392,16.588,16.8774,17.0467,17.2244,17.4028,17.5383,17.6168,17.6596,17.7952,17.9522,18.0735,18.1163,18.1805,18.2947,18.3446,18.416,18.5515,18.7228,18.8797,19.0225,19.1866,19.3435,19.4797,19.6242,19.733,19.7125,19.5205,19.3918,19.3628,19.0307,18.727,18.596,18.4227,18.2639,18.1621,18.1043,18.0818,18.0954,18.2478,18.469,18.6228,18.8324,18.981,18.9505,18.9406,18.926,12.2442,12.1182,12.2513,12.3043,0.0,12.3825,12.6716,13.0979,13.18,13.1112,12.9148,12.7784,12.7519,12.7918,12.7407,12.7302,12.7529,12.8264,12.9235,13.0432,13.0877,13.0726,12.9694,12.8072,12.6832,12.6083,12.4601,12.4964,12.6997,12.8539,13.0511,13.2855,13.3616,13.5968,13.9845,13.9155,13.8327,13.7571,13.7565,13.6797,13.5198,13.3923,13.2837,13.2015,13.3142,0.0,0.0,0.0,0.0,0.0,0.0,0.0,0.0,0.0,0.0,13.8463,13.6302,13.5641,13.7173,13.8735,14.0608,14.3102,14.6776,14.9642,15.1365,15.5026,15.7912,15.9461,16.1781,16.445,16.7539,16.8605,17.0032,17.2387,17.4028,17.5312,17.6097,17.7524,17.8737,17.9522,17.9736,17.995,18.0735,18.152,18.2447,18.3303,18.5943,18.8512,19.001,19.1161,19.2311,19.3884,19.6261,19.8,19.7217,19.5645,19.4204,19.319,19.0295,18.747,18.5737,18.4148,18.2632,18.1179,18.1177,18.1534,18.1727,18.3026,18.4958,18.6844,18.831,18.8951,18.848,18.8365,18.8589,12.5006,12.2886,12.6216,12.7495,12.7456,12.8395,13.3184,14.0124,13.8465,13.5965,13.3132,13.0516,12.9685,13.0365,12.9565,12.9995,13.1026,13.1296,13.235,13.4033,13.4234,13.3545,13.2034,13.0128,12.8704,12.7689,12.5986,12.5832,12.724,12.9605,13.1614,13.3217,13.463,13.6944,13.9818,0.0,0.0,0.0,13.8688,13.7127,13.4643,13.2562,13.1594,13.1958,13.2786,0.0,13.0153,13.3699,13.4662,13.2403,13.482,0.0,0.0,0.0,0.0,0.0,0.0,0.0,0.0,0.0,0.0,0.0,14.0371,14.3225,14.7159,15.2732,15.6185,15.6485,15.9398,16.2255,16.4752,16.5537,16.7035,16.9818,17.1816,17.3671,17.5455,17.6739,17.7667,17.7952,17.7952,17.8023,17.8166,17.945,18.0735,18.1734,18.473,18.7656,18.9661,19.0888,19.1898,19.3189,19.5201,19.6503,19.5573,19.3916,19.2397,19.1666,18.9203,18.6892,18.5297,18.3981,18.2871,18.1414,18.1938,18.2594,18.2667,18.373,18.5392,18.7108,18.7932,18.7968,18.6948,18.7169,18.8066,12.7685,13.0535,13.0011,13.2613,13.7083,13.591,13.6601,13.8603,13.7014,13.5845,13.5086,13.3644,13.3095,13.33,13.4809,13.4942,13.411,13.5287,13.5285,13.445,13.5359,13.5706,13.5293,13.2132,13.1083,13.2032,12.9248,12.8715,13.0007,13.0512,13.1599,13.3507,13.4997,13.7453,14.0453,13.6302,13.4991,13.6673,13.4035,13.2466,13.2039,13.1719,13.2129,13.3207,13.3087,13.3469,13.4389,13.4867,13.4937,13.4871,13.5211,13.5665,13.6002,13.2378,12.9563,0.0,12.4174,0.0,0.0,0.0,0.0,0.0,0.0,0.0,0.0,14.8458,15.1788,15.3233,15.6208,15.8187,15.8616,16.1113,16.3396,16.518,16.7963,17.0888,17.3602,17.4313,17.4955,17.624,17.6382,17.6382,17.6525,17.7809,17.995,18.2447,18.366,18.5234,18.8243,19.1113,19.3054,19.3627,19.2983,19.2409,19.111,18.9654,18.8847,18.8342,18.7031,18.5231,18.3852,18.4014,18.3935,18.2579,18.2905,18.3568,18.3693,18.5609,18.6886,18.5946,18.7493,18.8106,18.6011,18.7019,18.9636,12.9898,13.1039,13.2943,13.6213,13.9993,13.954,14.0478,14.2275,14.0547,13.9277,13.8157,13.5994,13.4206,13.2997,13.5546,13.582,13.4641,13.686,13.76,13.6911,13.735,13.7635,13.7496,13.5198,13.3919,13.3568,13.1393,13.0684,13.115,13.1132,13.204,13.3714,13.448,13.5104,13.5712,13.5533,13.6105,13.7495,13.5355,13.4142,13.4142,13.3357,13.4017,13.6207,13.6168,13.6042,13.5829,13.7033,13.6996,13.5383,13.5678,13.4775,13.2109,12.8342,12.4652,0.0,0.0,0.0,0.0,0.0,0.0,0.0,0.0,0.0,0.0,0.0,14.3787,14.6444,15.0134,15.2077,15.1219,15.4792,15.7856,15.9481,16.2549,16.4911,16.6278,16.9366,17.1439,17.1496,17.3448,17.5239,17.6306,17.7664,17.9664,18.2875,18.2735,18.3164,18.5811,18.8459,19.0108,19.018,19.0534,19.067,19.0087,18.8708,18.7542,18.6742,18.6393,18.5807,18.427,18.4836,18.4661,18.2439,18.2717,18.3159,18.2317,18.3578,18.4516,18.4071,18.538,18.6122,18.4925,18.5823,18.7318,13.2143,13.1403,13.1071,13.3119,13.6425,13.664,13.9016,14.2576,14.098,13.9353,13.7818,13.5503,13.2554,12.9386,13.1813,13.3002,13.3298,13.6079,13.805,13.9257,13.9328,13.9046,13.8693,13.7681,13.6068,13.4102,13.2663,13.1891,13.1677,13.0963,13.1392,13.282,13.2177,13.1392,13.0709,13.31,13.5317,13.7087,13.6194,13.5765,13.5748,13.5174,13.578,13.7802,13.7995,13.7741,13.6932,13.841,13.8076,13.5735,13.5385,13.3014,12.8017,12.3619,0.0,0.0,0.0,0.0,0.0,0.0,0.0,0.0,0.0,12.0874,12.5798,0.0,13.5876,0.0,14.3085,14.5355,14.4552,14.8363,0.0,0.0,15.6283,15.821,15.8941,16.3137,16.5801,16.5558,16.8978,17.215,17.4287,17.6301,17.8734,18.202,18.2086,18.2146,18.3277,18.5194,18.6326,18.617,18.6938,18.7857,18.743,18.6577,18.5412,18.4817,18.5857,18.625,18.4771,18.5672,18.5716,18.3106,18.3253,18.3554,18.2554,18.2767,18.317,18.2383,18.3131,18.4028,18.4028,18.4402,18.5224,13.4841,13.4514,12.0509,11.8113,12.351,12.3582,12.7863,13.4641,13.3214,13.1697,13.0321,12.99,12.665,12.1489,12.1844,0.0,12.988,13.1852,13.5533,14.0752,14.0752,14.0039,13.8614,13.8471,13.6832,13.391,13.2606,13.2027,13.1771,12.9123,12.8479,12.991,12.6998,12.6309,12.7721,12.7884,12.9509,13.2863,13.3763,13.4248,13.4511,13.6282,13.675,13.5619,13.6368,13.7397,13.8664,13.7587,13.68,13.6508,13.3493,12.9653,12.4697,0.0,0.0,0.0,0.0,0.0,0.0,0.0,0.0,0.0,0.0,0.0,0.0,0.0,0.0,13.1149,13.529,0.0,13.975,14.2835,0.0,0.0,0.0,15.1452,15.4352,15.5201,15.6529,15.9033,0.0,0.0,16.8151,17.2129,17.5998,17.9754,18.1735,18.2422,18.137,18.2833,18.3723,18.2586,18.1574,18.0817,18.1106,18.0432,18.0577,18.2128,18.4626,18.5459,18.431,18.5831,18.6946,18.503,18.6077,18.6611,18.6611,18.605,18.5823,18.2458,18.2158,18.2233,18.2158,18.3131,18.4477,12.1904,11.5947,10.9913,10.8783,11.1,11.1028,11.6078,12.4111,12.3394,12.3323,12.373,12.1799,11.7573,11.1856,11.0235,0.0,0.0,0.0,12.9517,13.438,13.5174,13.6604,13.8494,13.7638,13.5623,13.2781,13.217,13.1035,12.925,12.7956,12.4996,12.044,0.0,11.887,12.2269,12.6013,12.9469,13.2443,13.5112,13.6075,13.5161,13.6559,13.7397,13.7701,13.9046,13.9541,13.8958,13.7056,13.5066,13.3085,12.8461,12.2677,0.0,0.0,0.0,0.0,0.0,0.0,0.0,0.0,0.0,0.0,0.0,10.582,10.9592,0.0,0.0,0.0,12.2312,12.4254,12.9606,13.4609,0.0,0.0,0.0,0.0,0.0,0.0,0.0,15.0627,15.5857,16.1139,16.6121,16.751,16.9423,17.3271,17.5261,17.6154,17.6045,0.0,18.0073,17.9906,17.9156,17.8679,17.881,17.6889,17.5992,17.7969,18.0625,18.2281,18.2066,18.4182,18.4928,18.3065,18.4036,18.5075,18.3131,18.1859,18.0738,17.9466,17.842,17.7747,17.7672,17.8195,17.8868,10.4297,0.0,0.0,0.0,0.0,9.7026,10.2224,11.051,11.0213,11.0971,11.2231,11.0337,0.0,0.0,0.0,0.0,0.0,0.0,12.1693,12.6094,13.0104,13.2853,13.4552,13.4391,13.2567,12.9388,12.9035,12.7579,12.5083,12.2377,11.7687,11.1279,0.0,0.0,0.0,0.0,12.8585,13.1962,13.633,13.8328,13.7612,13.7695,13.862,14.0275,14.085,14.0081,13.786,13.5232,13.2531,12.9691,12.3116,0.0,0.0,0.0,0.0,0.0,0.0,0.0,0.0,0.0,0.0,0.0,0.0,0.0,0.0,0.0,0.0,0.0,0.0,0.0,12.0982,12.7206,13.0733,0.0,0.0,0.0,0.0,0.0,0.0,0.0,0.0,0.0,15.9372,16.0855,16.3178,0.0,0.0,17.1565,17.1949,17.4343,17.6038,17.606,17.5805,0.0,17.5325,17.3357,17.2345,17.4003,17.6434,17.8308,17.88,18.0229,18.0467,17.8256,18.0018,18.0018,17.5005,17.3209,17.3134,17.3092,17.1788,17.0665,17.0591,17.0216,17.0216,0.0,0.0,0.0,0.0,8.0892,0.0,0.0,0.0,9.3009,9.3394,0.0,9.5039,0.0,0.0,0.0,0.0,9.6317,10.5258,0.0,0.0,12.6546,12.93,12.5639,12.8214,12.7311,12.3178,12.1909,12.0527,11.8568,11.0263,0.0,0.0,0.0,0.0,0.0,0.0,12.5528,13.0521,13.6499,14.0389,14.206,14.0356,14.0635,14.2904,14.0959,13.8235,13.4958,13.1761,12.9129,12.7124,11.7731,0.0,0.0,0.0,0.0,0.0,0.0,0.0,0.0,0.0,0.0,0.0,0.0,0.0,0.0,0.0,0.0,0.0,0.0,0.0,0.0,12.1347,0.0,0.0,0.0,0.0,0.0,0.0,0.0,0.0,0.0,14.4502,14.5388,15.1457,15.807,16.3579,0.0,0.0,0.0,0.0,17.1895,17.0613,17.0614,17.0067,16.8296,16.8837,16.9932,17.0955,0.0,0.0,17.4864,17.3937,17.2877,17.2926,17.3957,17.1723,16.0605,16.0858,16.2957,16.3032,16.1683,16.0783,16.0708,15.9509,15.9509,0.0,0.0,0.0,0.0,0.0,0.0,0.0,0.0,0.0,7.9954,8.1898,8.0547,0.0,0.0,0.0,0.0,0.0,0.0,0.0,0.0,10.9733,11.4461,11.7646,11.7659,11.6423,11.4203,11.2774,10.8376,0.0,0.0,0.0,0.0,0.0,0.0,0.0,0.0,12.5906,13.088,13.7437,14.0649,14.0205,13.9055,13.9376,14.1138,13.9338,13.6263,13.1844,12.7496,12.2406,0.0,0.0,0.0,0.0,0.0,0.0,0.0,0.0,0.0,0.0,0.0,0.0,0.0,0.0,0.0,0.0,0.0,0.0,0.0,0.0,0.0,0.0,0.0,11.7923,0.0,0.0,0.0,0.0,0.0,0.0,0.0,0.0,0.0,13.5477,14.2277,14.9505,15.596,15.914,16.1714,16.4007,0.0,0.0,0.0,0.0,0.0,0.0,0.0,16.4309,16.4775,16.4514,16.4501,16.5077,16.4054,16.2403,16.0287,0.0,0.0,14.6313,14.5439,14.6943,14.6943,14.7343,14.7643,14.7718,14.8118,14.9169,0.0,0.0,0.0,0.0,0.0,0.0,0.0,0.0,0.0,6.7575,6.996,0.0,0.0,0.0,0.0,0.0,0.0,0.0,0.0,0.0,0.0,0.0,10.6997,10.6921,0.0,0.0,0.0,0.0,0.0,0.0,0.0,0.0,0.0,0.0,0.0,0.0,12.515,13.1541,13.7827,14.1075,14.1044,13.9511,13.9209,14.0146,13.8054,13.4815,13.033,0.0,0.0,0.0,0.0,0.0,0.0,0.0,0.0,0.0,0.0,0.0,0.0,0.0,0.0,0.0,0.0,0.0,0.0,0.0,0.0,0.0,0.0,0.0,0.0,0.0,11.2262,0.0,0.0,0.0,0.0,0.0,0.0,0.0,0.0,0.0,0.0,13.2949,14.0426,14.7489,15.2228,15.6232,15.9532,16.2766,16.4922,0.0,0.0,0.0,0.0,0.0,0.0,0.0,0.0,0.0,0.0,0.0,0.0,0.0,0.0,14.2348,13.1517,13.0877,13.1947,13.1947,0.0,0.0,0.0,0.0,0.0,0.0,0.0,0.0,0.0,0.0,0.0,0.0,0.0,0.0,0.0,5.8042,0.0,0.0,5.6024,0.0,0.0,0.0,0.0,0.0,0.0,0.0,0.0,0.0,0.0,0.0,0.0,0.0,0.0,0.0,0.0,0.0,0.0,0.0,0.0,0.0,0.0,12.3012,13.2473,13.7762,14.1853,14.4742,14.1928,14.0235,14.0059,13.7067,13.3828,13.0434,0.0,0.0,0.0,0.0,0.0,0.0,0.0,0.0,0.0,0.0,0.0,0.0,0.0,0.0,0.0,0.0,0.0,0.0,0.0,0.0,0.0,0.0,0.0,0.0,0.0,0.0,11.2181,11.6845,11.8534,0.0,0.0,0.0,0.0,0.0,0.0,0.0,0.0,0.0,13.8593,14.7599,15.4291,15.6615,15.9847,16.1797,16.1703,16.1669,16.1222,15.9656,15.8017,15.6508,0.0,0.0,0.0,0.0,0.0,0.0,0.0,0.0,0.0,0.0,0.0,0.0,0.0,0.0,0.0,0.0,0.0,0.0,0.0,0.0,0.0,0.0,0.0,0.0,0.0,0.0,0.0,0.0,0.0,0.0,0.0,0.0,0.0,0.0,0.0,0.0,0.0,0.0,0.0,0.0,0.0,0.0,0.0,0.0,0.0,0.0,0.0,0.0,0.0,0.0,0.0,0.0,0.0,0.0,12.219,12.9583,13.6873,14.1043,14.1939,13.9817,13.8144,13.6918,13.4824,13.1135,0.0,0.0,0.0,0.0,0.0,0.0,0.0,0.0,0.0,0.0,0.0,0.0,0.0,0.0,0.0,0.0,0.0,0.0,0.0,0.0,0.0,0.0,0.0,0.0,0.0,0.0,0.0,0.0,11.3086,11.4603,11.254,0.0,0.0,0.0,0.0,0.0,0.0,0.0,0.0,0.0,0.0,14.5856,14.9991,15.4401,15.6792,15.5535,15.6357,15.6954,15.6506,15.5012,15.3056,15.0492,0.0,0.0,0.0,0.0,0.0,0.0,0.0,0.0,0.0,0.0,0.0,0.0,0.0,0.0,0.0,0.0,0.0,0.0,0.0,0.0,0.0,0.0,0.0,0.0,0.0,0.0,0.0,0.0,0.0,0.0,0.0,0.0,0.0,0.0,0.0,0.0,0.0,0.0,0.0,0.0,0.0,0.0,0.0,0.0,0.0,0.0,0.0,0.0,0.0,0.0,0.0,0.0,0.0,12.0486,12.8222,13.587,14.0045,14.0495,13.8272,13.6848,13.6472,13.2407,12.7742,0.0,0.0,0.0,0.0,0.0,0.0,0.0,0.0,0.0,0.0,0.0,0.0,0.0,0.0,0.0,0.0,0.0,0.0,0.0,0.0,0.0,0.0,0.0,0.0,0.0,0.0,0.0,0.0,10.6546,10.908,10.9176,0.0,0.0,0.0,0.0,0.0,0.0,0.0,0.0,0.0,0.0,13.939,14.4383,14.922,0.0,0.0,15.1661,15.2605,15.3232,15.1304,14.8743,14.5665,13.9292,0.0,0.0,0.0,0.0,0.0,0.0,0.0,0.0,0.0,0.0,0.0,0.0,0.0,0.0,0.0,0.0,0.0,0.0,0.0,0.0,0.0,0.0,0.0,0.0,0.0,0.0,0.0,0.0,0.0,0.0,0.0,0.0,0.0,0.0,0.0,0.0,0.0,0.0,0.0,0.0,0.0,0.0,0.0,0.0,0.0,0.0,0.0,0.0,0.0,0.0,0.0,0.0,11.8428,12.7816,13.4792,13.8992,14.0393,13.7423,13.6474,13.7498,12.9934,12.4138,0.0,0.0,0.0,0.0,0.0,0.0,0.0,0.0,0.0,0.0,0.0,0.0,0.0,0.0,0.0,0.0,0.0,0.0,0.0,0.0,0.0,0.0,0.0,0.0,0.0,0.0,0.0,0.0,0.0,0.0,0.0,0.0,0.0,0.0,0.0,0.0,0.0,0.0,0.0,0.0,0.0,13.45,13.9418,14.4117,14.7111,0.0,14.7084,14.7683,14.933,14.675,14.3586,14.0564,0.0,0.0,0.0,0.0,0.0,0.0,0.0,0.0,0.0,0.0,0.0,0.0,0.0,0.0,0.0,0.0,0.0,0.0,0.0,0.0,0.0,0.0,0.0,0.0,0.0,0.0,0.0,0.0,0.0,0.0,0.0,0.0,0.0,0.0,0.0,0.0,0.0,0.0,0.0,0.0,0.0,0.0,0.0,0.0,0.0,0.0,0.0,0.0,0.0,0.0,0.0,0.0,0.0,0.0,12.4911,13.3909,13.8674,13.8959,13.8186,13.669,13.4497,12.8926,0.0,0.0,0.0,0.0,0.0,0.0,0.0,0.0,0.0,0.0,0.0,0.0,0.0,0.0,0.0,0.0,0.0,0.0,0.0,0.0,0.0,0.0,0.0,0.0,0.0,0.0,0.0,8.1179,0.0,0.0,0.0,0.0,0.0,0.0,0.0,0.0,0.0,0.0,0.0,0.0,0.0,0.0,12.9484,13.3115,13.6762,13.9127,0.0,0.0,13.9321,14.0969,13.9446,13.6971,0.0,0.0,0.0,0.0,0.0,0.0,0.0,0.0,0.0,0.0,0.0,0.0,0.0,0.0,0.0,0.0,0.0,0.0,0.0,0.0,0.0,0.0,0.0,0.0,0.0,0.0,0.0,0.0,0.0,0.0,0.0,0.0,0.0,0.0,0.0,0.0,0.0,0.0,0.0,0.0,0.0,0.0,0.0,0.0,0.0,0.0,0.0,0.0,0.0,0.0,0.0,0.0,0.0,0.0,11.4778,12.2788,13.1872,13.7172,13.8418,13.7773,13.6805,13.5536,12.8685,12.2102,0.0,0.0,0.0,0.0,0.0,0.0,0.0,0.0,0.0,0.0,0.0,0.0,0.0,0.0,0.0,0.0,0.0,0.0,0.0,0.0,0.0,0.0,0.0,0.0,0.0,0.0,0.0,0.0,0.0,0.0,0.0,0.0,0.0,0.0,0.0,0.0,0.0,0.0,0.0,0.0,0.0,0.0,12.8631,13.0811,0.0,0.0,0.0,13.2171,13.3917,0.0,0.0,0.0,0.0,0.0,0.0,0.0,0.0,0.0,0.0,0.0,0.0,0.0,0.0,0.0,0.0,0.0,0.0,0.0,0.0,0.0,0.0,0.0,0.0,0.0,0.0,0.0,0.0,0.0,0.0,0.0,0.0,0.0,0.0,0.0,0.0,0.0,0.0,0.0,0.0,0.0,0.0,0.0,0.0,0.0,0.0,0.0,0.0,0.0,0.0,0.0,0.0,0.0,0.0,0.0,0.0,0.0,12.1354,12.9541,13.5297,13.8354,13.714,13.6947,13.7998,12.9113,12.2333,0.0,0.0,0.0,0.0,0.0,0.0,0.0,0.0,0.0,0.0,0.0,0.0,0.0,0.0,0.0,0.0,0.0,0.0,0.0,0.0,0.0,0.0,0.0,0.0,0.0,0.0,0.0,0.0,0.0,0.0,0.0,0.0,0.0,0.0,0.0,0.0,0.0,0.0,0.0,0.0,0.0,11.847,12.4736,12.5384,12.4557,0.0,0.0,12.5362,12.6927,12.5756,0.0,0.0,0.0,0.0,0.0,0.0,0.0,0.0,0.0,0.0,0.0,0.0,0.0,0.0,0.0,0.0,0.0,0.0,0.0,0.0,0.0,0.0,0.0,0.0,0.0,0.0,0.0,0.0,0.0,0.0,0.0,0.0,0.0,0.0,0.0,0.0,0.0,0.0,0.0,0.0,0.0,0.0,0.0,0.0,0.0,0.0,0.0,0.0,0.0,0.0,0.0,0.0,0.0,0.0,0.0,0.0,12.1337,12.9541,13.5297,13.8429,13.8257,13.7581,13.6453,13.0636,12.4121,0.0,0.0,0.0,0.0,0.0,0.0,0.0,0.0,0.0,0.0,0.0,0.0,0.0,0.0,0.0,0.0,0.0,0.0,0.0,0.0,0.0,0.0,0.0,0.0,0.0,0.0,0.0,0.0,0.0,0.0,0.0,0.0,0.0,0.0,0.0,0.0,0.0,0.0,0.0,0.0,0.0,11.4654,11.8573,11.7921,0.0,0.0,0.0,0.0,11.7227,11.6937,0.0,0.0,0.0,0.0,0.0,0.0,0.0,0.0,0.0,0.0,0.0,0.0,0.0,0.0,0.0,0.0,0.0,0.0,0.0,0.0,0.0,0.0,0.0,0.0,0.0,0.0,0.0,0.0,0.0,0.0,0.0,0.0,0.0,0.0,0.0,0.0,0.0,0.0,0.0,0.0,0.0,0.0,0.0,0.0,0.0,0.0,0.0,0.0,0.0,0.0,0.0,0.0,0.0,0.0,0.0,0.0,11.8878,12.6452,13.2928,13.8354,13.8579,13.7827,13.6023,13.1934,12.5493,0.0,0.0,0.0,0.0,0.0,0.0,0.0,0.0,0.0,0.0,0.0,0.0,0.0,0.0,0.0,0.0,0.0,0.0,0.0,0.0,0.0,0.0,0.0,0.0,0.0,0.0,0.0,0.0,0.0,0.0,0.0,0.0,0.0,0.0,0.0,0.0,0.0,0.0,0.0,0.0,10.4244,10.8673,11.1962,0.0,0.0,0.0,0.0,0.0,0.0,11.0839,10.9922,0.0,0.0,0.0,0.0,0.0,0.0,0.0,0.0,0.0,0.0,0.0,0.0,0.0,0.0,0.0,0.0,0.0,0.0,0.0,0.0,0.0,0.0,0.0,0.0,0.0,0.0,0.0,0.0,0.0,0.0,0.0,0.0,0.0,0.0,0.0,0.0,0.0,0.0,0.0,0.0,0.0,0.0,0.0,0.0,0.0,0.0,0.0,0.0,0.0,0.0,0.0,0.0,0.0,0.0,0.0,11.6048,12.2996,13.035,13.7945,13.8751,13.8053,13.6023,13.2536,12.5869,11.5934,0.0,0.0,0.0,0.0,0.0,0.0,0.0,0.0,0.0,0.0,0.0,0.0,0.0,0.0,0.0,0.0,0.0,0.0,0.0,0.0,0.0,0.0,0.0,0.0,0.0,0.0,0.0,0.0,0.0,0.0,0.0,0.0,0.0,0.0,0.0,0.0,0.0,0.0,0.0,9.8283,10.2248,0.0,0.0,0.0,0.0,0.0,0.0,0.0,0.0,10.4699,0.0,0.0,0.0,0.0,0.0,0.0,0.0,0.0,0.0,0.0,0.0,0.0,0.0,0.0,0.0,0.0,0.0,0.0,0.0,0.0,0.0,0.0,0.0,0.0,0.0,0.0,0.0,0.0,0.0,0.0,0.0,0.0,0.0,0.0,0.0,0.0,0.0,0.0,0.0,0.0,0.0,0.0,0.0,0.0,0.0,0.0,0.0,0.0,0.0,0.0,0.0,0.0,0.0,0.0,0.0,0.0,12.2501,12.9784,13.6371,13.9298,13.9256,13.6098,13.1409,12.3672,11.2686,0.0,0.0,0.0,0.0,0.0,0.0,0.0,0.0,0.0,0.0,0.0,0.0,0.0,0.0,0.0,0.0,0.0,0.0,0.0,0.0,0.0,0.0,0.0,0.0,0.0,0.0,0.0,0.0,0.0,0.0,0.0,0.0,0.0,0.0,0.0,0.0,0.0,0.0,8.1794,9.0471,0.0,0.0,0.0,0.0,0.0,0.0,0.0,0.0,9.8907,0.0,0.0,0.0,0.0,0.0,0.0,0.0,0.0,0.0,0.0,0.0,0.0,0.0,0.0,0.0,0.0,0.0,0.0,0.0,0.0,0.0,0.0,0.0,0.0,0.0,0.0,0.0,0.0,0.0,0.0,0.0,0.0,0.0,0.0,0.0,0.0,0.0,0.0,0.0,0.0,0.0,0.0,0.0,0.0,0.0,0.0,0.0,0.0,0.0,0.0,0.0,0.0,0.0,0.0,0.0,0.0,0.0,0.0,12.8388,13.4735,13.8095,13.8203,13.4745,12.7451,11.9304,0.0,0.0,0.0,0.0,0.0,0.0,0.0,0.0,0.0,0.0,0.0,0.0,0.0,0.0,0.0,0.0,0.0,0.0,0.0,0.0,0.0,0.0,0.0,0.0,0.0,0.0,0.0,0.0,0.0,0.0,0.0,0.0,0.0,0.0,0.0,0.0,0.0,0.0,0.0,0.0,0.0,0.0,0.0,0.0,0.0,0.0,0.0,0.0,0.0,0.0,0.0,0.0,0.0,0.0,0.0,0.0,0.0,0.0,0.0,0.0,0.0,0.0,0.0,0.0,0.0,0.0,0.0,0.0,0.0,0.0,0.0,0.0,0.0,0.0,0.0,0.0,0.0,0.0,0.0,0.0,0.0,0.0,0.0,0.0,0.0,0.0,0.0,0.0,0.0,0.0,0.0,0.0,0.0,0.0,0.0,0.0,0.0,0.0,0.0,0.0,0.0,0.0,0.0,0.0,0.0,0.0,0.0,0.0,12.6011,13.2063,13.6386,13.685,13.3241,12.3276,11.4721,0.0,0.0,0.0,0.0,0.0,0.0,0.0,0.0,0.0,0.0,0.0,0.0,0.0,0.0,0.0,0.0,0.0,0.0,0.0,0.0,0.0,0.0,0.0,0.0,0.0,0.0,0.0,0.0,0.0,0.0,0.0,0.0,0.0,0.0,0.0,0.0,0.0,0.0,0.0,0.0,0.0,0.0,0.0,0.0,0.0,0.0,0.0,0.0,8.8686,0.0,0.0,0.0,0.0,0.0,0.0,0.0,0.0,0.0,0.0,0.0,0.0,0.0,0.0,0.0,0.0,0.0,0.0,0.0,0.0,0.0,0.0,0.0,0.0,0.0,0.0,0.0,0.0,0.0,0.0,0.0,0.0,0.0,0.0,0.0,0.0,0.0,0.0,0.0,0.0,0.0,0.0,0.0,0.0,0.0,0.0,0.0,0.0,0.0,0.0,0.0,0.0,0.0,0.0,0.0,0.0,0.0,0.0,0.0,12.2183,12.7258,13.4695,13.6324,13.1436,12.0519,11.0915,0.0,0.0,0.0,0.0,0.0,0.0,0.0,0.0,0.0,0.0,0.0,0.0,0.0,0.0,0.0,0.0,0.0,0.0,0.0,0.0,0.0,0.0,0.0,0.0,0.0,0.0,0.0,0.0,0.0,0.0,0.0,0.0,0.0,0.0,0.0,0.0,0.0,0.0,0.0,0.0,0.0,0.0,0.0,0.0,0.0,0.0,0.0,0.0,0.0,0.0,0.0,0.0,0.0,0.0,0.0,0.0,0.0,0.0,0.0,0.0,0.0,0.0,0.0,0.0,0.0,0.0,0.0,0.0,0.0,0.0,0.0,0.0,0.0,0.0,0.0,0.0,0.0,0.0,0.0,0.0,0.0,0.0,0.0,0.0,0.0,0.0,0.0,0.0,0.0,0.0,0.0,0.0,0.0,0.0,0.0,0.0,0.0,0.0,0.0,0.0,0.0,0.0,0.0,0.0,0.0,0.0,0.0,0.0,11.6871,12.3648,12.9765,12.8768,12.0175,11.1608,10.374,0.0,0.0,0.0,0.0,0.0,0.0,0.0,0.0,0.0,0.0,0.0,0.0,0.0,0.0,0.0,0.0,0.0,0.0,0.0,0.0,0.0,0.0,0.0,0.0,0.0,0.0,0.0,0.0,0.0,0.0,0.0,0.0,0.0,0.0,0.0,0.0,0.0,0.0,0.0,0.0,0.0,0.0,0.0,0.0,0.0,0.0,0.0,0.0,0.0,0.0,0.0,0.0,0.0,0.0,0.0,0.0,0.0,0.0,0.0,0.0,0.0,0.0,0.0,0.0,0.0,0.0,0.0,0.0,0.0,0.0,0.0,0.0,0.0,0.0,0.0,0.0,0.0,0.0,0.0,0.0,0.0,0.0,0.0,0.0,0.0,0.0,0.0,0.0,0.0,0.0,0.0,0.0,0.0,0.0,0.0,0.0,0.0,0.0,0.0,0.0,0.0,0.0,0.0,0.0,0.0,0.0,0.0,0.0,0.0,11.6904,11.9804,11.7192,10.8805,10.264,9.6538,0.0,0.0,0.0,0.0,0.0,0.0,0.0,0.0,0.0,0.0,0.0,0.0,0.0,0.0,0.0,0.0,0.0,0.0,0.0,0.0,0.0,0.0,0.0,0.0,0.0,0.0,0.0,0.0,0.0,0.0,0.0,0.0,0.0,0.0,0.0,0.0,0.0,0.0,0.0,0.0,0.0,0.0,0.0,0.0,0.0,0.0,0.0,0.0,0.0,0.0,0.0,0.0,0.0,0.0,0.0,0.0,0.0,0.0,0.0,0.0,0.0,0.0,0.0,0.0,0.0,0.0,0.0,0.0,0.0,0.0,0.0,0.0,0.0,0.0,0.0,0.0,0.0,0.0,0.0,0.0,0.0,0.0,0.0,0.0,0.0,0.0,0.0,0.0,0.0,0.0,0.0,0.0,0.0,0.0,0.0,0.0,0.0,0.0,0.0,0.0,0.0,0.0,0.0,0.0,0.0,0.0,0.0,0.0,0.0,10.5285,10.2581,10.0935,10.0065,9.526,9.0337,0.0,0.0,0.0,0.0,0.0,0.0,0.0,0.0,0.0,0.0,0.0,0.0,0.0,0.0,0.0,0.0,0.0,0.0,0.0,0.0,0.0,0.0,0.0,0.0,0.0,0.0,0.0,0.0,0.0,0.0,0.0,0.0,0.0,0.0,0.0,0.0,0.0,0.0,0.0,0.0,0.0,0.0,0.0,0.0,0.0,0.0,0.0,0.0,0.0,0.0,0.0,0.0,0.0,0.0,0.0,0.0,0.0,0.0,0.0,0.0,0.0,0.0,0.0,0.0,0.0,0.0,0.0,0.0,0.0,0.0,0.0,0.0,0.0,0.0,0.0,0.0,0.0,0.0,0.0,0.0,0.0,0.0,0.0,0.0,0.0,0.0,0.0,0.0,0.0,0.0,0.0,0.0,0.0,0.0,0.0,0.0,0.0,0.0,0.0,0.0,0.0,0.0,0.0,0.0,0.0,0.0,0.0,0.0,0.0,8.9064,8.8907,8.8825,8.8807,8.5945,8.2556,7.8642,0.0,0.0,0.0,0.0,0.0,0.0,0.0,0.0,0.0,0.0,0.0,0.0,0.0,0.0,0.0,0.0,0.0,0.0,0.0,0.0,0.0,0.0,0.0,0.0,0.0,0.0,0.0,0.0,0.0,0.0,0.0,0.0,0.0,0.0,0.0,0.0,0.0,0.0,0.0,0.0,0.0,0.0,0.0,0.0,0.0,0.0,0.0,0.0,0.0,0.0,0.0,0.0,0.0,0.0,0.0,0.0,0.0,0.0,0.0,0.0,0.0,0.0,0.0,0.0,0.0,0.0,0.0,0.0,0.0,0.0,0.0,0.0,0.0,0.0,0.0,0.0,0.0,0.0,0.0,0.0,0.0,0.0,0.0,0.0,0.0,0.0,0.0,0.0,0.0,0.0,0.0,0.0,0.0,0.0,0.0,0.0,0.0,0.0,0.0,0.0,0.0,0.0,0.0,0.0,0.0,0.0,0.0,0.0,7.8412,7.9524,8.0115,8.0039,7.8521,7.6545,0.0,0.0,0.0,0.0,0.0,0.0,0.0,0.0,0.0,0.0,0.0,0.0,0.0,0.0,0.0,0.0,0.0,0.0,0.0,0.0,0.0,0.0,0.0,0.0,0.0,0.0,0.0,0.0,0.0,0.0,0.0,0.0,0.0,0.0,0.0,0.0,0.0,0.0,0.0,0.0,0.0,0.0,0.0,0.0,0.0,0.0,0.0,0.0,0.0,0.0,0.0,0.0,0.0,0.0,0.0,0.0,0.0,0.0,0.0,0.0,0.0,0.0,0.0,0.0,0.0,0.0,0.0,0.0,0.0,0.0,0.0,0.0,0.0,0.0,0.0,0.0,0.0,0.0,0.0,0.0,0.0,0.0,0.0,0.0,0.0,0.0,0.0,0.0,0.0,0.0,0.0,0.0,0.0,0.0,0.0,0.0,0.0,0.0,0.0,0.0,0.0,0.0,0.0,0.0,0.0,0.0,0.0,0.0,7.183,7.4864,7.5078,7.522,7.507,7.3538,7.2619,0.0,0.0,0.0,0.0,0.0,0.0,0.0,0.0,0.0,0.0,0.0,0.0,0.0,0.0,0.0,0.0,0.0,0.0,0.0,0.0,0.0,0.0,0.0,0.0,0.0,0.0,0.0,0.0,0.0,0.0,0.0,0.0,0.0,0.0,0.0,0.0,0.0,0.0,0.0,0.0,0.0,0.0,0.0,0.0,0.0,0.0,0.0,0.0,0.0,0.0,0.0,0.0,0.0,0.0,0.0,0.0,0.0,0.0,0.0,0.0,0.0,0.0,0.0,0.0,0.0,0.0,0.0,0.0,0.0,0.0,0.0,0.0,0.0,0.0,0.0,0.0,0.0,0.0,0.0,0.0,0.0,0.0,0.0,0.0,0.0,0.0,0.0,0.0,0.0,0.0,0.0,0.0,0.0,0.0,0.0,0.0,0.0,0.0,0.0,0.0,0.0,0.0,0.0,0.0,0.0,0.0,0.0,0.0,0.0,6.9932,0.0,7.1589,7.1589,7.1038,7.0795,0.0,0.0,0.0,0.0,0.0,0.0,0.0,0.0,0.0,0.0,0.0,0.0,0.0,0.0,0.0,0.0,0.0,0.0,0.0,0.0,0.0,0.0,0.0,0.0,0.0,0.0,0.0,0.0,0.0,0.0,0.0,0.0,0.0,0.0,0.0,0.0,0.0,0.0,0.0,0.0,0.0,0.0,0.0,0.0,0.0,0.0,0.0,0.0,0.0,0.0,0.0,0.0,0.0,0.0,0.0,0.0,0.0,0.0,0.0,0.0,0.0,0.0,0.0,0.0,0.0,0.0,0.0,0.0,0.0,0.0,0.0,0.0,0.0,0.0,0.0,0.0,0.0,0.0,0.0,0.0,0.0,0.0,0.0,0.0,0.0,0.0,0.0,0.0,0.0,0.0,0.0,0.0,0.0,0.0,0.0,0.0,0.0,0.0,0.0,0.0,0.0,0.0,0.0,0.0,0.0,0.0,0.0,0.0,0.0,6.7503,6.9095,7.0,6.9995,6.9971,7.0024,0.0,0.0,0.0,0.0,0.0,0.0,0.0,0.0,0.0,0.0,0.0,0.0,0.0,0.0,0.0,0.0,0.0,0.0,0.0,0.0,0.0,0.0,0.0,0.0,0.0,0.0,0.0,0.0,0.0,0.0,0.0,0.0,0.0,0.0,0.0,0.0,0.0,0.0,0.0,0.0,0.0,0.0,0.0,0.0,0.0,0.0,0.0,0.0,0.0,0.0,0.0,0.0,0.0,0.0,0.0,0.0,0.0,0.0,0.0,0.0,0.0,0.0,0.0,0.0,0.0,0.0,0.0,0.0,0.0,0.0,0.0,0.0,0.0,0.0,0.0,0.0,0.0,0.0,0.0,0.0,0.0,0.0,0.0,0.0,0.0,0.0,0.0,0.0,0.0,0.0,0.0,0.0,0.0,0.0,0.0,0.0,0.0,0.0,0.0,0.0,0.0,0.0,0.0,0.0,0.0,0.0,0.0,0.0,0.0,6.7275,6.9096,7.0003,6.9987,7.0033,7.0014,0.0,0.0,0.0,0.0,0.0,0.0,0.0,0.0,0.0,0.0,0.0,0.0,0.0,0.0,0.0,0.0,0.0,0.0,0.0,0.0,0.0,0.0,0.0,0.0,0.0,0.0,0.0,0.0,0.0,0.0,0.0,0.0,0.0,0.0,0.0,0.0,0.0,0.0,0.0,0.0,0.0,0.0,0.0,0.0,0.0,0.0,0.0,0.0,0.0,0.0,0.0,0.0,0.0,0.0,0.0,0.0,0.0,0.0,0.0,0.0,0.0,0.0,0.0,0.0,0.0,0.0,0.0,0.0,0.0,0.0,0.0,0.0,0.0,0.0,0.0,0.0,0.0,0.0,0.0,0.0,0.0,0.0,0.0,0.0,0.0,0.0,0.0,0.0,0.0,0.0,0.0,0.0,0.0,0.0,0.0,0.0,0.0,0.0,0.0,0.0,0.0,0.0,0.0,0.0,0.0,0.0,0.0,0.0,0.0,0.0,6.8488,7.0002,6.9987,7.0036,7.0011,6.992,0.0,0.0,0.0,0.0,0.0,0.0,0.0,0.0,0.0,0.0,0.0,0.0,0.0,0.0,0.0,0.0,0.0,0.0,0.0,0.0,0.0,0.0,0.0,0.0,0.0,0.0,0.0,0.0,0.0,0.0,0.0,0.0,0.0,0.0,0.0,0.0,0.0,0.0,0.0,0.0,0.0,0.0,0.0,0.0,0.0,0.0,0.0,0.0,0.0,0.0,0.0,0.0,0.0,0.0,0.0,0.0,0.0,0.0,0.0,0.0,0.0,0.0,0.0,0.0,0.0,0.0,0.0,0.0,0.0,0.0,0.0,0.0,0.0,0.0,0.0,0.0,0.0,0.0,0.0,0.0,0.0,0.0,0.0,0.0,0.0,0.0,0.0,0.0,0.0,0.0,0.0,0.0,0.0,0.0,0.0,0.0,0.0,0.0,0.0,0.0,0.0,0.0,0.0,0.0,0.0,0.0,0.0,0.0,0.0,0.0,6.9997,6.9988,6.9966,7.0014,0.0,0.0,0.0,0.0,0.0,0.0,0.0,0.0,0.0,0.0,0.0,0.0,0.0,0.0,0.0,0.0,0.0,0.0,0.0,0.0,0.0,0.0,0.0,0.0,0.0,0.0,0.0,0.0,0.0,0.0,0.0,0.0,0.0,0.0,0.0,0.0,0.0,0.0,0.0,0.0,0.0,0.0,0.0,0.0,0.0,0.0,0.0,0.0,0.0,0.0,0.0,0.0,0.0,0.0,0.0,0.0,0.0,0.0,0.0,0.0,0.0,0.0,0.0,0.0,0.0,0.0,0.0,0.0,0.0,0.0,0.0,0.0,0.0,0.0,0.0,0.0,0.0,0.0,0.0,0.0,0.0,0.0,0.0,0.0,0.0,0.0,0.0,0.0,0.0,0.0,0.0,0.0,0.0,0.0,0.0,0.0,0.0,0.0,0.0,0.0,0.0,0.0,0.0,0.0,0.0,0.0,0.0,0.0,0.0,0.0,0.0,6.9987,6.9985,6.9971,0.0,6.9761,0.0,0.0,0.0,0.0,0.0,0.0,0.0,0.0,0.0,0.0,0.0,0.0,0.0,0.0,0.0,0.0,0.0,0.0,0.0,0.0,0.0,0.0,0.0,0.0,0.0,0.0,0.0,0.0,0.0,0.0,0.0,0.0,0.0,0.0,0.0,0.0,0.0,0.0,0.0,0.0,0.0,0.0,0.0,0.0,0.0,0.0,0.0,0.0,0.0,0.0,0.0,0.0,0.0,0.0,0.0,0.0,0.0,0.0,0.0,0.0,0.0,0.0,0.0,0.0,0.0,0.0,0.0,0.0,0.0,0.0,0.0,0.0,0.0,0.0,0.0,0.0,0.0,0.0,0.0,0.0,0.0,0.0,0.0,0.0,0.0,0.0,0.0,0.0,0.0,0.0,0.0,0.0,0.0,0.0,0.0,0.0,0.0,0.0,0.0,0.0,0.0,0.0,0.0,0.0,0.0,0.0,0.0,0.0,0.0,0.0,0.0,0.0,7.0031,6.9408,6.8093,0.0,0.0,0.0,0.0,0.0,0.0,0.0,0.0,0.0,0.0,0.0,0.0,0.0,0.0,0.0,0.0,0.0,0.0,0.0,0.0,0.0,0.0,0.0,0.0,0.0,0.0,0.0,0.0,0.0,0.0,0.0,0.0,0.0,0.0,0.0,0.0,0.0,0.0,0.0,0.0,0.0,0.0,0.0,0.0,0.0,0.0,0.0,0.0,0.0,0.0,0.0,0.0,0.0,0.0,0.0,0.0,0.0,0.0,0.0,0.0,0.0,0.0,0.0,0.0,0.0,0.0,0.0,0.0,0.0,0.0,0.0,0.0,0.0,0.0,0.0,0.0,0.0,0.0,0.0,0.0,0.0,0.0,0.0,0.0,0.0,0.0,0.0,0.0,0.0,0.0,0.0,0.0,0.0,0.0,0.0,0.0,0.0,0.0,0.0,0.0,0.0,0.0,0.0,0.0,0.0,0.0,0.0,0.0,0.0,0.0,6.8,6.8752,6.8814,6.8418,6.7486,0.0,0.0,0.0,0.0,0.0,0.0,0.0,0.0,0.0,0.0,0.0,0.0,0.0,0.0,0.0,0.0,0.0,0.0,0.0,0.0,0.0,0.0,0.0,0.0,0.0,0.0,0.0,0.0,0.0,0.0,0.0,0.0,0.0,0.0,0.0,0.0,0.0,0.0,0.0,0.0,0.0,0.0,0.0,0.0,0.0,0.0,0.0,0.0,0.0,0.0,0.0,0.0,0.0,0.0,0.0,0.0,0.0,0.0,0.0,0.0,0.0,0.0,0.0,0.0,0.0,0.0,0.0,0.0,0.0,0.0,0.0,0.0,0.0,0.0,0.0,0.0,0.0,0.0,0.0,0.0,0.0,0.0,0.0,0.0,0.0,0.0,0.0,0.0,0.0,0.0,0.0,0.0,0.0,0.0,0.0,0.0,0.0,0.0,0.0,0.0,0.0,0.0,0.0,0.0,0.0,0.0,0.0,0.0,0.0,0.0,6.5641,0.0,0.0,0.0,6.7482,0.0,0.0,0.0,0.0,0.0,0.0,0.0,0.0,0.0,0.0,0.0,0.0,0.0,0.0,0.0,0.0,0.0,0.0,0.0,0.0,0.0,0.0,0.0,0.0,0.0,0.0,0.0,0.0,0.0,0.0,0.0,0.0,0.0,0.0,0.0,0.0,0.0,0.0,0.0,0.0,0.0,0.0,0.0,0.0,0.0,0.0,0.0,0.0,0.0,0.0,0.0,0.0,0.0,0.0,0.0,0.0,0.0,0.0,0.0,0.0,0.0,0.0,0.0,0.0,0.0,0.0,0.0,0.0,0.0,0.0,0.0,0.0,0.0,0.0,0.0,0.0,0.0,0.0,0.0,0.0,0.0,0.0,0.0,0.0,0.0,0.0,0.0,0.0,0.0,0.0,0.0,0.0,0.0,0.0,0.0,0.0,0.0,0.0,0.0,0.0,0.0,0.0,0.0,0.0,0.0,0.0,0.0,0.0,0.0,0.0,0.0,0.0,0.0,0.0,0.0,0.0,0.0,0.0,0.0,0.0,0.0,0.0,0.0,0.0,0.0,0.0,0.0,0.0,0.0,0.0,0.0,0.0,0.0,0.0,0.0,0.0,0.0,0.0,0.0,0.0,0.0,0.0,0.0,0.0,0.0,0.0,0.0,0.0,0.0,0.0,0.0,0.0,0.0,0.0,0.0,0.0,0.0,0.0,0.0,0.0,0.0,0.0,0.0,0.0,0.0,0.0,0.0,0.0,0.0,0.0,0.0,0.0,0.0,0.0,0.0,0.0,0.0,0.0,0.0,0.0,0.0,0.0,0.0,0.0,0.0,0.0,0.0,0.0,0.0,0.0,0.0,0.0,0.0,0.0,0.0,0.0,0.0,0.0,0.0,0.0,0.0,0.0,0.0,0.0,0.0,0.0,0.0,0.0,0.0,0.0,0.0,0.0,0.0,0.0,0.0,0.0,0.0,0.0,0.0,0.0,0.0,0.0,0.0,0.0,0.0,0.0,0.0,0.0,0.0,0.0,0.0,0.0,0.0,0.0,0.0,0.0,0.0,0.0,0.0,0.0,0.0,0.0,0.0,0.0,0.0,0.0,0.0,0.0,0.0,0.0,0.0,0.0,0.0,0.0,0.0,0.0,0.0,0.0,0.0,0.0,0.0,0.0,0.0,0.0,0.0,0.0,0.0,0.0,0.0,0.0,0.0,0.0,0.0,0.0,0.0,0.0,0.0,0.0,0.0,0.0,0.0,0.0,0.0,0.0,0.0,0.0,0.0,0.0,0.0,0.0,0.0,0.0,0.0,0.0,0.0,0.0,0.0,0.0,0.0,0.0,0.0,0.0,0.0,0.0,0.0,0.0,0.0,0.0,0.0,0.0,0.0,0.0,0.0,0.0,0.0,0.0,0.0,0.0,0.0,0.0,0.0,0.0,0.0,0.0,0.0,0.0,0.0,0.0,0.0,0.0,0.0,0.0,0.0,0.0,0.0,0.0,0.0,0.0,0.0,0.0,0.0,0.0,0.0,0.0,0.0,0.0,0.0,0.0,0.0,0.0,0.0,0.0,0.0,0.0,0.0,0.0,0.0,0.0,0.0,0.0,0.0,0.0,0.0,0.0,0.0,0.0,0.0,0.0,0.0,0.0,0.0,0.0,0.0,0.0,0.0,0.0,0.0,0.0,0.0,0.0,0.0,0.0,0.0,0.0,0.0,0.0,0.0,0.0,0.0,0.0,0.0,0.0,0.0,0.0,0.0,0.0,0.0,0.0,0.0,0.0,0.0,0.0,0.0,0.0,0.0,0.0,0.0,0.0,0.0,0.0,0.0,0.0,0.0,0.0,0.0,0.0,0.0,0.0,0.0,0.0,0.0,0.0,0.0,0.0,0.0,0.0,0.0,0.0,0.0,0.0,0.0,0.0,0.0,0.0,0.0,0.0,0.0,0.0,0.0,0.0,0.0,0.0,0.0,0.0,0.0,0.0,0.0,0.0,0.0,0.0,0.0,0.0,0.0,0.0,0.0,0.0,0.0,0.0,0.0,0.0,0.0,0.0,0.0,0.0,0.0,0.0,0.0,0.0,0.0,0.0,0.0,0.0,0.0,0.0,0.0,0.0,0.0,0.0,0.0,0.0,0.0,0.0,0.0,0.0,0.0,0.0,0.0,0.0,0.0,0.0,0.0,0.0,0.0,0.0,0.0,0.0,0.0,0.0,0.0,0.0,0.0,0.0,0.0,0.0,0.0,0.0,0.0,0.0,0.0,0.0,0.0,0.0,0.0,0.0,0.0,0.0,0.0,0.0,0.0,0.0,0.0,0.0,0.0,0.0,0.0,0.0,0.0,0.0,0.0,0.0,0.0,0.0,0.0,0.0,0.0,0.0,0.0,0.0,0.0,0.0,0.0,0.0,0.0,0.0,0.0,0.0,0.0,0.0,0.0,0.0,0.0,0.0,0.0,0.0,0.0,0.0,0.0,0.0,0.0,0.0,0.0,0.0,0.0,0.0,0.0,0.0,0.0,0.0,0.0,0.0,0.0,0.0,0.0,0.0,0.0,0.0,0.0,0.0,0.0,0.0,0.0,0.0,0.0,0.0,0.0,0.0,0.0,0.0,0.0,0.0,0.0,0.0,0.0,0.0,0.0,0.0,0.0,0.0,0.0,0.0,0.0,0.0,0.0,0.0,0.0,0.0,0.0,0.0,0.0,0.0,0.0,0.0,0.0,0.0,0.0,0.0,0.0,0.0,0.0,0.0,0.0,0.0,0.0,0.0,0.0,0.0,0.0,0.0,0.0,0.0,0.0,0.0,0.0,0.0,0.0,0.0,0.0,0.0,0.0,0.0,0.0,0.0,0.0,0.0,0.0,0.0,0.0,0.0,0.0,0.0,0.0,0.0,0.0,0.0,0.0,0.0,0.0,0.0,0.0,0.0,0.0,0.0,0.0,0.0,0.0,0.0,0.0,0.0,0.0,0.0,0.0,0.0,0.0,0.0,0.0,0.0,0.0,0.0,0.0,0.0,0.0,0.0,0.0,0.0,0.0,0.0,0.0,0.0,0.0,0.0,0.0,0.0,0.0,0.0,0.0,0.0,0.0,0.0,0.0,0.0,0.0,0.0,0.0,0.0,0.0,0.0,0.0,0.0,0.0,0.0,0.0,0.0,0.0,0.0,0.0,0.0,0.0,0.0,0.0,0.0,0.0,0.0,0.0,0.0,0.0,0.0,0.0,0.0,0.0,0.0,0.0,0.0,0.0,0.0,0.0,0.0,0.0,0.0,0.0,0.0,0.0,0.0,0.0,0.0,0.0,0.0,0.0,0.0,0.0,0.0,0.0,0.0,0.0,0.0,0.0,0.0,0.0,0.0,0.0,0.0,0.0,0.0,0.0,0.0,0.0,0.0,0.0,0.0,0.0,0.0,0.0,0.0,0.0,0.0,0.0,0.0,0.0,0.0,0.0,0.0,0.0,0.0,0.0,0.0,0.0,0.0,0.0,0.0,0.0,0.0,0.0,0.0,0.0,0.0,0.0,0.0,0.0,0.0,0.0,0.0,0.0,0.0,0.0,0.0,0.0,0.0,0.0,0.0,0.0,0.0,0.0,0.0,0.0,0.0,0.0,0.0,0.0,0.0,0.0,0.0,0.0,0.0,0.0,0.0,0.0,0.0,0.0,0.0,0.0,0.0,0.0,0.0,0.0,0.0,0.0,0.0,0.0,0.0,0.0,0.0,0.0,0.0,0.0,0.0,0.0,0.0,0.0,0.0,0.0,0.0,0.0,0.0,0.0,0.0,0.0,0.0,0.0,0.0,0.0,0.0,0.0,0.0,0.0,0.0,0.0,0.0,0.0,0.0,0.0,0.0,0.0,0.0,0.0,0.0,0.0,0.0,0.0,0.0,0.0,0.0,0.0,0.0,0.0,0.0,0.0,0.0,0.0,0.0,0.0,0.0,0.0,0.0,0.0,0.0,0.0,0.0,0.0,0.0,0.0,0.0,0.0,0.0,0.0,0.0,0.0,0.0,0.0,0.0,0.0,0.0,0.0,0.0,0.0,0.0,0.0,0.0,0.0,0.0,0.0,0.0,0.0,0.0,0.0,0.0,0.0,0.0,0.0,0.0,0.0,0.0,0.0,0.0,0.0,0.0,0.0,0.0,0.0,0.0,0.0,0.0,0.0,0.0,0.0,0.0,0.0,0.0,0.0,0.0,0.0,0.0,0.0,0.0,0.0,0.0,0.0,0.0,0.0,0.0,0.0,0.0,0.0,0.0,0.0,0.0,0.0,0.0,0.0,0.0,0.0,0.0,0.0,0.0,0.0,0.0,0.0,0.0,0.0,0.0,0.0,0.0,0.0,0.0,0.0,0.0,0.0,0.0,0.0,0.0]}]]]